<?xml version="1.0" encoding="UTF-8" standalone="no" ?>
<gpx xmlns="http://www.topografix.com/GPX/1/1" xmlns:xsi="http://www.w3.org/2001/XMLSchema-instance" xsi:schemaLocation="http://www.topografix.com/GPX/1/1 http://www.topografix.com/GPX/1/1/gpx.xsd" version="1.1" creator="VisuGPX - https://www.visugpx.com">
  <metadata>
    <name>Rocamadour - Gorges de l'Alzou</name>
    <desc><![CDATA[A partir de Rocamadour les gorges de l'Alzou avec ses ruines de moulins. Surtout le moulin de Saut, magnifique travail d'ingéniosité de nos anciens. De très beaux points de vue.

Nous avions prévu de remonter sur le plateau coté Nord pour surplomber Rocamadour au retour. La chaleur nous a fait restée dans la gorge. Nous avons fait un aller retour finalement. Pas de regret au regard de la température.]]></desc>
  </metadata>
  <trk>
    <name><![CDATA[Gorge de l'Alzou]]></name>
    <extensions>
      <line xmlns="http://www.topografix.com/GPX/gpx_style/0/2">
        <color>0000ff</color>
        <width>4</width>
      </line>
    </extensions>
    <trkseg>
      <trkpt lat="44.80196" lon="1.6245">
        <ele>137.3</ele>
        <time>2023-09-25T07:52:49Z</time>
      </trkpt>
      <trkpt lat="44.80195" lon="1.62457">
        <ele>137.5</ele>
        <time>2023-09-25T07:53:06.586Z</time>
      </trkpt>
      <trkpt lat="44.80195" lon="1.62464">
        <ele>137.7</ele>
        <time>2023-09-25T07:53:23.826Z</time>
      </trkpt>
      <trkpt lat="44.80194" lon="1.62471">
        <ele>137.9</ele>
        <time>2023-09-25T07:53:41.412Z</time>
      </trkpt>
      <trkpt lat="44.80193" lon="1.62478">
        <ele>138.9</ele>
        <time>2023-09-25T07:53:59Z</time>
      </trkpt>
      <trkpt lat="44.8019" lon="1.62487">
        <ele>140</ele>
        <time>2023-09-25T07:54:07.063Z</time>
      </trkpt>
      <trkpt lat="44.80186" lon="1.62495">
        <ele>140.8</ele>
        <time>2023-09-25T07:54:15Z</time>
      </trkpt>
      <trkpt lat="44.80182" lon="1.62505">
        <ele>141.8</ele>
        <time>2023-09-25T07:54:23.311Z</time>
      </trkpt>
      <trkpt lat="44.80178" lon="1.62514">
        <ele>142.9</ele>
        <time>2023-09-25T07:54:31Z</time>
      </trkpt>
      <trkpt lat="44.80176" lon="1.62526">
        <ele>144.7</ele>
        <time>2023-09-25T07:54:56Z</time>
      </trkpt>
      <trkpt lat="44.80173" lon="1.62538">
        <ele>146.5</ele>
        <time>2023-09-25T07:55:05.130Z</time>
      </trkpt>
      <trkpt lat="44.80169" lon="1.62549">
        <ele>148.2</ele>
        <time>2023-09-25T07:55:14Z</time>
      </trkpt>
      <trkpt lat="44.80164" lon="1.62555">
        <ele>147.6</ele>
        <time>2023-09-25T07:55:17.880Z</time>
      </trkpt>
      <trkpt lat="44.80158" lon="1.6256">
        <ele>147.1</ele>
        <time>2023-09-25T07:55:22Z</time>
      </trkpt>
      <trkpt lat="44.80155" lon="1.62567">
        <ele>147.5</ele>
        <time>2023-09-25T07:55:26.484Z</time>
      </trkpt>
      <trkpt lat="44.80151" lon="1.62573">
        <ele>147.6</ele>
        <time>2023-09-25T07:55:31Z</time>
      </trkpt>
      <trkpt lat="44.80147" lon="1.62578">
        <ele>146.9</ele>
        <time>2023-09-25T07:55:34.999Z</time>
      </trkpt>
      <trkpt lat="44.80143" lon="1.62583">
        <ele>146</ele>
        <time>2023-09-25T07:55:39Z</time>
      </trkpt>
      <trkpt lat="44.8014" lon="1.62589">
        <ele>145.6</ele>
        <time>2023-09-25T07:55:43.440Z</time>
      </trkpt>
      <trkpt lat="44.80136" lon="1.62594">
        <ele>145.8</ele>
        <time>2023-09-25T07:55:48Z</time>
      </trkpt>
      <trkpt lat="44.80133" lon="1.62603">
        <ele>146.7</ele>
        <time>2023-09-25T07:55:53.759Z</time>
      </trkpt>
      <trkpt lat="44.8013" lon="1.62611">
        <ele>147.1</ele>
        <time>2023-09-25T07:55:59Z</time>
      </trkpt>
      <trkpt lat="44.80125" lon="1.62618">
        <ele>146.3</ele>
        <time>2023-09-25T07:56:09.128Z</time>
      </trkpt>
      <trkpt lat="44.8012" lon="1.62626">
        <ele>145.1</ele>
        <time>2023-09-25T07:56:20Z</time>
      </trkpt>
      <trkpt lat="44.80116" lon="1.62637">
        <ele>144.6</ele>
        <time>2023-09-25T07:56:26.499Z</time>
      </trkpt>
      <trkpt lat="44.80112" lon="1.62648">
        <ele>143.6</ele>
        <time>2023-09-25T07:56:33Z</time>
      </trkpt>
      <trkpt lat="44.80109" lon="1.62657">
        <ele>143.5</ele>
        <time>2023-09-25T07:56:36.999Z</time>
      </trkpt>
      <trkpt lat="44.80106" lon="1.62666">
        <ele>143.7</ele>
        <time>2023-09-25T07:56:41Z</time>
      </trkpt>
      <trkpt lat="44.80105" lon="1.62672">
        <ele>144.3</ele>
        <time>2023-09-25T07:56:43.176Z</time>
      </trkpt>
      <trkpt lat="44.80104" lon="1.62678">
        <ele>144.8</ele>
        <time>2023-09-25T07:56:45.352Z</time>
      </trkpt>
      <trkpt lat="44.80104" lon="1.62685">
        <ele>145.3</ele>
        <time>2023-09-25T07:56:47.823Z</time>
      </trkpt>
      <trkpt lat="44.80103" lon="1.62691">
        <ele>145.7</ele>
        <time>2023-09-25T07:56:50Z</time>
      </trkpt>
      <trkpt lat="44.80103" lon="1.627">
        <ele>146.3</ele>
        <time>2023-09-25T07:56:54.969Z</time>
      </trkpt>
      <trkpt lat="44.80102" lon="1.62709">
        <ele>146.8</ele>
        <time>2023-09-25T07:57:00Z</time>
      </trkpt>
      <trkpt lat="44.80099" lon="1.62716">
        <ele>145.9</ele>
        <time>2023-09-25T07:57:04.215Z</time>
      </trkpt>
      <trkpt lat="44.80096" lon="1.62722">
        <ele>144.9</ele>
        <time>2023-09-25T07:57:08Z</time>
      </trkpt>
      <trkpt lat="44.80095" lon="1.6273">
        <ele>144.5</ele>
        <time>2023-09-25T07:57:12.665Z</time>
      </trkpt>
      <trkpt lat="44.80093" lon="1.62737">
        <ele>144.1</ele>
        <time>2023-09-25T07:57:17Z</time>
      </trkpt>
      <trkpt lat="44.80094" lon="1.62746">
        <ele>145</ele>
        <time>2023-09-25T07:57:21.757Z</time>
      </trkpt>
      <trkpt lat="44.80095" lon="1.62754">
        <ele>146.2</ele>
        <time>2023-09-25T07:57:26Z</time>
      </trkpt>
      <trkpt lat="44.80094" lon="1.62764">
        <ele>146.5</ele>
        <time>2023-09-25T07:57:31.688Z</time>
      </trkpt>
      <trkpt lat="44.80092" lon="1.62773">
        <ele>146.7</ele>
        <time>2023-09-25T07:57:37Z</time>
      </trkpt>
      <trkpt lat="44.8009" lon="1.62779">
        <ele>145.9</ele>
        <time>2023-09-25T07:57:40.796Z</time>
      </trkpt>
      <trkpt lat="44.80087" lon="1.62785">
        <ele>144.8</ele>
        <time>2023-09-25T07:57:45Z</time>
      </trkpt>
      <trkpt lat="44.80087" lon="1.62793">
        <ele>145</ele>
        <time>2023-09-25T07:57:49.227Z</time>
      </trkpt>
      <trkpt lat="44.80086" lon="1.628">
        <ele>145.2</ele>
        <time>2023-09-25T07:57:53Z</time>
      </trkpt>
      <trkpt lat="44.80086" lon="1.62807">
        <ele>145.6</ele>
        <time>2023-09-25T07:57:57.000Z</time>
      </trkpt>
      <trkpt lat="44.80086" lon="1.62814">
        <ele>145.7</ele>
        <time>2023-09-25T07:58:01Z</time>
      </trkpt>
      <trkpt lat="44.80087" lon="1.62822">
        <ele>146.3</ele>
        <time>2023-09-25T07:58:05.257Z</time>
      </trkpt>
      <trkpt lat="44.80088" lon="1.62829">
        <ele>147</ele>
        <time>2023-09-25T07:58:09Z</time>
      </trkpt>
      <trkpt lat="44.80089" lon="1.62837">
        <ele>148</ele>
        <time>2023-09-25T07:58:13.000Z</time>
      </trkpt>
      <trkpt lat="44.8009" lon="1.62845">
        <ele>149.4</ele>
        <time>2023-09-25T07:58:17Z</time>
      </trkpt>
      <trkpt lat="44.80088" lon="1.62852">
        <ele>148.6</ele>
        <time>2023-09-25T07:58:20.999Z</time>
      </trkpt>
      <trkpt lat="44.80086" lon="1.62859">
        <ele>147.8</ele>
        <time>2023-09-25T07:58:25Z</time>
      </trkpt>
      <trkpt lat="44.80085" lon="1.62871">
        <ele>148.2</ele>
        <time>2023-09-25T07:58:32Z</time>
      </trkpt>
      <trkpt lat="44.80084" lon="1.62877">
        <ele>147.8</ele>
        <time>2023-09-25T07:58:35.854Z</time>
      </trkpt>
      <trkpt lat="44.80082" lon="1.62883">
        <ele>147.9</ele>
        <time>2023-09-25T07:58:40Z</time>
      </trkpt>
      <trkpt lat="44.8008" lon="1.62889">
        <ele>147.8</ele>
        <time>2023-09-25T07:58:43.999Z</time>
      </trkpt>
      <trkpt lat="44.80078" lon="1.62895">
        <ele>147.3</ele>
        <time>2023-09-25T07:58:48Z</time>
      </trkpt>
      <trkpt lat="44.80078" lon="1.62902">
        <ele>147.4</ele>
        <time>2023-09-25T07:58:51.769Z</time>
      </trkpt>
      <trkpt lat="44.80078" lon="1.62908">
        <ele>147.6</ele>
        <time>2023-09-25T07:58:55Z</time>
      </trkpt>
      <trkpt lat="44.80076" lon="1.62914">
        <ele>146.8</ele>
        <time>2023-09-25T07:58:58.796Z</time>
      </trkpt>
      <trkpt lat="44.80073" lon="1.6292">
        <ele>146.3</ele>
        <time>2023-09-25T07:59:03Z</time>
      </trkpt>
      <trkpt lat="44.8007" lon="1.62928">
        <ele>145.7</ele>
        <time>2023-09-25T07:59:25.579Z</time>
      </trkpt>
      <trkpt lat="44.80066" lon="1.62936">
        <ele>144.9</ele>
        <time>2023-09-25T07:59:50Z</time>
      </trkpt>
      <trkpt lat="44.80065" lon="1.62945">
        <ele>145.2</ele>
        <time>2023-09-25T08:00:24Z</time>
      </trkpt>
      <trkpt lat="44.80067" lon="1.62948">
        <ele>146.6</ele>
        <time>2023-09-25T08:01:31Z</time>
      </trkpt>
      <trkpt lat="44.80066" lon="1.62956">
        <ele>147</ele>
        <time>2023-09-25T08:01:35.999Z</time>
      </trkpt>
      <trkpt lat="44.80065" lon="1.62964">
        <ele>147.5</ele>
        <time>2023-09-25T08:01:41Z</time>
      </trkpt>
      <trkpt lat="44.80066" lon="1.62971">
        <ele>148.7</ele>
        <time>2023-09-25T08:01:44.385Z</time>
      </trkpt>
      <trkpt lat="44.80067" lon="1.62978">
        <ele>150.1</ele>
        <time>2023-09-25T08:01:47.770Z</time>
      </trkpt>
      <trkpt lat="44.80067" lon="1.62984">
        <ele>151.6</ele>
        <time>2023-09-25T08:01:50.614Z</time>
      </trkpt>
      <trkpt lat="44.80068" lon="1.62991">
        <ele>153.2</ele>
        <time>2023-09-25T08:01:54Z</time>
      </trkpt>
      <trkpt lat="44.80068" lon="1.63">
        <ele>154.2</ele>
        <time>2023-09-25T08:01:58.730Z</time>
      </trkpt>
      <trkpt lat="44.80067" lon="1.63008">
        <ele>155.6</ele>
        <time>2023-09-25T08:02:03Z</time>
      </trkpt>
      <trkpt lat="44.80062" lon="1.63014">
        <ele>153.3</ele>
        <time>2023-09-25T08:02:06.773Z</time>
      </trkpt>
      <trkpt lat="44.80056" lon="1.6302">
        <ele>150.9</ele>
        <time>2023-09-25T08:02:11Z</time>
      </trkpt>
      <trkpt lat="44.80051" lon="1.63028">
        <ele>150.1</ele>
        <time>2023-09-25T08:02:17Z</time>
      </trkpt>
      <trkpt lat="44.8005" lon="1.63037">
        <ele>150.8</ele>
        <time>2023-09-25T08:02:22.404Z</time>
      </trkpt>
      <trkpt lat="44.80048" lon="1.63046">
        <ele>151.5</ele>
        <time>2023-09-25T08:02:28Z</time>
      </trkpt>
      <trkpt lat="44.80048" lon="1.63058">
        <ele>153.1</ele>
        <time>2023-09-25T08:02:34.236Z</time>
      </trkpt>
      <trkpt lat="44.80047" lon="1.63069">
        <ele>155.8</ele>
        <time>2023-09-25T08:02:40Z</time>
      </trkpt>
      <trkpt lat="44.80041" lon="1.63076">
        <ele>153.6</ele>
        <time>2023-09-25T08:02:44.281Z</time>
      </trkpt>
      <trkpt lat="44.80034" lon="1.63083">
        <ele>151</ele>
        <time>2023-09-25T08:02:49Z</time>
      </trkpt>
      <trkpt lat="44.80033" lon="1.63089">
        <ele>151.4</ele>
        <time>2023-09-25T08:02:52.372Z</time>
      </trkpt>
      <trkpt lat="44.80031" lon="1.63095">
        <ele>151.7</ele>
        <time>2023-09-25T08:02:56Z</time>
      </trkpt>
      <trkpt lat="44.80027" lon="1.631">
        <ele>150.1</ele>
        <time>2023-09-25T08:02:59.726Z</time>
      </trkpt>
      <trkpt lat="44.80022" lon="1.63105">
        <ele>149.3</ele>
        <time>2023-09-25T08:03:04Z</time>
      </trkpt>
      <trkpt lat="44.80018" lon="1.63116">
        <ele>149.6</ele>
        <time>2023-09-25T08:03:10Z</time>
      </trkpt>
      <trkpt lat="44.80012" lon="1.63124">
        <ele>148.3</ele>
        <time>2023-09-25T08:03:16Z</time>
      </trkpt>
      <trkpt lat="44.8001" lon="1.63131">
        <ele>148.8</ele>
        <time>2023-09-25T08:03:20.624Z</time>
      </trkpt>
      <trkpt lat="44.80009" lon="1.63138">
        <ele>149.2</ele>
        <time>2023-09-25T08:03:25Z</time>
      </trkpt>
      <trkpt lat="44.80007" lon="1.63146">
        <ele>149.7</ele>
        <time>2023-09-25T08:03:29.086Z</time>
      </trkpt>
      <trkpt lat="44.80006" lon="1.63154">
        <ele>150.3</ele>
        <time>2023-09-25T08:03:33Z</time>
      </trkpt>
      <trkpt lat="44.80004" lon="1.63163">
        <ele>150.4</ele>
        <time>2023-09-25T08:03:37.183Z</time>
      </trkpt>
      <trkpt lat="44.80001" lon="1.63173">
        <ele>149.1</ele>
        <time>2023-09-25T08:03:42Z</time>
      </trkpt>
      <trkpt lat="44.79997" lon="1.63179">
        <ele>147.4</ele>
        <time>2023-09-25T08:03:49Z</time>
      </trkpt>
      <trkpt lat="44.79999" lon="1.63188">
        <ele>147.2</ele>
        <time>2023-09-25T08:03:53.069Z</time>
      </trkpt>
      <trkpt lat="44.8" lon="1.63197">
        <ele>146.7</ele>
        <time>2023-09-25T08:03:57Z</time>
      </trkpt>
      <trkpt lat="44.79998" lon="1.63204">
        <ele>145.7</ele>
        <time>2023-09-25T08:04:01.055Z</time>
      </trkpt>
      <trkpt lat="44.79995" lon="1.6321">
        <ele>144.7</ele>
        <time>2023-09-25T08:04:05Z</time>
      </trkpt>
      <trkpt lat="44.79995" lon="1.63218">
        <ele>144</ele>
        <time>2023-09-25T08:04:09.227Z</time>
      </trkpt>
      <trkpt lat="44.79994" lon="1.63225">
        <ele>144.2</ele>
        <time>2023-09-25T08:04:13Z</time>
      </trkpt>
      <trkpt lat="44.79992" lon="1.63231">
        <ele>145.2</ele>
        <time>2023-09-25T08:04:17.499Z</time>
      </trkpt>
      <trkpt lat="44.7999" lon="1.63237">
        <ele>146</ele>
        <time>2023-09-25T08:04:22Z</time>
      </trkpt>
      <trkpt lat="44.7999" lon="1.63245">
        <ele>147.5</ele>
        <time>2023-09-25T08:04:26.800Z</time>
      </trkpt>
      <trkpt lat="44.7999" lon="1.63252">
        <ele>149.3</ele>
        <time>2023-09-25T08:04:31Z</time>
      </trkpt>
      <trkpt lat="44.79988" lon="1.63258">
        <ele>151</ele>
        <time>2023-09-25T08:04:35.499Z</time>
      </trkpt>
      <trkpt lat="44.79986" lon="1.63264">
        <ele>152.5</ele>
        <time>2023-09-25T08:04:40Z</time>
      </trkpt>
      <trkpt lat="44.79982" lon="1.63269">
        <ele>152.5</ele>
        <time>2023-09-25T08:04:44.694Z</time>
      </trkpt>
      <trkpt lat="44.79978" lon="1.63273">
        <ele>152.3</ele>
        <time>2023-09-25T08:04:49Z</time>
      </trkpt>
      <trkpt lat="44.79975" lon="1.63277">
        <ele>151.9</ele>
        <time>2023-09-25T08:04:52.656Z</time>
      </trkpt>
      <trkpt lat="44.79971" lon="1.63281">
        <ele>151.6</ele>
        <time>2023-09-25T08:04:57Z</time>
      </trkpt>
      <trkpt lat="44.79969" lon="1.63287">
        <ele>152.3</ele>
        <time>2023-09-25T08:05:01.745Z</time>
      </trkpt>
      <trkpt lat="44.79966" lon="1.63293">
        <ele>152.8</ele>
        <time>2023-09-25T08:05:07Z</time>
      </trkpt>
      <trkpt lat="44.79967" lon="1.63301">
        <ele>155.5</ele>
        <time>2023-09-25T08:05:11.500Z</time>
      </trkpt>
      <trkpt lat="44.79968" lon="1.63309">
        <ele>157.8</ele>
        <time>2023-09-25T08:05:16Z</time>
      </trkpt>
      <trkpt lat="44.79968" lon="1.63316">
        <ele>158.1</ele>
        <time>2023-09-25T08:05:20.455Z</time>
      </trkpt>
      <trkpt lat="44.79967" lon="1.63323">
        <ele>158.5</ele>
        <time>2023-09-25T08:05:25Z</time>
      </trkpt>
      <trkpt lat="44.7997" lon="1.6333">
        <ele>161.1</ele>
        <time>2023-09-25T08:05:28.688Z</time>
      </trkpt>
      <trkpt lat="44.79973" lon="1.63336">
        <ele>163.8</ele>
        <time>2023-09-25T08:05:32Z</time>
      </trkpt>
      <trkpt lat="44.79972" lon="1.63343">
        <ele>163.5</ele>
        <time>2023-09-25T08:05:36.499Z</time>
      </trkpt>
      <trkpt lat="44.79971" lon="1.6335">
        <ele>163.4</ele>
        <time>2023-09-25T08:05:41Z</time>
      </trkpt>
      <trkpt lat="44.79968" lon="1.63356">
        <ele>161.4</ele>
        <time>2023-09-25T08:05:44.947Z</time>
      </trkpt>
      <trkpt lat="44.79964" lon="1.63361">
        <ele>159.4</ele>
        <time>2023-09-25T08:05:49Z</time>
      </trkpt>
      <trkpt lat="44.79961" lon="1.63367">
        <ele>157.7</ele>
        <time>2023-09-25T08:05:53.499Z</time>
      </trkpt>
      <trkpt lat="44.79958" lon="1.63373">
        <ele>155.9</ele>
        <time>2023-09-25T08:05:58Z</time>
      </trkpt>
      <trkpt lat="44.79957" lon="1.6338">
        <ele>155.2</ele>
        <time>2023-09-25T08:06:02.667Z</time>
      </trkpt>
      <trkpt lat="44.79955" lon="1.63386">
        <ele>154.5</ele>
        <time>2023-09-25T08:06:07Z</time>
      </trkpt>
      <trkpt lat="44.79955" lon="1.63394">
        <ele>154.8</ele>
        <time>2023-09-25T08:06:11.000Z</time>
      </trkpt>
      <trkpt lat="44.79955" lon="1.63402">
        <ele>155.1</ele>
        <time>2023-09-25T08:06:15Z</time>
      </trkpt>
      <trkpt lat="44.79955" lon="1.63409">
        <ele>155</ele>
        <time>2023-09-25T08:06:18.960Z</time>
      </trkpt>
      <trkpt lat="44.79954" lon="1.63416">
        <ele>154.9</ele>
        <time>2023-09-25T08:06:23Z</time>
      </trkpt>
      <trkpt lat="44.79955" lon="1.63424">
        <ele>155.7</ele>
        <time>2023-09-25T08:06:27.030Z</time>
      </trkpt>
      <trkpt lat="44.79955" lon="1.63432">
        <ele>156.5</ele>
        <time>2023-09-25T08:06:31Z</time>
      </trkpt>
      <trkpt lat="44.79952" lon="1.63438">
        <ele>154.4</ele>
        <time>2023-09-25T08:06:34.770Z</time>
      </trkpt>
      <trkpt lat="44.79948" lon="1.63444">
        <ele>152.4</ele>
        <time>2023-09-25T08:06:39Z</time>
      </trkpt>
      <trkpt lat="44.79947" lon="1.63451">
        <ele>152.5</ele>
        <time>2023-09-25T08:06:42.999Z</time>
      </trkpt>
      <trkpt lat="44.79946" lon="1.63458">
        <ele>152.5</ele>
        <time>2023-09-25T08:06:47Z</time>
      </trkpt>
      <trkpt lat="44.79945" lon="1.63465">
        <ele>152.5</ele>
        <time>2023-09-25T08:06:51.293Z</time>
      </trkpt>
      <trkpt lat="44.79944" lon="1.63471">
        <ele>152.7</ele>
        <time>2023-09-25T08:06:55Z</time>
      </trkpt>
      <trkpt lat="44.79945" lon="1.63482">
        <ele>154.7</ele>
        <time>2023-09-25T08:07:00.757Z</time>
      </trkpt>
      <trkpt lat="44.79946" lon="1.63492">
        <ele>157</ele>
        <time>2023-09-25T08:07:06Z</time>
      </trkpt>
      <trkpt lat="44.79945" lon="1.635">
        <ele>157</ele>
        <time>2023-09-25T08:07:10.147Z</time>
      </trkpt>
      <trkpt lat="44.79943" lon="1.63507">
        <ele>157.8</ele>
        <time>2023-09-25T08:07:14Z</time>
      </trkpt>
      <trkpt lat="44.79942" lon="1.63515">
        <ele>158.9</ele>
        <time>2023-09-25T08:07:18.789Z</time>
      </trkpt>
      <trkpt lat="44.79941" lon="1.63522">
        <ele>159.8</ele>
        <time>2023-09-25T08:07:23Z</time>
      </trkpt>
      <trkpt lat="44.79941" lon="1.63529">
        <ele>160.9</ele>
        <time>2023-09-25T08:07:27.254Z</time>
      </trkpt>
      <trkpt lat="44.7994" lon="1.63535">
        <ele>162.4</ele>
        <time>2023-09-25T08:07:31Z</time>
      </trkpt>
      <trkpt lat="44.79938" lon="1.63542">
        <ele>163</ele>
        <time>2023-09-25T08:07:34.999Z</time>
      </trkpt>
      <trkpt lat="44.79936" lon="1.63549">
        <ele>163.6</ele>
        <time>2023-09-25T08:07:39Z</time>
      </trkpt>
      <trkpt lat="44.79933" lon="1.63556">
        <ele>163.3</ele>
        <time>2023-09-25T08:07:43.499Z</time>
      </trkpt>
      <trkpt lat="44.7993" lon="1.63563">
        <ele>163.9</ele>
        <time>2023-09-25T08:07:48Z</time>
      </trkpt>
      <trkpt lat="44.79924" lon="1.63567">
        <ele>161.1</ele>
        <time>2023-09-25T08:07:51.741Z</time>
      </trkpt>
      <trkpt lat="44.79917" lon="1.63571">
        <ele>158.3</ele>
        <time>2023-09-25T08:07:56Z</time>
      </trkpt>
      <trkpt lat="44.79912" lon="1.63575">
        <ele>157.4</ele>
        <time>2023-09-25T08:08:01.140Z</time>
      </trkpt>
      <trkpt lat="44.79907" lon="1.63578">
        <ele>156.4</ele>
        <time>2023-09-25T08:08:06Z</time>
      </trkpt>
      <trkpt lat="44.79903" lon="1.63582">
        <ele>155.5</ele>
        <time>2023-09-25T08:08:11.197Z</time>
      </trkpt>
      <trkpt lat="44.79899" lon="1.63585">
        <ele>154.8</ele>
        <time>2023-09-25T08:08:16Z</time>
      </trkpt>
      <trkpt lat="44.79896" lon="1.6359">
        <ele>154.9</ele>
        <time>2023-09-25T08:08:21.351Z</time>
      </trkpt>
      <trkpt lat="44.79892" lon="1.63594">
        <ele>154.9</ele>
        <time>2023-09-25T08:08:27Z</time>
      </trkpt>
      <trkpt lat="44.79886" lon="1.63603">
        <ele>155.9</ele>
        <time>2023-09-25T08:08:38Z</time>
      </trkpt>
      <trkpt lat="44.7988" lon="1.63605">
        <ele>154.6</ele>
        <time>2023-09-25T08:08:41.421Z</time>
      </trkpt>
      <trkpt lat="44.79875" lon="1.63606">
        <ele>153.2</ele>
        <time>2023-09-25T08:08:44.224Z</time>
      </trkpt>
      <trkpt lat="44.79869" lon="1.63608">
        <ele>151.7</ele>
        <time>2023-09-25T08:08:47.646Z</time>
      </trkpt>
      <trkpt lat="44.79863" lon="1.63609">
        <ele>150.1</ele>
        <time>2023-09-25T08:08:51Z</time>
      </trkpt>
      <trkpt lat="44.79855" lon="1.6361">
        <ele>148.6</ele>
        <time>2023-09-25T08:08:57.061Z</time>
      </trkpt>
      <trkpt lat="44.79847" lon="1.63611">
        <ele>147.4</ele>
        <time>2023-09-25T08:09:03.123Z</time>
      </trkpt>
      <trkpt lat="44.79838" lon="1.63612">
        <ele>146.3</ele>
        <time>2023-09-25T08:09:09.937Z</time>
      </trkpt>
      <trkpt lat="44.7983" lon="1.63613">
        <ele>145.7</ele>
        <time>2023-09-25T08:09:16Z</time>
      </trkpt>
      <trkpt lat="44.79825" lon="1.63617">
        <ele>146.9</ele>
        <time>2023-09-25T08:09:22.643Z</time>
      </trkpt>
      <trkpt lat="44.79819" lon="1.6362">
        <ele>148.2</ele>
        <time>2023-09-25T08:09:30Z</time>
      </trkpt>
      <trkpt lat="44.79813" lon="1.6362">
        <ele>147.9</ele>
        <time>2023-09-25T08:09:36.000Z</time>
      </trkpt>
      <trkpt lat="44.79808" lon="1.6362">
        <ele>147.6</ele>
        <time>2023-09-25T08:09:41.000Z</time>
      </trkpt>
      <trkpt lat="44.79802" lon="1.6362">
        <ele>147.6</ele>
        <time>2023-09-25T08:09:47.000Z</time>
      </trkpt>
      <trkpt lat="44.79796" lon="1.6362">
        <ele>147.7</ele>
        <time>2023-09-25T08:09:53Z</time>
      </trkpt>
      <trkpt lat="44.79791" lon="1.63618">
        <ele>147.1</ele>
        <time>2023-09-25T08:09:55.835Z</time>
      </trkpt>
      <trkpt lat="44.79786" lon="1.63617">
        <ele>146.4</ele>
        <time>2023-09-25T08:09:58.589Z</time>
      </trkpt>
      <trkpt lat="44.79781" lon="1.63615">
        <ele>145.7</ele>
        <time>2023-09-25T08:10:01.424Z</time>
      </trkpt>
      <trkpt lat="44.79777" lon="1.63613">
        <ele>145</ele>
        <time>2023-09-25T08:10:03.739Z</time>
      </trkpt>
      <trkpt lat="44.79772" lon="1.63611">
        <ele>144.8</ele>
        <time>2023-09-25T08:10:06.574Z</time>
      </trkpt>
      <trkpt lat="44.79767" lon="1.6361">
        <ele>145.1</ele>
        <time>2023-09-25T08:10:09.329Z</time>
      </trkpt>
      <trkpt lat="44.79762" lon="1.63608">
        <ele>145.4</ele>
        <time>2023-09-25T08:10:12.164Z</time>
      </trkpt>
      <trkpt lat="44.79757" lon="1.63606">
        <ele>145.6</ele>
        <time>2023-09-25T08:10:15Z</time>
      </trkpt>
      <trkpt lat="44.79753" lon="1.63604">
        <ele>145.7</ele>
        <time>2023-09-25T08:10:17.631Z</time>
      </trkpt>
      <trkpt lat="44.79748" lon="1.63601">
        <ele>145.9</ele>
        <time>2023-09-25T08:10:20.999Z</time>
      </trkpt>
      <trkpt lat="44.79744" lon="1.63599">
        <ele>146.1</ele>
        <time>2023-09-25T08:10:23.630Z</time>
      </trkpt>
      <trkpt lat="44.79739" lon="1.63596">
        <ele>146.1</ele>
        <time>2023-09-25T08:10:27Z</time>
      </trkpt>
      <trkpt lat="44.79736" lon="1.63587">
        <ele>144</ele>
        <time>2023-09-25T08:10:37Z</time>
      </trkpt>
      <trkpt lat="44.79734" lon="1.63581">
        <ele>143</ele>
        <time>2023-09-25T08:10:43.079Z</time>
      </trkpt>
      <trkpt lat="44.79732" lon="1.63574">
        <ele>142.9</ele>
        <time>2023-09-25T08:10:50Z</time>
      </trkpt>
      <trkpt lat="44.79731" lon="1.63568">
        <ele>142.8</ele>
        <time>2023-09-25T08:10:54.495Z</time>
      </trkpt>
      <trkpt lat="44.79729" lon="1.63561">
        <ele>142.8</ele>
        <time>2023-09-25T08:11:00Z</time>
      </trkpt>
      <trkpt lat="44.79728" lon="1.63549">
        <ele>143.1</ele>
        <time>2023-09-25T08:11:11Z</time>
      </trkpt>
      <trkpt lat="44.79731" lon="1.63541">
        <ele>143.5</ele>
        <time>2023-09-25T08:11:17.710Z</time>
      </trkpt>
      <trkpt lat="44.79733" lon="1.63533">
        <ele>144.1</ele>
        <time>2023-09-25T08:11:24Z</time>
      </trkpt>
      <trkpt lat="44.79737" lon="1.63534">
        <ele>144.1</ele>
        <time>2023-09-25T08:11:48Z</time>
      </trkpt>
      <trkpt lat="44.79734" lon="1.63538">
        <ele>143.7</ele>
        <time>2023-09-25T08:12:13Z</time>
      </trkpt>
      <trkpt lat="44.79734" lon="1.63543">
        <ele>143.4</ele>
        <time>2023-09-25T08:12:52Z</time>
      </trkpt>
      <trkpt lat="44.79737" lon="1.63545">
        <ele>143.3</ele>
        <time>2023-09-25T08:13:15Z</time>
      </trkpt>
      <trkpt lat="44.79735" lon="1.63552">
        <ele>142.8</ele>
        <time>2023-09-25T08:13:21.590Z</time>
      </trkpt>
      <trkpt lat="44.79732" lon="1.63558">
        <ele>142.7</ele>
        <time>2023-09-25T08:13:28Z</time>
      </trkpt>
      <trkpt lat="44.79737" lon="1.63563">
        <ele>142.6</ele>
        <time>2023-09-25T08:13:35.222Z</time>
      </trkpt>
      <trkpt lat="44.79741" lon="1.63567">
        <ele>142.6</ele>
        <time>2023-09-25T08:13:41Z</time>
      </trkpt>
      <trkpt lat="44.79743" lon="1.63574">
        <ele>142.7</ele>
        <time>2023-09-25T08:13:47.605Z</time>
      </trkpt>
      <trkpt lat="44.79744" lon="1.6358">
        <ele>142.9</ele>
        <time>2023-09-25T08:13:53Z</time>
      </trkpt>
      <trkpt lat="44.79743" lon="1.63586">
        <ele>143.6</ele>
        <time>2023-09-25T08:14:00.708Z</time>
      </trkpt>
      <trkpt lat="44.79741" lon="1.63592">
        <ele>145</ele>
        <time>2023-09-25T08:14:09Z</time>
      </trkpt>
      <trkpt lat="44.79737" lon="1.63596">
        <ele>146.2</ele>
        <time>2023-09-25T08:14:14.197Z</time>
      </trkpt>
      <trkpt lat="44.79733" lon="1.63599">
        <ele>147.7</ele>
        <time>2023-09-25T08:14:19Z</time>
      </trkpt>
      <trkpt lat="44.79725" lon="1.63597">
        <ele>147.9</ele>
        <time>2023-09-25T08:14:24.448Z</time>
      </trkpt>
      <trkpt lat="44.79717" lon="1.63594">
        <ele>147.5</ele>
        <time>2023-09-25T08:14:30Z</time>
      </trkpt>
      <trkpt lat="44.79712" lon="1.63593">
        <ele>147.3</ele>
        <time>2023-09-25T08:14:33.500Z</time>
      </trkpt>
      <trkpt lat="44.79707" lon="1.63592">
        <ele>147.2</ele>
        <time>2023-09-25T08:14:37Z</time>
      </trkpt>
      <trkpt lat="44.79702" lon="1.63593">
        <ele>147.8</ele>
        <time>2023-09-25T08:14:40.500Z</time>
      </trkpt>
      <trkpt lat="44.79697" lon="1.63594">
        <ele>148.5</ele>
        <time>2023-09-25T08:14:44Z</time>
      </trkpt>
      <trkpt lat="44.79692" lon="1.63596">
        <ele>149.1</ele>
        <time>2023-09-25T08:14:48.564Z</time>
      </trkpt>
      <trkpt lat="44.79687" lon="1.63597">
        <ele>149.5</ele>
        <time>2023-09-25T08:14:53Z</time>
      </trkpt>
      <trkpt lat="44.79683" lon="1.636">
        <ele>150.5</ele>
        <time>2023-09-25T08:14:56.637Z</time>
      </trkpt>
      <trkpt lat="44.79678" lon="1.63603">
        <ele>151.5</ele>
        <time>2023-09-25T08:15:01Z</time>
      </trkpt>
      <trkpt lat="44.79672" lon="1.63606">
        <ele>152.1</ele>
        <time>2023-09-25T08:15:05.241Z</time>
      </trkpt>
      <trkpt lat="44.79665" lon="1.63608">
        <ele>152.5</ele>
        <time>2023-09-25T08:15:10Z</time>
      </trkpt>
      <trkpt lat="44.79661" lon="1.6361">
        <ele>152.3</ele>
        <time>2023-09-25T08:15:13.146Z</time>
      </trkpt>
      <trkpt lat="44.79656" lon="1.63612">
        <ele>152.2</ele>
        <time>2023-09-25T08:15:17Z</time>
      </trkpt>
      <trkpt lat="44.79651" lon="1.63615">
        <ele>152.3</ele>
        <time>2023-09-25T08:15:21.216Z</time>
      </trkpt>
      <trkpt lat="44.79645" lon="1.63617">
        <ele>152.3</ele>
        <time>2023-09-25T08:15:26Z</time>
      </trkpt>
      <trkpt lat="44.79641" lon="1.63621">
        <ele>153</ele>
        <time>2023-09-25T08:15:29.638Z</time>
      </trkpt>
      <trkpt lat="44.79637" lon="1.63624">
        <ele>153.5</ele>
        <time>2023-09-25T08:15:33Z</time>
      </trkpt>
      <trkpt lat="44.79631" lon="1.63633">
        <ele>155.5</ele>
        <time>2023-09-25T08:15:41Z</time>
      </trkpt>
      <trkpt lat="44.79623" lon="1.63636">
        <ele>153.8</ele>
        <time>2023-09-25T08:15:50Z</time>
      </trkpt>
      <trkpt lat="44.79617" lon="1.63642">
        <ele>153.7</ele>
        <time>2023-09-25T08:15:58Z</time>
      </trkpt>
      <trkpt lat="44.79614" lon="1.63648">
        <ele>154.9</ele>
        <time>2023-09-25T08:16:03.285Z</time>
      </trkpt>
      <trkpt lat="44.79611" lon="1.63653">
        <ele>156.1</ele>
        <time>2023-09-25T08:16:08Z</time>
      </trkpt>
      <trkpt lat="44.79606" lon="1.6366">
        <ele>156.3</ele>
        <time>2023-09-25T08:16:12.892Z</time>
      </trkpt>
      <trkpt lat="44.796" lon="1.63666">
        <ele>155.8</ele>
        <time>2023-09-25T08:16:18Z</time>
      </trkpt>
      <trkpt lat="44.79596" lon="1.63672">
        <ele>155.2</ele>
        <time>2023-09-25T08:16:21.903Z</time>
      </trkpt>
      <trkpt lat="44.79591" lon="1.63677">
        <ele>154.4</ele>
        <time>2023-09-25T08:16:26Z</time>
      </trkpt>
      <trkpt lat="44.79588" lon="1.63684">
        <ele>154.5</ele>
        <time>2023-09-25T08:16:34Z</time>
      </trkpt>
      <trkpt lat="44.79584" lon="1.63691">
        <ele>153.5</ele>
        <time>2023-09-25T08:16:38.175Z</time>
      </trkpt>
      <trkpt lat="44.7958" lon="1.63697">
        <ele>153.6</ele>
        <time>2023-09-25T08:16:42Z</time>
      </trkpt>
      <trkpt lat="44.79576" lon="1.63707">
        <ele>154.4</ele>
        <time>2023-09-25T08:16:46.999Z</time>
      </trkpt>
      <trkpt lat="44.79572" lon="1.63717">
        <ele>154.5</ele>
        <time>2023-09-25T08:16:52Z</time>
      </trkpt>
      <trkpt lat="44.7957" lon="1.63723">
        <ele>154.2</ele>
        <time>2023-09-25T08:16:56.271Z</time>
      </trkpt>
      <trkpt lat="44.79567" lon="1.63729">
        <ele>154.3</ele>
        <time>2023-09-25T08:17:01Z</time>
      </trkpt>
      <trkpt lat="44.79564" lon="1.63736">
        <ele>154</ele>
        <time>2023-09-25T08:17:05.742Z</time>
      </trkpt>
      <trkpt lat="44.79561" lon="1.63742">
        <ele>153.7</ele>
        <time>2023-09-25T08:17:10Z</time>
      </trkpt>
      <trkpt lat="44.79558" lon="1.63748">
        <ele>153.1</ele>
        <time>2023-09-25T08:17:20Z</time>
      </trkpt>
      <trkpt lat="44.79557" lon="1.63755">
        <ele>153.7</ele>
        <time>2023-09-25T08:17:24.499Z</time>
      </trkpt>
      <trkpt lat="44.79556" lon="1.63762">
        <ele>154.1</ele>
        <time>2023-09-25T08:17:29Z</time>
      </trkpt>
      <trkpt lat="44.79554" lon="1.63769">
        <ele>154.3</ele>
        <time>2023-09-25T08:17:33.237Z</time>
      </trkpt>
      <trkpt lat="44.79552" lon="1.63777">
        <ele>154.6</ele>
        <time>2023-09-25T08:17:38Z</time>
      </trkpt>
      <trkpt lat="44.7955" lon="1.63783">
        <ele>154.5</ele>
        <time>2023-09-25T08:17:42.208Z</time>
      </trkpt>
      <trkpt lat="44.79548" lon="1.6379">
        <ele>154.3</ele>
        <time>2023-09-25T08:17:47Z</time>
      </trkpt>
      <trkpt lat="44.79547" lon="1.63796">
        <ele>154.4</ele>
        <time>2023-09-25T08:17:51.632Z</time>
      </trkpt>
      <trkpt lat="44.79546" lon="1.63803">
        <ele>154.5</ele>
        <time>2023-09-25T08:17:57Z</time>
      </trkpt>
      <trkpt lat="44.79544" lon="1.6381">
        <ele>154.3</ele>
        <time>2023-09-25T08:18:01.499Z</time>
      </trkpt>
      <trkpt lat="44.79542" lon="1.63817">
        <ele>154.1</ele>
        <time>2023-09-25T08:18:06Z</time>
      </trkpt>
      <trkpt lat="44.79543" lon="1.63825">
        <ele>155.4</ele>
        <time>2023-09-25T08:18:10.834Z</time>
      </trkpt>
      <trkpt lat="44.79543" lon="1.63832">
        <ele>156.6</ele>
        <time>2023-09-25T08:18:15Z</time>
      </trkpt>
      <trkpt lat="44.79542" lon="1.6384">
        <ele>157.2</ele>
        <time>2023-09-25T08:18:19.257Z</time>
      </trkpt>
      <trkpt lat="44.79541" lon="1.63847">
        <ele>157.8</ele>
        <time>2023-09-25T08:18:23Z</time>
      </trkpt>
      <trkpt lat="44.7954" lon="1.63855">
        <ele>158</ele>
        <time>2023-09-25T08:18:27.665Z</time>
      </trkpt>
      <trkpt lat="44.79538" lon="1.63862">
        <ele>158.1</ele>
        <time>2023-09-25T08:18:32Z</time>
      </trkpt>
      <trkpt lat="44.79537" lon="1.63868">
        <ele>158</ele>
        <time>2023-09-25T08:18:35.854Z</time>
      </trkpt>
      <trkpt lat="44.79535" lon="1.63874">
        <ele>157.9</ele>
        <time>2023-09-25T08:18:40Z</time>
      </trkpt>
      <trkpt lat="44.79532" lon="1.63879">
        <ele>156.6</ele>
        <time>2023-09-25T08:18:43.999Z</time>
      </trkpt>
      <trkpt lat="44.79529" lon="1.63884">
        <ele>155.2</ele>
        <time>2023-09-25T08:18:48Z</time>
      </trkpt>
      <trkpt lat="44.79526" lon="1.63889">
        <ele>154.2</ele>
        <time>2023-09-25T08:18:51.719Z</time>
      </trkpt>
      <trkpt lat="44.79522" lon="1.63894">
        <ele>153.6</ele>
        <time>2023-09-25T08:18:56Z</time>
      </trkpt>
      <trkpt lat="44.79519" lon="1.639">
        <ele>153</ele>
        <time>2023-09-25T08:19:00.242Z</time>
      </trkpt>
      <trkpt lat="44.79515" lon="1.63906">
        <ele>152.1</ele>
        <time>2023-09-25T08:19:05Z</time>
      </trkpt>
      <trkpt lat="44.79514" lon="1.63913">
        <ele>152</ele>
        <time>2023-09-25T08:19:09.375Z</time>
      </trkpt>
      <trkpt lat="44.79512" lon="1.6392">
        <ele>152.1</ele>
        <time>2023-09-25T08:19:14Z</time>
      </trkpt>
      <trkpt lat="44.79507" lon="1.6393">
        <ele>151.1</ele>
        <time>2023-09-25T08:19:22Z</time>
      </trkpt>
      <trkpt lat="44.79507" lon="1.63937">
        <ele>152</ele>
        <time>2023-09-25T08:19:25.960Z</time>
      </trkpt>
      <trkpt lat="44.79506" lon="1.63944">
        <ele>152.8</ele>
        <time>2023-09-25T08:19:30Z</time>
      </trkpt>
      <trkpt lat="44.79506" lon="1.63951">
        <ele>154</ele>
        <time>2023-09-25T08:19:33.465Z</time>
      </trkpt>
      <trkpt lat="44.79505" lon="1.63958">
        <ele>155.2</ele>
        <time>2023-09-25T08:19:37Z</time>
      </trkpt>
      <trkpt lat="44.795" lon="1.63965">
        <ele>153.3</ele>
        <time>2023-09-25T08:19:41.141Z</time>
      </trkpt>
      <trkpt lat="44.79495" lon="1.63971">
        <ele>153.2</ele>
        <time>2023-09-25T08:19:45Z</time>
      </trkpt>
      <trkpt lat="44.79491" lon="1.63976">
        <ele>152.6</ele>
        <time>2023-09-25T08:19:49.172Z</time>
      </trkpt>
      <trkpt lat="44.79487" lon="1.6398">
        <ele>151.8</ele>
        <time>2023-09-25T08:19:53Z</time>
      </trkpt>
      <trkpt lat="44.79483" lon="1.63984">
        <ele>150.7</ele>
        <time>2023-09-25T08:19:56.499Z</time>
      </trkpt>
      <trkpt lat="44.79479" lon="1.63988">
        <ele>149.5</ele>
        <time>2023-09-25T08:20:00Z</time>
      </trkpt>
      <trkpt lat="44.79478" lon="1.63994">
        <ele>149.2</ele>
        <time>2023-09-25T08:20:03.372Z</time>
      </trkpt>
      <trkpt lat="44.79476" lon="1.64">
        <ele>148.9</ele>
        <time>2023-09-25T08:20:07Z</time>
      </trkpt>
      <trkpt lat="44.79474" lon="1.64006">
        <ele>147.9</ele>
        <time>2023-09-25T08:20:11.024Z</time>
      </trkpt>
      <trkpt lat="44.79471" lon="1.64011">
        <ele>147.3</ele>
        <time>2023-09-25T08:20:15Z</time>
      </trkpt>
      <trkpt lat="44.7947" lon="1.64019">
        <ele>147.5</ele>
        <time>2023-09-25T08:20:19.499Z</time>
      </trkpt>
      <trkpt lat="44.79469" lon="1.64027">
        <ele>147.7</ele>
        <time>2023-09-25T08:20:24Z</time>
      </trkpt>
      <trkpt lat="44.79471" lon="1.64036">
        <ele>147.6</ele>
        <time>2023-09-25T08:20:28.577Z</time>
      </trkpt>
      <trkpt lat="44.79472" lon="1.64045">
        <ele>147.4</ele>
        <time>2023-09-25T08:20:33Z</time>
      </trkpt>
      <trkpt lat="44.79473" lon="1.64053">
        <ele>147.5</ele>
        <time>2023-09-25T08:20:37.500Z</time>
      </trkpt>
      <trkpt lat="44.79474" lon="1.64061">
        <ele>148</ele>
        <time>2023-09-25T08:20:42Z</time>
      </trkpt>
      <trkpt lat="44.79474" lon="1.64068">
        <ele>147.7</ele>
        <time>2023-09-25T08:20:45.960Z</time>
      </trkpt>
      <trkpt lat="44.79473" lon="1.64075">
        <ele>147.4</ele>
        <time>2023-09-25T08:20:50Z</time>
      </trkpt>
      <trkpt lat="44.79478" lon="1.64084">
        <ele>150.3</ele>
        <time>2023-09-25T08:21:00Z</time>
      </trkpt>
      <trkpt lat="44.79477" lon="1.64089">
        <ele>149.4</ele>
        <time>2023-09-25T08:21:26Z</time>
      </trkpt>
      <trkpt lat="44.79477" lon="1.64099">
        <ele>149.1</ele>
        <time>2023-09-25T08:21:43Z</time>
      </trkpt>
      <trkpt lat="44.7948" lon="1.64108">
        <ele>149.9</ele>
        <time>2023-09-25T08:21:53Z</time>
      </trkpt>
      <trkpt lat="44.79482" lon="1.64119">
        <ele>150</ele>
        <time>2023-09-25T08:22:04Z</time>
      </trkpt>
      <trkpt lat="44.79484" lon="1.64125">
        <ele>150.5</ele>
        <time>2023-09-25T08:22:09.500Z</time>
      </trkpt>
      <trkpt lat="44.79486" lon="1.64131">
        <ele>150.8</ele>
        <time>2023-09-25T08:22:15Z</time>
      </trkpt>
      <trkpt lat="44.79488" lon="1.6414">
        <ele>150.3</ele>
        <time>2023-09-25T08:22:22.500Z</time>
      </trkpt>
      <trkpt lat="44.7949" lon="1.64149">
        <ele>149.6</ele>
        <time>2023-09-25T08:22:30Z</time>
      </trkpt>
      <trkpt lat="44.79494" lon="1.64159">
        <ele>148.8</ele>
        <time>2023-09-25T08:22:35.500Z</time>
      </trkpt>
      <trkpt lat="44.79498" lon="1.64169">
        <ele>147.8</ele>
        <time>2023-09-25T08:22:41Z</time>
      </trkpt>
      <trkpt lat="44.79501" lon="1.64174">
        <ele>148.5</ele>
        <time>2023-09-25T08:22:42.358Z</time>
      </trkpt>
      <trkpt lat="44.79505" lon="1.64178">
        <ele>150</ele>
        <time>2023-09-25T08:22:43.792Z</time>
      </trkpt>
      <trkpt lat="44.79509" lon="1.64182">
        <ele>151.1</ele>
        <time>2023-09-25T08:22:45.226Z</time>
      </trkpt>
      <trkpt lat="44.79512" lon="1.64187">
        <ele>151.8</ele>
        <time>2023-09-25T08:22:46.585Z</time>
      </trkpt>
      <trkpt lat="44.79516" lon="1.64191">
        <ele>152.2</ele>
        <time>2023-09-25T08:22:48.019Z</time>
      </trkpt>
      <trkpt lat="44.79519" lon="1.64195">
        <ele>152.3</ele>
        <time>2023-09-25T08:22:49.227Z</time>
      </trkpt>
      <trkpt lat="44.79523" lon="1.642">
        <ele>152.4</ele>
        <time>2023-09-25T08:22:50.791Z</time>
      </trkpt>
      <trkpt lat="44.79526" lon="1.64204">
        <ele>152.2</ele>
        <time>2023-09-25T08:22:52Z</time>
      </trkpt>
      <trkpt lat="44.79532" lon="1.6421">
        <ele>153.2</ele>
        <time>2023-09-25T08:22:56.621Z</time>
      </trkpt>
      <trkpt lat="44.79538" lon="1.64215">
        <ele>154.4</ele>
        <time>2023-09-25T08:23:01Z</time>
      </trkpt>
      <trkpt lat="44.79542" lon="1.64222">
        <ele>154.4</ele>
        <time>2023-09-25T08:23:06.219Z</time>
      </trkpt>
      <trkpt lat="44.79546" lon="1.64228">
        <ele>154.8</ele>
        <time>2023-09-25T08:23:11Z</time>
      </trkpt>
      <trkpt lat="44.7955" lon="1.64234">
        <ele>155</ele>
        <time>2023-09-25T08:23:16.286Z</time>
      </trkpt>
      <trkpt lat="44.79553" lon="1.6424">
        <ele>154.8</ele>
        <time>2023-09-25T08:23:21Z</time>
      </trkpt>
      <trkpt lat="44.79557" lon="1.64247">
        <ele>154.2</ele>
        <time>2023-09-25T08:23:27.055Z</time>
      </trkpt>
      <trkpt lat="44.7956" lon="1.64253">
        <ele>153.9</ele>
        <time>2023-09-25T08:23:32Z</time>
      </trkpt>
      <trkpt lat="44.79564" lon="1.6426">
        <ele>153.7</ele>
        <time>2023-09-25T08:23:38.283Z</time>
      </trkpt>
      <trkpt lat="44.79567" lon="1.64267">
        <ele>153.4</ele>
        <time>2023-09-25T08:23:44Z</time>
      </trkpt>
      <trkpt lat="44.79573" lon="1.64273">
        <ele>154.1</ele>
        <time>2023-09-25T08:23:51.188Z</time>
      </trkpt>
      <trkpt lat="44.79579" lon="1.64278">
        <ele>154.7</ele>
        <time>2023-09-25T08:23:58Z</time>
      </trkpt>
      <trkpt lat="44.79587" lon="1.64282">
        <ele>155.2</ele>
        <time>2023-09-25T08:24:03.062Z</time>
      </trkpt>
      <trkpt lat="44.79595" lon="1.64285">
        <ele>154.5</ele>
        <time>2023-09-25T08:24:08Z</time>
      </trkpt>
      <trkpt lat="44.79602" lon="1.64286">
        <ele>154.7</ele>
        <time>2023-09-25T08:24:12.857Z</time>
      </trkpt>
      <trkpt lat="44.79608" lon="1.64286">
        <ele>154.9</ele>
        <time>2023-09-25T08:24:17Z</time>
      </trkpt>
      <trkpt lat="44.79614" lon="1.64286">
        <ele>155.1</ele>
        <time>2023-09-25T08:24:21.484Z</time>
      </trkpt>
      <trkpt lat="44.7962" lon="1.64285">
        <ele>154.9</ele>
        <time>2023-09-25T08:24:26Z</time>
      </trkpt>
      <trkpt lat="44.79626" lon="1.64284">
        <ele>155.1</ele>
        <time>2023-09-25T08:24:30.300Z</time>
      </trkpt>
      <trkpt lat="44.79631" lon="1.64282">
        <ele>155.3</ele>
        <time>2023-09-25T08:24:34Z</time>
      </trkpt>
      <trkpt lat="44.79636" lon="1.6428">
        <ele>155.6</ele>
        <time>2023-09-25T08:24:38.403Z</time>
      </trkpt>
      <trkpt lat="44.7964" lon="1.64278">
        <ele>155.7</ele>
        <time>2023-09-25T08:24:42Z</time>
      </trkpt>
      <trkpt lat="44.79646" lon="1.64271">
        <ele>156.6</ele>
        <time>2023-09-25T08:24:52Z</time>
      </trkpt>
      <trkpt lat="44.79651" lon="1.64264">
        <ele>158.1</ele>
        <time>2023-09-25T08:24:57.000Z</time>
      </trkpt>
      <trkpt lat="44.79656" lon="1.64257">
        <ele>159.8</ele>
        <time>2023-09-25T08:25:02Z</time>
      </trkpt>
      <trkpt lat="44.79661" lon="1.64255">
        <ele>159.8</ele>
        <time>2023-09-25T08:25:06.500Z</time>
      </trkpt>
      <trkpt lat="44.79666" lon="1.64253">
        <ele>159.8</ele>
        <time>2023-09-25T08:25:11Z</time>
      </trkpt>
      <trkpt lat="44.7967" lon="1.64249">
        <ele>160.3</ele>
        <time>2023-09-25T08:25:15.305Z</time>
      </trkpt>
      <trkpt lat="44.79674" lon="1.64244">
        <ele>160.9</ele>
        <time>2023-09-25T08:25:20Z</time>
      </trkpt>
      <trkpt lat="44.79679" lon="1.6424">
        <ele>161.3</ele>
        <time>2023-09-25T08:25:24.663Z</time>
      </trkpt>
      <trkpt lat="44.79683" lon="1.64235">
        <ele>162</ele>
        <time>2023-09-25T08:25:29Z</time>
      </trkpt>
      <trkpt lat="44.79688" lon="1.64232">
        <ele>161.8</ele>
        <time>2023-09-25T08:25:33.500Z</time>
      </trkpt>
      <trkpt lat="44.79693" lon="1.64229">
        <ele>161.8</ele>
        <time>2023-09-25T08:25:38Z</time>
      </trkpt>
      <trkpt lat="44.79699" lon="1.64229">
        <ele>161.3</ele>
        <time>2023-09-25T08:25:43.972Z</time>
      </trkpt>
      <trkpt lat="44.79704" lon="1.64228">
        <ele>161.1</ele>
        <time>2023-09-25T08:25:49Z</time>
      </trkpt>
      <trkpt lat="44.79709" lon="1.64228">
        <ele>160.7</ele>
        <time>2023-09-25T08:25:52.055Z</time>
      </trkpt>
      <trkpt lat="44.79713" lon="1.64228">
        <ele>160.3</ele>
        <time>2023-09-25T08:25:54.499Z</time>
      </trkpt>
      <trkpt lat="44.79718" lon="1.64228">
        <ele>159.9</ele>
        <time>2023-09-25T08:25:57.555Z</time>
      </trkpt>
      <trkpt lat="44.79722" lon="1.64228">
        <ele>159.5</ele>
        <time>2023-09-25T08:26:00Z</time>
      </trkpt>
      <trkpt lat="44.79728" lon="1.64228">
        <ele>159.6</ele>
        <time>2023-09-25T08:26:04.982Z</time>
      </trkpt>
      <trkpt lat="44.79734" lon="1.64227">
        <ele>159.6</ele>
        <time>2023-09-25T08:26:10Z</time>
      </trkpt>
      <trkpt lat="44.79741" lon="1.64228">
        <ele>159.2</ele>
        <time>2023-09-25T08:26:15.012Z</time>
      </trkpt>
      <trkpt lat="44.79748" lon="1.64228">
        <ele>158.8</ele>
        <time>2023-09-25T08:26:20Z</time>
      </trkpt>
      <trkpt lat="44.79753" lon="1.64229">
        <ele>158.2</ele>
        <time>2023-09-25T08:26:23.500Z</time>
      </trkpt>
      <trkpt lat="44.79758" lon="1.6423">
        <ele>157.7</ele>
        <time>2023-09-25T08:26:27Z</time>
      </trkpt>
      <trkpt lat="44.79764" lon="1.6423">
        <ele>157.8</ele>
        <time>2023-09-25T08:26:31.343Z</time>
      </trkpt>
      <trkpt lat="44.79769" lon="1.64229">
        <ele>157.8</ele>
        <time>2023-09-25T08:26:35Z</time>
      </trkpt>
      <trkpt lat="44.79776" lon="1.64231">
        <ele>157.1</ele>
        <time>2023-09-25T08:26:40.417Z</time>
      </trkpt>
      <trkpt lat="44.79782" lon="1.64232">
        <ele>156.6</ele>
        <time>2023-09-25T08:26:45Z</time>
      </trkpt>
      <trkpt lat="44.79787" lon="1.64234">
        <ele>156.1</ele>
        <time>2023-09-25T08:26:49.564Z</time>
      </trkpt>
      <trkpt lat="44.79792" lon="1.64235">
        <ele>155.7</ele>
        <time>2023-09-25T08:26:54Z</time>
      </trkpt>
      <trkpt lat="44.79798" lon="1.64235">
        <ele>156</ele>
        <time>2023-09-25T08:26:58.484Z</time>
      </trkpt>
      <trkpt lat="44.79804" lon="1.64234">
        <ele>156.3</ele>
        <time>2023-09-25T08:27:03Z</time>
      </trkpt>
      <trkpt lat="44.7981" lon="1.64235">
        <ele>155.4</ele>
        <time>2023-09-25T08:27:08.447Z</time>
      </trkpt>
      <trkpt lat="44.79815" lon="1.64236">
        <ele>154.3</ele>
        <time>2023-09-25T08:27:13Z</time>
      </trkpt>
      <trkpt lat="44.79818" lon="1.64227">
        <ele>156.5</ele>
        <time>2023-09-25T08:27:19.500Z</time>
      </trkpt>
      <trkpt lat="44.79821" lon="1.64218">
        <ele>158.6</ele>
        <time>2023-09-25T08:27:26Z</time>
      </trkpt>
      <trkpt lat="44.79829" lon="1.64214">
        <ele>158</ele>
        <time>2023-09-25T08:27:32.400Z</time>
      </trkpt>
      <trkpt lat="44.79837" lon="1.64209">
        <ele>157.5</ele>
        <time>2023-09-25T08:27:39Z</time>
      </trkpt>
      <trkpt lat="44.79843" lon="1.64206">
        <ele>157.3</ele>
        <time>2023-09-25T08:27:43.406Z</time>
      </trkpt>
      <trkpt lat="44.79849" lon="1.64202">
        <ele>156.9</ele>
        <time>2023-09-25T08:27:48Z</time>
      </trkpt>
      <trkpt lat="44.79854" lon="1.642">
        <ele>156.5</ele>
        <time>2023-09-25T08:27:52.808Z</time>
      </trkpt>
      <trkpt lat="44.79858" lon="1.64197">
        <ele>156.1</ele>
        <time>2023-09-25T08:27:57Z</time>
      </trkpt>
      <trkpt lat="44.79865" lon="1.64196">
        <ele>156</ele>
        <time>2023-09-25T08:28:02.862Z</time>
      </trkpt>
      <trkpt lat="44.79871" lon="1.64194">
        <ele>156.9</ele>
        <time>2023-09-25T08:28:08Z</time>
      </trkpt>
      <trkpt lat="44.79873" lon="1.64198">
        <ele>156</ele>
        <time>2023-09-25T08:28:25Z</time>
      </trkpt>
      <trkpt lat="44.79873" lon="1.64207">
        <ele>153.7</ele>
        <time>2023-09-25T08:28:39Z</time>
      </trkpt>
      <trkpt lat="44.7988" lon="1.64215">
        <ele>152.3</ele>
        <time>2023-09-25T08:28:41.413Z</time>
      </trkpt>
      <trkpt lat="44.79886" lon="1.64222">
        <ele>150.8</ele>
        <time>2023-09-25T08:28:43.499Z</time>
      </trkpt>
      <trkpt lat="44.79893" lon="1.6423">
        <ele>152.1</ele>
        <time>2023-09-25T08:28:45.913Z</time>
      </trkpt>
      <trkpt lat="44.79899" lon="1.64237">
        <ele>153.9</ele>
        <time>2023-09-25T08:28:48Z</time>
      </trkpt>
      <trkpt lat="44.79895" lon="1.64238">
        <ele>152.3</ele>
        <time>2023-09-25T08:28:52.012Z</time>
      </trkpt>
      <trkpt lat="44.7989" lon="1.64239">
        <ele>150.8</ele>
        <time>2023-09-25T08:28:57Z</time>
      </trkpt>
      <trkpt lat="44.79886" lon="1.6424">
        <ele>150.4</ele>
        <time>2023-09-25T08:29:01.034Z</time>
      </trkpt>
      <trkpt lat="44.79881" lon="1.6424">
        <ele>150.3</ele>
        <time>2023-09-25T08:29:06Z</time>
      </trkpt>
      <trkpt lat="44.79874" lon="1.64247">
        <ele>150.5</ele>
        <time>2023-09-25T08:29:15Z</time>
      </trkpt>
      <trkpt lat="44.79877" lon="1.64253">
        <ele>150.6</ele>
        <time>2023-09-25T08:29:24.539Z</time>
      </trkpt>
      <trkpt lat="44.79879" lon="1.64258">
        <ele>150.7</ele>
        <time>2023-09-25T08:29:32Z</time>
      </trkpt>
      <trkpt lat="44.79878" lon="1.64266">
        <ele>151.2</ele>
        <time>2023-09-25T08:29:38.386Z</time>
      </trkpt>
      <trkpt lat="44.79877" lon="1.64273">
        <ele>151.6</ele>
        <time>2023-09-25T08:29:44Z</time>
      </trkpt>
      <trkpt lat="44.79871" lon="1.64274">
        <ele>152.1</ele>
        <time>2023-09-25T08:29:50.005Z</time>
      </trkpt>
      <trkpt lat="44.79864" lon="1.64275">
        <ele>152.6</ele>
        <time>2023-09-25T08:29:57Z</time>
      </trkpt>
      <trkpt lat="44.7986" lon="1.64276">
        <ele>152.7</ele>
        <time>2023-09-25T08:30:05.470Z</time>
      </trkpt>
      <trkpt lat="44.79855" lon="1.64277">
        <ele>152.3</ele>
        <time>2023-09-25T08:30:16Z</time>
      </trkpt>
      <trkpt lat="44.79861" lon="1.6428">
        <ele>153.3</ele>
        <time>2023-09-25T08:30:42Z</time>
      </trkpt>
      <trkpt lat="44.79862" lon="1.64282">
        <ele>153.5</ele>
        <time>2023-09-25T08:31:04Z</time>
      </trkpt>
      <trkpt lat="44.79857" lon="1.64284">
        <ele>153.5</ele>
        <time>2023-09-25T08:31:34Z</time>
      </trkpt>
      <trkpt lat="44.79852" lon="1.64288">
        <ele>153.6</ele>
        <time>2023-09-25T08:32:02Z</time>
      </trkpt>
      <trkpt lat="44.79852" lon="1.64287">
        <ele>153.5</ele>
        <time>2023-09-25T08:32:42Z</time>
      </trkpt>
      <trkpt lat="44.7985" lon="1.64288">
        <ele>153.4</ele>
        <time>2023-09-25T08:33:21Z</time>
      </trkpt>
      <trkpt lat="44.79857" lon="1.64282">
        <ele>153.1</ele>
        <time>2023-09-25T08:33:27.664Z</time>
      </trkpt>
      <trkpt lat="44.79863" lon="1.64275">
        <ele>152.7</ele>
        <time>2023-09-25T08:33:34Z</time>
      </trkpt>
      <trkpt lat="44.79868" lon="1.64267">
        <ele>151.8</ele>
        <time>2023-09-25T08:33:38.343Z</time>
      </trkpt>
      <trkpt lat="44.79873" lon="1.64258">
        <ele>151</ele>
        <time>2023-09-25T08:33:43Z</time>
      </trkpt>
      <trkpt lat="44.79876" lon="1.64251">
        <ele>150.5</ele>
        <time>2023-09-25T08:33:48.200Z</time>
      </trkpt>
      <trkpt lat="44.79878" lon="1.64244">
        <ele>150.4</ele>
        <time>2023-09-25T08:33:53Z</time>
      </trkpt>
      <trkpt lat="44.79883" lon="1.64234">
        <ele>150.4</ele>
        <time>2023-09-25T08:34:07Z</time>
      </trkpt>
      <trkpt lat="44.7989" lon="1.64235">
        <ele>150.9</ele>
        <time>2023-09-25T08:34:25Z</time>
      </trkpt>
      <trkpt lat="44.79897" lon="1.64241">
        <ele>152.8</ele>
        <time>2023-09-25T08:34:28.117Z</time>
      </trkpt>
      <trkpt lat="44.79903" lon="1.64248">
        <ele>154.3</ele>
        <time>2023-09-25T08:34:31.081Z</time>
      </trkpt>
      <trkpt lat="44.7991" lon="1.64254">
        <ele>155.7</ele>
        <time>2023-09-25T08:34:34.199Z</time>
      </trkpt>
      <trkpt lat="44.79916" lon="1.6426">
        <ele>156.8</ele>
        <time>2023-09-25T08:34:37Z</time>
      </trkpt>
      <trkpt lat="44.79918" lon="1.64268">
        <ele>157.2</ele>
        <time>2023-09-25T08:34:42.821Z</time>
      </trkpt>
      <trkpt lat="44.7992" lon="1.64275">
        <ele>158</ele>
        <time>2023-09-25T08:34:48Z</time>
      </trkpt>
      <trkpt lat="44.79922" lon="1.64282">
        <ele>158.5</ele>
        <time>2023-09-25T08:34:53.323Z</time>
      </trkpt>
      <trkpt lat="44.79924" lon="1.64288">
        <ele>158.9</ele>
        <time>2023-09-25T08:34:58Z</time>
      </trkpt>
      <trkpt lat="44.79926" lon="1.64294">
        <ele>159.1</ele>
        <time>2023-09-25T08:35:03.182Z</time>
      </trkpt>
      <trkpt lat="44.79927" lon="1.643">
        <ele>159.1</ele>
        <time>2023-09-25T08:35:08Z</time>
      </trkpt>
      <trkpt lat="44.79929" lon="1.64312">
        <ele>158.7</ele>
        <time>2023-09-25T08:35:21.222Z</time>
      </trkpt>
      <trkpt lat="44.79931" lon="1.64318">
        <ele>158.8</ele>
        <time>2023-09-25T08:35:28.333Z</time>
      </trkpt>
      <trkpt lat="44.79934" lon="1.64327">
        <ele>158.8</ele>
        <time>2023-09-25T08:35:39Z</time>
      </trkpt>
      <trkpt lat="44.79934" lon="1.64337">
        <ele>157.5</ele>
        <time>2023-09-25T08:35:48.419Z</time>
      </trkpt>
      <trkpt lat="44.79933" lon="1.64346">
        <ele>157.5</ele>
        <time>2023-09-25T08:35:57Z</time>
      </trkpt>
      <trkpt lat="44.79933" lon="1.64354">
        <ele>157.6</ele>
        <time>2023-09-25T08:36:01.266Z</time>
      </trkpt>
      <trkpt lat="44.79933" lon="1.64361">
        <ele>157.7</ele>
        <time>2023-09-25T08:36:05Z</time>
      </trkpt>
      <trkpt lat="44.79931" lon="1.64368">
        <ele>157.6</ele>
        <time>2023-09-25T08:36:08.999Z</time>
      </trkpt>
      <trkpt lat="44.79929" lon="1.64375">
        <ele>157.4</ele>
        <time>2023-09-25T08:36:13Z</time>
      </trkpt>
      <trkpt lat="44.79928" lon="1.64382">
        <ele>157.3</ele>
        <time>2023-09-25T08:36:16.889Z</time>
      </trkpt>
      <trkpt lat="44.79926" lon="1.64389">
        <ele>157</ele>
        <time>2023-09-25T08:36:21Z</time>
      </trkpt>
      <trkpt lat="44.79926" lon="1.64397">
        <ele>156.9</ele>
        <time>2023-09-25T08:36:32.733Z</time>
      </trkpt>
      <trkpt lat="44.79926" lon="1.64404">
        <ele>156.9</ele>
        <time>2023-09-25T08:36:43Z</time>
      </trkpt>
      <trkpt lat="44.79928" lon="1.64416">
        <ele>157.7</ele>
        <time>2023-09-25T08:36:50Z</time>
      </trkpt>
      <trkpt lat="44.79929" lon="1.64423">
        <ele>157.9</ele>
        <time>2023-09-25T08:36:54.039Z</time>
      </trkpt>
      <trkpt lat="44.79929" lon="1.6443">
        <ele>158</ele>
        <time>2023-09-25T08:36:58Z</time>
      </trkpt>
      <trkpt lat="44.7993" lon="1.64437">
        <ele>158.4</ele>
        <time>2023-09-25T08:37:02.293Z</time>
      </trkpt>
      <trkpt lat="44.79931" lon="1.64443">
        <ele>158.7</ele>
        <time>2023-09-25T08:37:06Z</time>
      </trkpt>
      <trkpt lat="44.79933" lon="1.6445">
        <ele>159.2</ele>
        <time>2023-09-25T08:37:09.853Z</time>
      </trkpt>
      <trkpt lat="44.79934" lon="1.64456">
        <ele>159.6</ele>
        <time>2023-09-25T08:37:13Z</time>
      </trkpt>
      <trkpt lat="44.79935" lon="1.64463">
        <ele>159.7</ele>
        <time>2023-09-25T08:37:16.757Z</time>
      </trkpt>
      <trkpt lat="44.79936" lon="1.64469">
        <ele>159.8</ele>
        <time>2023-09-25T08:37:20Z</time>
      </trkpt>
      <trkpt lat="44.79938" lon="1.64475">
        <ele>160</ele>
        <time>2023-09-25T08:37:23.627Z</time>
      </trkpt>
      <trkpt lat="44.79939" lon="1.64481">
        <ele>160.1</ele>
        <time>2023-09-25T08:37:27Z</time>
      </trkpt>
      <trkpt lat="44.79941" lon="1.64487">
        <ele>160.2</ele>
        <time>2023-09-25T08:37:30.500Z</time>
      </trkpt>
      <trkpt lat="44.79943" lon="1.64493">
        <ele>160.3</ele>
        <time>2023-09-25T08:37:34Z</time>
      </trkpt>
      <trkpt lat="44.79944" lon="1.645">
        <ele>159.9</ele>
        <time>2023-09-25T08:37:38.000Z</time>
      </trkpt>
      <trkpt lat="44.79945" lon="1.64507">
        <ele>159.6</ele>
        <time>2023-09-25T08:37:42Z</time>
      </trkpt>
      <trkpt lat="44.79947" lon="1.64517">
        <ele>160</ele>
        <time>2023-09-25T08:37:49Z</time>
      </trkpt>
      <trkpt lat="44.79947" lon="1.64525">
        <ele>158.9</ele>
        <time>2023-09-25T08:37:53.227Z</time>
      </trkpt>
      <trkpt lat="44.79946" lon="1.64532">
        <ele>158</ele>
        <time>2023-09-25T08:37:57Z</time>
      </trkpt>
      <trkpt lat="44.79947" lon="1.6454">
        <ele>158.1</ele>
        <time>2023-09-25T08:38:01.534Z</time>
      </trkpt>
      <trkpt lat="44.79947" lon="1.64548">
        <ele>158.2</ele>
        <time>2023-09-25T08:38:06Z</time>
      </trkpt>
      <trkpt lat="44.79947" lon="1.64555">
        <ele>158</ele>
        <time>2023-09-25T08:38:10.000Z</time>
      </trkpt>
      <trkpt lat="44.79947" lon="1.64562">
        <ele>157.8</ele>
        <time>2023-09-25T08:38:14Z</time>
      </trkpt>
      <trkpt lat="44.79946" lon="1.64569">
        <ele>157.1</ele>
        <time>2023-09-25T08:38:17.999Z</time>
      </trkpt>
      <trkpt lat="44.79945" lon="1.64576">
        <ele>156.4</ele>
        <time>2023-09-25T08:38:22Z</time>
      </trkpt>
      <trkpt lat="44.79945" lon="1.64583">
        <ele>156.3</ele>
        <time>2023-09-25T08:38:26.846Z</time>
      </trkpt>
      <trkpt lat="44.79945" lon="1.64589">
        <ele>156.5</ele>
        <time>2023-09-25T08:38:31Z</time>
      </trkpt>
      <trkpt lat="44.79946" lon="1.64597">
        <ele>157.1</ele>
        <time>2023-09-25T08:38:35.834Z</time>
      </trkpt>
      <trkpt lat="44.79946" lon="1.64604">
        <ele>157.6</ele>
        <time>2023-09-25T08:38:40Z</time>
      </trkpt>
      <trkpt lat="44.79945" lon="1.64612">
        <ele>157.3</ele>
        <time>2023-09-25T08:38:44.499Z</time>
      </trkpt>
      <trkpt lat="44.79944" lon="1.6462">
        <ele>157.2</ele>
        <time>2023-09-25T08:38:49Z</time>
      </trkpt>
      <trkpt lat="44.79945" lon="1.6463">
        <ele>157.7</ele>
        <time>2023-09-25T08:38:54.287Z</time>
      </trkpt>
      <trkpt lat="44.79945" lon="1.64639">
        <ele>158.3</ele>
        <time>2023-09-25T08:38:59Z</time>
      </trkpt>
      <trkpt lat="44.79947" lon="1.64648">
        <ele>158.1</ele>
        <time>2023-09-25T08:39:03.835Z</time>
      </trkpt>
      <trkpt lat="44.79948" lon="1.64656">
        <ele>157.9</ele>
        <time>2023-09-25T08:39:08Z</time>
      </trkpt>
      <trkpt lat="44.79949" lon="1.64664">
        <ele>157.5</ele>
        <time>2023-09-25T08:39:12.789Z</time>
      </trkpt>
      <trkpt lat="44.7995" lon="1.64671">
        <ele>157.4</ele>
        <time>2023-09-25T08:39:17Z</time>
      </trkpt>
      <trkpt lat="44.79954" lon="1.64677">
        <ele>159.4</ele>
        <time>2023-09-25T08:39:27Z</time>
      </trkpt>
      <trkpt lat="44.79956" lon="1.64678">
        <ele>159.8</ele>
        <time>2023-09-25T08:39:29.392Z</time>
      </trkpt>
      <trkpt lat="44.79958" lon="1.64684">
        <ele>160.2</ele>
        <time>2023-09-25T08:39:34.696Z</time>
      </trkpt>
      <trkpt lat="44.7996" lon="1.6469">
        <ele>160.2</ele>
        <time>2023-09-25T08:39:40Z</time>
      </trkpt>
      <trkpt lat="44.79964" lon="1.64701">
        <ele>159.2</ele>
        <time>2023-09-25T08:39:50Z</time>
      </trkpt>
      <trkpt lat="44.79967" lon="1.64712">
        <ele>157.3</ele>
        <time>2023-09-25T08:40:00Z</time>
      </trkpt>
      <trkpt lat="44.7997" lon="1.64721">
        <ele>155.4</ele>
        <time>2023-09-25T08:40:05.235Z</time>
      </trkpt>
      <trkpt lat="44.79973" lon="1.64729">
        <ele>155.5</ele>
        <time>2023-09-25T08:40:10Z</time>
      </trkpt>
      <trkpt lat="44.79976" lon="1.64738">
        <ele>157.4</ele>
        <time>2023-09-25T08:40:15.759Z</time>
      </trkpt>
      <trkpt lat="44.79979" lon="1.64746">
        <ele>159</ele>
        <time>2023-09-25T08:40:21Z</time>
      </trkpt>
      <trkpt lat="44.7998" lon="1.64755">
        <ele>158.8</ele>
        <time>2023-09-25T08:40:26.500Z</time>
      </trkpt>
      <trkpt lat="44.79981" lon="1.64764">
        <ele>158.4</ele>
        <time>2023-09-25T08:40:32Z</time>
      </trkpt>
      <trkpt lat="44.79982" lon="1.64771">
        <ele>158.7</ele>
        <time>2023-09-25T08:40:42Z</time>
      </trkpt>
      <trkpt lat="44.79985" lon="1.64781">
        <ele>159.3</ele>
        <time>2023-09-25T08:40:48.000Z</time>
      </trkpt>
      <trkpt lat="44.79988" lon="1.64791">
        <ele>160</ele>
        <time>2023-09-25T08:40:54Z</time>
      </trkpt>
      <trkpt lat="44.79989" lon="1.64798">
        <ele>160</ele>
        <time>2023-09-25T08:40:56.806Z</time>
      </trkpt>
      <trkpt lat="44.7999" lon="1.64804">
        <ele>160</ele>
        <time>2023-09-25T08:40:59.228Z</time>
      </trkpt>
      <trkpt lat="44.79992" lon="1.64811">
        <ele>160.1</ele>
        <time>2023-09-25T08:41:02.193Z</time>
      </trkpt>
      <trkpt lat="44.79993" lon="1.64818">
        <ele>160.3</ele>
        <time>2023-09-25T08:41:05Z</time>
      </trkpt>
      <trkpt lat="44.79993" lon="1.64824">
        <ele>160.2</ele>
        <time>2023-09-25T08:41:07.400Z</time>
      </trkpt>
      <trkpt lat="44.79993" lon="1.6483">
        <ele>160</ele>
        <time>2023-09-25T08:41:09.800Z</time>
      </trkpt>
      <trkpt lat="44.79993" lon="1.64837">
        <ele>160</ele>
        <time>2023-09-25T08:41:12.600Z</time>
      </trkpt>
      <trkpt lat="44.79993" lon="1.64843">
        <ele>160.2</ele>
        <time>2023-09-25T08:41:15Z</time>
      </trkpt>
      <trkpt lat="44.79991" lon="1.64855">
        <ele>159.9</ele>
        <time>2023-09-25T08:41:20.725Z</time>
      </trkpt>
      <trkpt lat="44.79989" lon="1.64866">
        <ele>160.1</ele>
        <time>2023-09-25T08:41:26Z</time>
      </trkpt>
      <trkpt lat="44.79985" lon="1.64874">
        <ele>160.2</ele>
        <time>2023-09-25T08:41:31.456Z</time>
      </trkpt>
      <trkpt lat="44.79982" lon="1.64883">
        <ele>160</ele>
        <time>2023-09-25T08:41:37Z</time>
      </trkpt>
      <trkpt lat="44.79978" lon="1.64889">
        <ele>159.1</ele>
        <time>2023-09-25T08:41:44.929Z</time>
      </trkpt>
      <trkpt lat="44.79975" lon="1.64895">
        <ele>159.5</ele>
        <time>2023-09-25T08:41:52Z</time>
      </trkpt>
      <trkpt lat="44.79972" lon="1.64904">
        <ele>160.9</ele>
        <time>2023-09-25T08:42:09Z</time>
      </trkpt>
      <trkpt lat="44.79968" lon="1.6491">
        <ele>161.5</ele>
        <time>2023-09-25T08:42:15.265Z</time>
      </trkpt>
      <trkpt lat="44.79964" lon="1.64915">
        <ele>161.4</ele>
        <time>2023-09-25T08:42:21Z</time>
      </trkpt>
      <trkpt lat="44.79959" lon="1.64922">
        <ele>160.5</ele>
        <time>2023-09-25T08:42:26.871Z</time>
      </trkpt>
      <trkpt lat="44.79953" lon="1.64928">
        <ele>158.9</ele>
        <time>2023-09-25T08:42:33Z</time>
      </trkpt>
      <trkpt lat="44.79947" lon="1.64936">
        <ele>156.3</ele>
        <time>2023-09-25T08:42:40.499Z</time>
      </trkpt>
      <trkpt lat="44.79941" lon="1.64944">
        <ele>156.2</ele>
        <time>2023-09-25T08:42:48Z</time>
      </trkpt>
      <trkpt lat="44.79941" lon="1.64948">
        <ele>156.2</ele>
        <time>2023-09-25T08:43:06Z</time>
      </trkpt>
      <trkpt lat="44.79944" lon="1.64955">
        <ele>155.3</ele>
        <time>2023-09-25T08:43:16.493Z</time>
      </trkpt>
      <trkpt lat="44.79946" lon="1.64961">
        <ele>156.3</ele>
        <time>2023-09-25T08:43:25Z</time>
      </trkpt>
      <trkpt lat="44.79948" lon="1.6497">
        <ele>158.1</ele>
        <time>2023-09-25T08:43:52Z</time>
      </trkpt>
      <trkpt lat="44.79951" lon="1.64978">
        <ele>160.2</ele>
        <time>2023-09-25T08:44:01.814Z</time>
      </trkpt>
      <trkpt lat="44.79953" lon="1.64985">
        <ele>161.7</ele>
        <time>2023-09-25T08:44:10Z</time>
      </trkpt>
      <trkpt lat="44.79955" lon="1.64996">
        <ele>162.1</ele>
        <time>2023-09-25T08:44:25Z</time>
      </trkpt>
      <trkpt lat="44.79957" lon="1.65003">
        <ele>162.4</ele>
        <time>2023-09-25T08:44:32.985Z</time>
      </trkpt>
      <trkpt lat="44.79959" lon="1.65009">
        <ele>162.2</ele>
        <time>2023-09-25T08:44:40Z</time>
      </trkpt>
      <trkpt lat="44.79961" lon="1.65021">
        <ele>160.4</ele>
        <time>2023-09-25T08:45:04Z</time>
      </trkpt>
      <trkpt lat="44.79963" lon="1.65028">
        <ele>159.3</ele>
        <time>2023-09-25T08:45:15.559Z</time>
      </trkpt>
      <trkpt lat="44.79964" lon="1.65034">
        <ele>159.6</ele>
        <time>2023-09-25T08:45:25Z</time>
      </trkpt>
      <trkpt lat="44.79959" lon="1.65036">
        <ele>158.9</ele>
        <time>2023-09-25T08:45:52Z</time>
      </trkpt>
      <trkpt lat="44.79965" lon="1.65037">
        <ele>159.7</ele>
        <time>2023-09-25T08:46:20Z</time>
      </trkpt>
      <trkpt lat="44.79968" lon="1.65044">
        <ele>160</ele>
        <time>2023-09-25T08:46:33.500Z</time>
      </trkpt>
      <trkpt lat="44.79971" lon="1.65051">
        <ele>160.1</ele>
        <time>2023-09-25T08:46:47Z</time>
      </trkpt>
      <trkpt lat="44.79975" lon="1.65053">
        <ele>162</ele>
        <time>2023-09-25T08:47:11Z</time>
      </trkpt>
      <trkpt lat="44.79975" lon="1.65052">
        <ele>162.1</ele>
        <time>2023-09-25T08:47:38Z</time>
      </trkpt>
      <trkpt lat="44.7997" lon="1.65051">
        <ele>160</ele>
        <time>2023-09-25T08:48:02Z</time>
      </trkpt>
      <trkpt lat="44.79966" lon="1.65049">
        <ele>159.8</ele>
        <time>2023-09-25T08:48:30Z</time>
      </trkpt>
      <trkpt lat="44.79971" lon="1.65046">
        <ele>160.2</ele>
        <time>2023-09-25T08:48:43.500Z</time>
      </trkpt>
      <trkpt lat="44.79976" lon="1.65043">
        <ele>163.4</ele>
        <time>2023-09-25T08:48:57Z</time>
      </trkpt>
      <trkpt lat="44.79973" lon="1.65042">
        <ele>161.1</ele>
        <time>2023-09-25T08:49:16Z</time>
      </trkpt>
      <trkpt lat="44.79975" lon="1.65039">
        <ele>162.9</ele>
        <time>2023-09-25T08:49:49Z</time>
      </trkpt>
      <trkpt lat="44.79972" lon="1.65046">
        <ele>160.3</ele>
        <time>2023-09-25T08:50:09Z</time>
      </trkpt>
      <trkpt lat="44.79971" lon="1.65043">
        <ele>160.3</ele>
        <time>2023-09-25T08:50:39Z</time>
      </trkpt>
      <trkpt lat="44.79963" lon="1.65038">
        <ele>159.5</ele>
        <time>2023-09-25T08:50:55Z</time>
      </trkpt>
      <trkpt lat="44.79957" lon="1.65047">
        <ele>159.1</ele>
        <time>2023-09-25T08:51:13Z</time>
      </trkpt>
      <trkpt lat="44.79954" lon="1.65046">
        <ele>158.8</ele>
        <time>2023-09-25T08:51:27Z</time>
      </trkpt>
      <trkpt lat="44.79947" lon="1.6505">
        <ele>158.6</ele>
        <time>2023-09-25T08:51:39Z</time>
      </trkpt>
      <trkpt lat="44.79949" lon="1.65058">
        <ele>159.7</ele>
        <time>2023-09-25T08:51:54Z</time>
      </trkpt>
      <trkpt lat="44.79952" lon="1.65064">
        <ele>160.7</ele>
        <time>2023-09-25T08:52:02.407Z</time>
      </trkpt>
      <trkpt lat="44.79954" lon="1.6507">
        <ele>161.4</ele>
        <time>2023-09-25T08:52:10Z</time>
      </trkpt>
      <trkpt lat="44.79958" lon="1.65081">
        <ele>161.9</ele>
        <time>2023-09-25T08:52:24Z</time>
      </trkpt>
      <trkpt lat="44.79962" lon="1.65088">
        <ele>161.4</ele>
        <time>2023-09-25T08:52:32.500Z</time>
      </trkpt>
      <trkpt lat="44.79966" lon="1.65095">
        <ele>160.5</ele>
        <time>2023-09-25T08:52:41Z</time>
      </trkpt>
      <trkpt lat="44.79971" lon="1.65105">
        <ele>158.8</ele>
        <time>2023-09-25T08:52:50.802Z</time>
      </trkpt>
      <trkpt lat="44.79975" lon="1.65115">
        <ele>159.7</ele>
        <time>2023-09-25T08:53:00Z</time>
      </trkpt>
      <trkpt lat="44.7998" lon="1.65123">
        <ele>162</ele>
        <time>2023-09-25T08:53:07.299Z</time>
      </trkpt>
      <trkpt lat="44.79984" lon="1.65131">
        <ele>163</ele>
        <time>2023-09-25T08:53:14Z</time>
      </trkpt>
      <trkpt lat="44.79983" lon="1.6514">
        <ele>164.8</ele>
        <time>2023-09-25T08:53:19.896Z</time>
      </trkpt>
      <trkpt lat="44.79981" lon="1.65149">
        <ele>166.6</ele>
        <time>2023-09-25T08:53:26Z</time>
      </trkpt>
      <trkpt lat="44.79981" lon="1.65159">
        <ele>168.2</ele>
        <time>2023-09-25T08:53:32.279Z</time>
      </trkpt>
      <trkpt lat="44.7998" lon="1.65168">
        <ele>169.7</ele>
        <time>2023-09-25T08:53:38Z</time>
      </trkpt>
      <trkpt lat="44.79981" lon="1.65175">
        <ele>169.7</ele>
        <time>2023-09-25T08:53:40.588Z</time>
      </trkpt>
      <trkpt lat="44.79982" lon="1.65182">
        <ele>169.7</ele>
        <time>2023-09-25T08:53:43.176Z</time>
      </trkpt>
      <trkpt lat="44.79983" lon="1.65188">
        <ele>169.9</ele>
        <time>2023-09-25T08:53:45.410Z</time>
      </trkpt>
      <trkpt lat="44.79984" lon="1.65195">
        <ele>170</ele>
        <time>2023-09-25T08:53:48Z</time>
      </trkpt>
      <trkpt lat="44.79985" lon="1.65204">
        <ele>169.2</ele>
        <time>2023-09-25T08:53:53.533Z</time>
      </trkpt>
      <trkpt lat="44.79985" lon="1.65213">
        <ele>168.4</ele>
        <time>2023-09-25T08:53:59Z</time>
      </trkpt>
      <trkpt lat="44.79984" lon="1.65221">
        <ele>168.1</ele>
        <time>2023-09-25T08:54:04.702Z</time>
      </trkpt>
      <trkpt lat="44.79982" lon="1.65228">
        <ele>167.3</ele>
        <time>2023-09-25T08:54:10Z</time>
      </trkpt>
      <trkpt lat="44.7998" lon="1.65237">
        <ele>165.7</ele>
        <time>2023-09-25T08:54:15.499Z</time>
      </trkpt>
      <trkpt lat="44.79978" lon="1.65246">
        <ele>163.6</ele>
        <time>2023-09-25T08:54:21Z</time>
      </trkpt>
      <trkpt lat="44.79971" lon="1.65249">
        <ele>161.8</ele>
        <time>2023-09-25T08:54:26.685Z</time>
      </trkpt>
      <trkpt lat="44.79963" lon="1.65251">
        <ele>162.3</ele>
        <time>2023-09-25T08:54:33Z</time>
      </trkpt>
      <trkpt lat="44.79957" lon="1.65253">
        <ele>163.1</ele>
        <time>2023-09-25T08:54:37.000Z</time>
      </trkpt>
      <trkpt lat="44.79951" lon="1.65255">
        <ele>163.6</ele>
        <time>2023-09-25T08:54:41Z</time>
      </trkpt>
      <trkpt lat="44.79943" lon="1.65258">
        <ele>164</ele>
        <time>2023-09-25T08:54:46.499Z</time>
      </trkpt>
      <trkpt lat="44.79935" lon="1.65261">
        <ele>164.4</ele>
        <time>2023-09-25T08:54:52Z</time>
      </trkpt>
      <trkpt lat="44.7993" lon="1.65265">
        <ele>164.1</ele>
        <time>2023-09-25T08:54:56.177Z</time>
      </trkpt>
      <trkpt lat="44.79924" lon="1.65269">
        <ele>163.4</ele>
        <time>2023-09-25T08:55:01Z</time>
      </trkpt>
      <trkpt lat="44.79919" lon="1.65272">
        <ele>162.8</ele>
        <time>2023-09-25T08:55:05.173Z</time>
      </trkpt>
      <trkpt lat="44.79915" lon="1.65275">
        <ele>162.9</ele>
        <time>2023-09-25T08:55:08.652Z</time>
      </trkpt>
      <trkpt lat="44.7991" lon="1.65278">
        <ele>164</ele>
        <time>2023-09-25T08:55:12.825Z</time>
      </trkpt>
      <trkpt lat="44.79905" lon="1.65281">
        <ele>165.8</ele>
        <time>2023-09-25T08:55:17Z</time>
      </trkpt>
      <trkpt lat="44.79899" lon="1.65285">
        <ele>167.4</ele>
        <time>2023-09-25T08:55:22.499Z</time>
      </trkpt>
      <trkpt lat="44.79893" lon="1.65289">
        <ele>168</ele>
        <time>2023-09-25T08:55:28Z</time>
      </trkpt>
      <trkpt lat="44.79891" lon="1.65296">
        <ele>166.4</ele>
        <time>2023-09-25T08:55:33.323Z</time>
      </trkpt>
      <trkpt lat="44.79889" lon="1.65302">
        <ele>164.3</ele>
        <time>2023-09-25T08:55:38Z</time>
      </trkpt>
      <trkpt lat="44.79884" lon="1.65306">
        <ele>166.3</ele>
        <time>2023-09-25T08:55:48.499Z</time>
      </trkpt>
      <trkpt lat="44.79879" lon="1.6531">
        <ele>169.3</ele>
        <time>2023-09-25T08:55:59Z</time>
      </trkpt>
      <trkpt lat="44.79877" lon="1.65316">
        <ele>170.1</ele>
        <time>2023-09-25T08:56:14Z</time>
      </trkpt>
      <trkpt lat="44.79876" lon="1.65328">
        <ele>169.5</ele>
        <time>2023-09-25T08:56:32Z</time>
      </trkpt>
      <trkpt lat="44.79878" lon="1.65333">
        <ele>167.8</ele>
        <time>2023-09-25T08:58:54Z</time>
      </trkpt>
      <trkpt lat="44.79877" lon="1.65338">
        <ele>168.1</ele>
        <time>2023-09-25T09:00:02Z</time>
      </trkpt>
      <trkpt lat="44.79876" lon="1.65342">
        <ele>168.4</ele>
        <time>2023-09-25T09:01:43Z</time>
      </trkpt>
      <trkpt lat="44.79873" lon="1.65352">
        <ele>168.9</ele>
        <time>2023-09-25T09:01:50.307Z</time>
      </trkpt>
      <trkpt lat="44.7987" lon="1.65361">
        <ele>168.8</ele>
        <time>2023-09-25T09:01:57Z</time>
      </trkpt>
      <trkpt lat="44.79869" lon="1.6537">
        <ele>169.1</ele>
        <time>2023-09-25T09:02:02.896Z</time>
      </trkpt>
      <trkpt lat="44.79867" lon="1.65379">
        <ele>169.1</ele>
        <time>2023-09-25T09:02:09Z</time>
      </trkpt>
      <trkpt lat="44.79868" lon="1.65387">
        <ele>169</ele>
        <time>2023-09-25T09:02:15.445Z</time>
      </trkpt>
      <trkpt lat="44.79868" lon="1.65394">
        <ele>169</ele>
        <time>2023-09-25T09:02:21Z</time>
      </trkpt>
      <trkpt lat="44.79867" lon="1.65402">
        <ele>168.7</ele>
        <time>2023-09-25T09:02:26.381Z</time>
      </trkpt>
      <trkpt lat="44.79865" lon="1.6541">
        <ele>168</ele>
        <time>2023-09-25T09:02:32Z</time>
      </trkpt>
      <trkpt lat="44.79864" lon="1.65419">
        <ele>167.3</ele>
        <time>2023-09-25T09:02:37.896Z</time>
      </trkpt>
      <trkpt lat="44.79862" lon="1.65428">
        <ele>166.9</ele>
        <time>2023-09-25T09:02:44Z</time>
      </trkpt>
      <trkpt lat="44.79863" lon="1.6544">
        <ele>167.4</ele>
        <time>2023-09-25T09:02:59Z</time>
      </trkpt>
      <trkpt lat="44.79864" lon="1.65446">
        <ele>167.9</ele>
        <time>2023-09-25T09:03:12Z</time>
      </trkpt>
      <trkpt lat="44.79867" lon="1.65452">
        <ele>168.9</ele>
        <time>2023-09-25T09:03:16.750Z</time>
      </trkpt>
      <trkpt lat="44.7987" lon="1.65458">
        <ele>169.3</ele>
        <time>2023-09-25T09:03:21.500Z</time>
      </trkpt>
      <trkpt lat="44.79873" lon="1.65464">
        <ele>169.2</ele>
        <time>2023-09-25T09:03:26.250Z</time>
      </trkpt>
      <trkpt lat="44.79876" lon="1.6547">
        <ele>168.5</ele>
        <time>2023-09-25T09:03:31Z</time>
      </trkpt>
      <trkpt lat="44.79878" lon="1.65476">
        <ele>168.5</ele>
        <time>2023-09-25T09:03:35.676Z</time>
      </trkpt>
      <trkpt lat="44.7988" lon="1.65483">
        <ele>168.9</ele>
        <time>2023-09-25T09:03:41Z</time>
      </trkpt>
      <trkpt lat="44.79883" lon="1.65491">
        <ele>168.7</ele>
        <time>2023-09-25T09:03:47.168Z</time>
      </trkpt>
      <trkpt lat="44.79885" lon="1.655">
        <ele>168</ele>
        <time>2023-09-25T09:03:53.597Z</time>
      </trkpt>
      <trkpt lat="44.79888" lon="1.6551">
        <ele>166.5</ele>
        <time>2023-09-25T09:04:01Z</time>
      </trkpt>
      <trkpt lat="44.79886" lon="1.65516">
        <ele>167.7</ele>
        <time>2023-09-25T09:04:08.499Z</time>
      </trkpt>
      <trkpt lat="44.79884" lon="1.65522">
        <ele>169</ele>
        <time>2023-09-25T09:04:16Z</time>
      </trkpt>
      <trkpt lat="44.79882" lon="1.65531">
        <ele>170.2</ele>
        <time>2023-09-25T09:04:36Z</time>
      </trkpt>
      <trkpt lat="44.79879" lon="1.65532">
        <ele>171.5</ele>
        <time>2023-09-25T09:08:23.382Z</time>
      </trkpt>
      <trkpt lat="44.79876" lon="1.65536">
        <ele>172.3</ele>
        <time>2023-09-25T09:13:28Z</time>
      </trkpt>
      <trkpt lat="44.79869" lon="1.65543">
        <ele>172.8</ele>
        <time>2023-09-25T09:14:28Z</time>
      </trkpt>
      <trkpt lat="44.79864" lon="1.65549">
        <ele>170.7</ele>
        <time>2023-09-25T09:14:46Z</time>
      </trkpt>
      <trkpt lat="44.79862" lon="1.65556">
        <ele>167.2</ele>
        <time>2023-09-25T09:14:57.179Z</time>
      </trkpt>
      <trkpt lat="44.7986" lon="1.65562">
        <ele>168.1</ele>
        <time>2023-09-25T09:15:07Z</time>
      </trkpt>
      <trkpt lat="44.79853" lon="1.65569">
        <ele>173.6</ele>
        <time>2023-09-25T09:15:28Z</time>
      </trkpt>
      <trkpt lat="44.79853" lon="1.65577">
        <ele>172.2</ele>
        <time>2023-09-25T09:15:36.500Z</time>
      </trkpt>
      <trkpt lat="44.79853" lon="1.65585">
        <ele>171.2</ele>
        <time>2023-09-25T09:15:45Z</time>
      </trkpt>
      <trkpt lat="44.79852" lon="1.65587">
        <ele>171.8</ele>
        <time>2023-09-25T09:16:07Z</time>
      </trkpt>
      <trkpt lat="44.79852" lon="1.65595">
        <ele>172.4</ele>
        <time>2023-09-25T09:16:15.454Z</time>
      </trkpt>
      <trkpt lat="44.79851" lon="1.65602">
        <ele>173</ele>
        <time>2023-09-25T09:16:23Z</time>
      </trkpt>
      <trkpt lat="44.79854" lon="1.6561">
        <ele>171.8</ele>
        <time>2023-09-25T09:16:30.353Z</time>
      </trkpt>
      <trkpt lat="44.79857" lon="1.65617">
        <ele>170.8</ele>
        <time>2023-09-25T09:16:37Z</time>
      </trkpt>
      <trkpt lat="44.79862" lon="1.65623">
        <ele>169.2</ele>
        <time>2023-09-25T09:16:44.757Z</time>
      </trkpt>
      <trkpt lat="44.79867" lon="1.65628">
        <ele>169.7</ele>
        <time>2023-09-25T09:16:52Z</time>
      </trkpt>
      <trkpt lat="44.79872" lon="1.65633">
        <ele>169.9</ele>
        <time>2023-09-25T09:17:16Z</time>
      </trkpt>
      <trkpt lat="44.79879" lon="1.65626">
        <ele>169.5</ele>
        <time>2023-09-25T09:17:32Z</time>
      </trkpt>
      <trkpt lat="44.79884" lon="1.65624">
        <ele>169.5</ele>
        <time>2023-09-25T09:17:40.500Z</time>
      </trkpt>
      <trkpt lat="44.79889" lon="1.65622">
        <ele>169.6</ele>
        <time>2023-09-25T09:17:49Z</time>
      </trkpt>
      <trkpt lat="44.79897" lon="1.65622">
        <ele>169.3</ele>
        <time>2023-09-25T09:17:55.384Z</time>
      </trkpt>
      <trkpt lat="44.79904" lon="1.65621">
        <ele>168.9</ele>
        <time>2023-09-25T09:18:01Z</time>
      </trkpt>
      <trkpt lat="44.79911" lon="1.65623">
        <ele>168.7</ele>
        <time>2023-09-25T09:18:08.000Z</time>
      </trkpt>
      <trkpt lat="44.79918" lon="1.65625">
        <ele>168.5</ele>
        <time>2023-09-25T09:18:15Z</time>
      </trkpt>
      <trkpt lat="44.79925" lon="1.65628">
        <ele>168.7</ele>
        <time>2023-09-25T09:18:21.416Z</time>
      </trkpt>
      <trkpt lat="44.79931" lon="1.65631">
        <ele>168.9</ele>
        <time>2023-09-25T09:18:27Z</time>
      </trkpt>
      <trkpt lat="44.7994" lon="1.65634">
        <ele>169</ele>
        <time>2023-09-25T09:18:34.387Z</time>
      </trkpt>
      <trkpt lat="44.79948" lon="1.65637">
        <ele>169</ele>
        <time>2023-09-25T09:18:41Z</time>
      </trkpt>
      <trkpt lat="44.79955" lon="1.6564">
        <ele>169.2</ele>
        <time>2023-09-25T09:19:03Z</time>
      </trkpt>
      <trkpt lat="44.79961" lon="1.6564">
        <ele>169.1</ele>
        <time>2023-09-25T09:19:09.515Z</time>
      </trkpt>
      <trkpt lat="44.79966" lon="1.65639">
        <ele>169</ele>
        <time>2023-09-25T09:19:15Z</time>
      </trkpt>
      <trkpt lat="44.79971" lon="1.65641">
        <ele>169.3</ele>
        <time>2023-09-25T09:19:18.173Z</time>
      </trkpt>
      <trkpt lat="44.79976" lon="1.65643">
        <ele>169.6</ele>
        <time>2023-09-25T09:19:21.346Z</time>
      </trkpt>
      <trkpt lat="44.7998" lon="1.65644">
        <ele>169.8</ele>
        <time>2023-09-25T09:19:23.826Z</time>
      </trkpt>
      <trkpt lat="44.79985" lon="1.65646">
        <ele>169.9</ele>
        <time>2023-09-25T09:19:27Z</time>
      </trkpt>
      <trkpt lat="44.79991" lon="1.65644">
        <ele>169.8</ele>
        <time>2023-09-25T09:19:35.504Z</time>
      </trkpt>
      <trkpt lat="44.79996" lon="1.65641">
        <ele>169.8</ele>
        <time>2023-09-25T09:19:43Z</time>
      </trkpt>
      <trkpt lat="44.80002" lon="1.6564">
        <ele>170.4</ele>
        <time>2023-09-25T09:19:50.081Z</time>
      </trkpt>
      <trkpt lat="44.80007" lon="1.65639">
        <ele>172</ele>
        <time>2023-09-25T09:19:56Z</time>
      </trkpt>
      <trkpt lat="44.80006" lon="1.65646">
        <ele>171.2</ele>
        <time>2023-09-25T09:20:04.499Z</time>
      </trkpt>
      <trkpt lat="44.80005" lon="1.65653">
        <ele>170.5</ele>
        <time>2023-09-25T09:20:13Z</time>
      </trkpt>
      <trkpt lat="44.8001" lon="1.65659">
        <ele>170.9</ele>
        <time>2023-09-25T09:20:35Z</time>
      </trkpt>
      <trkpt lat="44.80016" lon="1.65668">
        <ele>170.9</ele>
        <time>2023-09-25T09:20:42.789Z</time>
      </trkpt>
      <trkpt lat="44.80021" lon="1.65677">
        <ele>172</ele>
        <time>2023-09-25T09:20:50Z</time>
      </trkpt>
      <trkpt lat="44.80025" lon="1.65685">
        <ele>171.8</ele>
        <time>2023-09-25T09:20:58.000Z</time>
      </trkpt>
      <trkpt lat="44.80029" lon="1.65693">
        <ele>171.8</ele>
        <time>2023-09-25T09:21:06Z</time>
      </trkpt>
      <trkpt lat="44.80033" lon="1.65699">
        <ele>173.9</ele>
        <time>2023-09-25T09:21:11.500Z</time>
      </trkpt>
      <trkpt lat="44.80037" lon="1.65705">
        <ele>175.3</ele>
        <time>2023-09-25T09:21:17Z</time>
      </trkpt>
      <trkpt lat="44.80039" lon="1.65711">
        <ele>175.1</ele>
        <time>2023-09-25T09:21:24.773Z</time>
      </trkpt>
      <trkpt lat="44.8004" lon="1.65717">
        <ele>174.5</ele>
        <time>2023-09-25T09:21:32Z</time>
      </trkpt>
      <trkpt lat="44.80045" lon="1.65724">
        <ele>174.8</ele>
        <time>2023-09-25T09:21:51Z</time>
      </trkpt>
      <trkpt lat="44.80047" lon="1.6573">
        <ele>174.6</ele>
        <time>2023-09-25T09:22:02.918Z</time>
      </trkpt>
      <trkpt lat="44.80048" lon="1.65736">
        <ele>174.3</ele>
        <time>2023-09-25T09:22:14Z</time>
      </trkpt>
      <trkpt lat="44.80053" lon="1.65744">
        <ele>173.9</ele>
        <time>2023-09-25T09:22:23.318Z</time>
      </trkpt>
      <trkpt lat="44.80058" lon="1.65751">
        <ele>174.9</ele>
        <time>2023-09-25T09:22:32Z</time>
      </trkpt>
      <trkpt lat="44.80062" lon="1.65756">
        <ele>177.5</ele>
        <time>2023-09-25T09:22:39.490Z</time>
      </trkpt>
      <trkpt lat="44.80065" lon="1.65761">
        <ele>180.2</ele>
        <time>2023-09-25T09:22:46Z</time>
      </trkpt>
      <trkpt lat="44.80067" lon="1.65768">
        <ele>181.6</ele>
        <time>2023-09-25T09:22:55.582Z</time>
      </trkpt>
      <trkpt lat="44.80069" lon="1.65774">
        <ele>183.2</ele>
        <time>2023-09-25T09:23:04Z</time>
      </trkpt>
      <trkpt lat="44.80067" lon="1.65784">
        <ele>179.6</ele>
        <time>2023-09-25T09:23:11.153Z</time>
      </trkpt>
      <trkpt lat="44.80064" lon="1.65793">
        <ele>176</ele>
        <time>2023-09-25T09:23:18Z</time>
      </trkpt>
      <trkpt lat="44.80064" lon="1.65802">
        <ele>174.5</ele>
        <time>2023-09-25T09:23:24.460Z</time>
      </trkpt>
      <trkpt lat="44.80063" lon="1.65811">
        <ele>173.9</ele>
        <time>2023-09-25T09:23:31Z</time>
      </trkpt>
      <trkpt lat="44.8006" lon="1.65821">
        <ele>172.8</ele>
        <time>2023-09-25T09:23:37.999Z</time>
      </trkpt>
      <trkpt lat="44.80057" lon="1.65831">
        <ele>171.6</ele>
        <time>2023-09-25T09:23:45Z</time>
      </trkpt>
      <trkpt lat="44.80054" lon="1.65838">
        <ele>172.3</ele>
        <time>2023-09-25T09:23:48.851Z</time>
      </trkpt>
      <trkpt lat="44.80051" lon="1.65844">
        <ele>173.9</ele>
        <time>2023-09-25T09:23:52.308Z</time>
      </trkpt>
      <trkpt lat="44.80047" lon="1.65851">
        <ele>174.6</ele>
        <time>2023-09-25T09:23:56.542Z</time>
      </trkpt>
      <trkpt lat="44.80044" lon="1.65857">
        <ele>174.5</ele>
        <time>2023-09-25T09:24:00Z</time>
      </trkpt>
      <trkpt lat="44.8004" lon="1.65866">
        <ele>174.2</ele>
        <time>2023-09-25T09:24:04.491Z</time>
      </trkpt>
      <trkpt lat="44.80035" lon="1.65874">
        <ele>174</ele>
        <time>2023-09-25T09:24:09Z</time>
      </trkpt>
      <trkpt lat="44.80032" lon="1.65883">
        <ele>173.5</ele>
        <time>2023-09-25T09:24:15.282Z</time>
      </trkpt>
      <trkpt lat="44.80029" lon="1.65891">
        <ele>172.9</ele>
        <time>2023-09-25T09:24:21Z</time>
      </trkpt>
      <trkpt lat="44.80032" lon="1.659">
        <ele>175.8</ele>
        <time>2023-09-25T09:24:28.555Z</time>
      </trkpt>
      <trkpt lat="44.80034" lon="1.65908">
        <ele>178.8</ele>
        <time>2023-09-25T09:24:35Z</time>
      </trkpt>
      <trkpt lat="44.80033" lon="1.65915">
        <ele>179.7</ele>
        <time>2023-09-25T09:24:43.297Z</time>
      </trkpt>
      <trkpt lat="44.80031" lon="1.65921">
        <ele>180.9</ele>
        <time>2023-09-25T09:24:51Z</time>
      </trkpt>
      <trkpt lat="44.80027" lon="1.65927">
        <ele>181.1</ele>
        <time>2023-09-25T09:24:56.999Z</time>
      </trkpt>
      <trkpt lat="44.80023" lon="1.65933">
        <ele>181.6</ele>
        <time>2023-09-25T09:25:03Z</time>
      </trkpt>
      <trkpt lat="44.80018" lon="1.65938">
        <ele>180.9</ele>
        <time>2023-09-25T09:25:08.499Z</time>
      </trkpt>
      <trkpt lat="44.80013" lon="1.65943">
        <ele>179.8</ele>
        <time>2023-09-25T09:25:14Z</time>
      </trkpt>
      <trkpt lat="44.80009" lon="1.65948">
        <ele>179.2</ele>
        <time>2023-09-25T09:25:19.737Z</time>
      </trkpt>
      <trkpt lat="44.80005" lon="1.65952">
        <ele>178.7</ele>
        <time>2023-09-25T09:25:25Z</time>
      </trkpt>
      <trkpt lat="44.79997" lon="1.65957">
        <ele>177.1</ele>
        <time>2023-09-25T09:25:40Z</time>
      </trkpt>
      <trkpt lat="44.79991" lon="1.65964">
        <ele>177.5</ele>
        <time>2023-09-25T09:25:47.999Z</time>
      </trkpt>
      <trkpt lat="44.79985" lon="1.65971">
        <ele>177</ele>
        <time>2023-09-25T09:25:56Z</time>
      </trkpt>
      <trkpt lat="44.79982" lon="1.65977">
        <ele>176.8</ele>
        <time>2023-09-25T09:26:01.499Z</time>
      </trkpt>
      <trkpt lat="44.79979" lon="1.65983">
        <ele>176.2</ele>
        <time>2023-09-25T09:26:07Z</time>
      </trkpt>
      <trkpt lat="44.79975" lon="1.65991">
        <ele>174.8</ele>
        <time>2023-09-25T09:26:12.743Z</time>
      </trkpt>
      <trkpt lat="44.7997" lon="1.65999">
        <ele>174</ele>
        <time>2023-09-25T09:26:19Z</time>
      </trkpt>
      <trkpt lat="44.79968" lon="1.6601">
        <ele>174.3</ele>
        <time>2023-09-25T09:26:31Z</time>
      </trkpt>
      <trkpt lat="44.79967" lon="1.66017">
        <ele>174.4</ele>
        <time>2023-09-25T09:26:36.348Z</time>
      </trkpt>
      <trkpt lat="44.79965" lon="1.66024">
        <ele>174.4</ele>
        <time>2023-09-25T09:26:42Z</time>
      </trkpt>
      <trkpt lat="44.79962" lon="1.66035">
        <ele>174.7</ele>
        <time>2023-09-25T09:26:49.598Z</time>
      </trkpt>
      <trkpt lat="44.79958" lon="1.66045">
        <ele>174.9</ele>
        <time>2023-09-25T09:26:57Z</time>
      </trkpt>
      <trkpt lat="44.79956" lon="1.66054">
        <ele>174.9</ele>
        <time>2023-09-25T09:27:02.613Z</time>
      </trkpt>
      <trkpt lat="44.79953" lon="1.66062">
        <ele>175.1</ele>
        <time>2023-09-25T09:27:08Z</time>
      </trkpt>
      <trkpt lat="44.79951" lon="1.66074">
        <ele>175.5</ele>
        <time>2023-09-25T09:27:14.499Z</time>
      </trkpt>
      <trkpt lat="44.79949" lon="1.66086">
        <ele>175.6</ele>
        <time>2023-09-25T09:27:21Z</time>
      </trkpt>
      <trkpt lat="44.79945" lon="1.66092">
        <ele>174.3</ele>
        <time>2023-09-25T09:27:26.649Z</time>
      </trkpt>
      <trkpt lat="44.7994" lon="1.66098">
        <ele>174.9</ele>
        <time>2023-09-25T09:27:33Z</time>
      </trkpt>
      <trkpt lat="44.79937" lon="1.66106">
        <ele>174.9</ele>
        <time>2023-09-25T09:27:38.499Z</time>
      </trkpt>
      <trkpt lat="44.79934" lon="1.66114">
        <ele>175.4</ele>
        <time>2023-09-25T09:27:44Z</time>
      </trkpt>
      <trkpt lat="44.79928" lon="1.66117">
        <ele>175.7</ele>
        <time>2023-09-25T09:27:49.184Z</time>
      </trkpt>
      <trkpt lat="44.79921" lon="1.66119">
        <ele>175.9</ele>
        <time>2023-09-25T09:27:55Z</time>
      </trkpt>
      <trkpt lat="44.79916" lon="1.6612">
        <ele>175.9</ele>
        <time>2023-09-25T09:27:59.552Z</time>
      </trkpt>
      <trkpt lat="44.7991" lon="1.66121">
        <ele>176.2</ele>
        <time>2023-09-25T09:28:05Z</time>
      </trkpt>
      <trkpt lat="44.79903" lon="1.66122">
        <ele>176.5</ele>
        <time>2023-09-25T09:28:11.000Z</time>
      </trkpt>
      <trkpt lat="44.79896" lon="1.66123">
        <ele>176.7</ele>
        <time>2023-09-25T09:28:17Z</time>
      </trkpt>
      <trkpt lat="44.7989" lon="1.66123">
        <ele>176.6</ele>
        <time>2023-09-25T09:28:21.484Z</time>
      </trkpt>
      <trkpt lat="44.79884" lon="1.66122">
        <ele>176.7</ele>
        <time>2023-09-25T09:28:26Z</time>
      </trkpt>
      <trkpt lat="44.79878" lon="1.66122">
        <ele>177</ele>
        <time>2023-09-25T09:28:30.500Z</time>
      </trkpt>
      <trkpt lat="44.79872" lon="1.66122">
        <ele>177.2</ele>
        <time>2023-09-25T09:28:35Z</time>
      </trkpt>
      <trkpt lat="44.79867" lon="1.66122">
        <ele>177.4</ele>
        <time>2023-09-25T09:28:40.454Z</time>
      </trkpt>
      <trkpt lat="44.79861" lon="1.66122">
        <ele>177.6</ele>
        <time>2023-09-25T09:28:47Z</time>
      </trkpt>
      <trkpt lat="44.79856" lon="1.66122">
        <ele>177.6</ele>
        <time>2023-09-25T09:28:51.528Z</time>
      </trkpt>
      <trkpt lat="44.7985" lon="1.66121">
        <ele>177.6</ele>
        <time>2023-09-25T09:28:57Z</time>
      </trkpt>
      <trkpt lat="44.79844" lon="1.66121">
        <ele>177.6</ele>
        <time>2023-09-25T09:29:02.979Z</time>
      </trkpt>
      <trkpt lat="44.79838" lon="1.6612">
        <ele>177.5</ele>
        <time>2023-09-25T09:29:09Z</time>
      </trkpt>
      <trkpt lat="44.79831" lon="1.66122">
        <ele>178</ele>
        <time>2023-09-25T09:29:14.000Z</time>
      </trkpt>
      <trkpt lat="44.79824" lon="1.66124">
        <ele>178.5</ele>
        <time>2023-09-25T09:29:19Z</time>
      </trkpt>
      <trkpt lat="44.79817" lon="1.66124">
        <ele>178.5</ele>
        <time>2023-09-25T09:29:24.485Z</time>
      </trkpt>
      <trkpt lat="44.7981" lon="1.66123">
        <ele>178.5</ele>
        <time>2023-09-25T09:29:30Z</time>
      </trkpt>
      <trkpt lat="44.79804" lon="1.66125">
        <ele>178.7</ele>
        <time>2023-09-25T09:29:34.203Z</time>
      </trkpt>
      <trkpt lat="44.79797" lon="1.66126">
        <ele>178.6</ele>
        <time>2023-09-25T09:29:39Z</time>
      </trkpt>
      <trkpt lat="44.79789" lon="1.6613">
        <ele>178.5</ele>
        <time>2023-09-25T09:29:51Z</time>
      </trkpt>
      <trkpt lat="44.79781" lon="1.66134">
        <ele>178</ele>
        <time>2023-09-25T09:29:56.999Z</time>
      </trkpt>
      <trkpt lat="44.79773" lon="1.66138">
        <ele>177.6</ele>
        <time>2023-09-25T09:30:03Z</time>
      </trkpt>
      <trkpt lat="44.79766" lon="1.6614">
        <ele>177.5</ele>
        <time>2023-09-25T09:30:08.499Z</time>
      </trkpt>
      <trkpt lat="44.79759" lon="1.66142">
        <ele>177.5</ele>
        <time>2023-09-25T09:30:14Z</time>
      </trkpt>
      <trkpt lat="44.79752" lon="1.66145">
        <ele>177.6</ele>
        <time>2023-09-25T09:30:23Z</time>
      </trkpt>
      <trkpt lat="44.79748" lon="1.66145">
        <ele>177.2</ele>
        <time>2023-09-25T09:30:27.419Z</time>
      </trkpt>
      <trkpt lat="44.79743" lon="1.66144">
        <ele>177</ele>
        <time>2023-09-25T09:30:33Z</time>
      </trkpt>
      <trkpt lat="44.79736" lon="1.66148">
        <ele>177.4</ele>
        <time>2023-09-25T09:30:38.248Z</time>
      </trkpt>
      <trkpt lat="44.79728" lon="1.66151">
        <ele>177.6</ele>
        <time>2023-09-25T09:30:44Z</time>
      </trkpt>
      <trkpt lat="44.79725" lon="1.66158">
        <ele>178.2</ele>
        <time>2023-09-25T09:30:50.478Z</time>
      </trkpt>
      <trkpt lat="44.79721" lon="1.66164">
        <ele>178.7</ele>
        <time>2023-09-25T09:30:57Z</time>
      </trkpt>
      <trkpt lat="44.79725" lon="1.66167">
        <ele>179.4</ele>
        <time>2023-09-25T09:31:21Z</time>
      </trkpt>
      <trkpt lat="44.79727" lon="1.66163">
        <ele>179.1</ele>
        <time>2023-09-25T09:31:54Z</time>
      </trkpt>
      <trkpt lat="44.79722" lon="1.66165">
        <ele>178.8</ele>
        <time>2023-09-25T09:32:05.665Z</time>
      </trkpt>
      <trkpt lat="44.79717" lon="1.66166">
        <ele>178.8</ele>
        <time>2023-09-25T09:32:17Z</time>
      </trkpt>
      <trkpt lat="44.79712" lon="1.6617">
        <ele>179.4</ele>
        <time>2023-09-25T09:32:26.767Z</time>
      </trkpt>
      <trkpt lat="44.79707" lon="1.66173">
        <ele>179.9</ele>
        <time>2023-09-25T09:32:36Z</time>
      </trkpt>
      <trkpt lat="44.79707" lon="1.66178">
        <ele>181</ele>
        <time>2023-09-25T09:33:17Z</time>
      </trkpt>
      <trkpt lat="44.79703" lon="1.66169">
        <ele>178.8</ele>
        <time>2023-09-25T09:33:46Z</time>
      </trkpt>
      <trkpt lat="44.797" lon="1.6616">
        <ele>178.2</ele>
        <time>2023-09-25T09:34:05Z</time>
      </trkpt>
      <trkpt lat="44.79702" lon="1.6616">
        <ele>178.3</ele>
        <time>2023-09-25T09:34:23Z</time>
      </trkpt>
      <trkpt lat="44.79698" lon="1.66157">
        <ele>178.3</ele>
        <time>2023-09-25T09:34:29.722Z</time>
      </trkpt>
      <trkpt lat="44.79694" lon="1.66153">
        <ele>178.6</ele>
        <time>2023-09-25T09:34:37Z</time>
      </trkpt>
      <trkpt lat="44.79692" lon="1.66147">
        <ele>179.2</ele>
        <time>2023-09-25T09:34:42.999Z</time>
      </trkpt>
      <trkpt lat="44.7969" lon="1.66141">
        <ele>180.2</ele>
        <time>2023-09-25T09:34:49Z</time>
      </trkpt>
      <trkpt lat="44.79695" lon="1.66137">
        <ele>180.1</ele>
        <time>2023-09-25T09:34:55.217Z</time>
      </trkpt>
      <trkpt lat="44.79699" lon="1.66132">
        <ele>181.6</ele>
        <time>2023-09-25T09:35:01Z</time>
      </trkpt>
      <trkpt lat="44.79705" lon="1.66129">
        <ele>182.2</ele>
        <time>2023-09-25T09:35:07.364Z</time>
      </trkpt>
      <trkpt lat="44.79711" lon="1.66125">
        <ele>182.5</ele>
        <time>2023-09-25T09:35:14Z</time>
      </trkpt>
      <trkpt lat="44.79717" lon="1.66122">
        <ele>182.7</ele>
        <time>2023-09-25T09:35:20.364Z</time>
      </trkpt>
      <trkpt lat="44.79723" lon="1.66118">
        <ele>182.7</ele>
        <time>2023-09-25T09:35:27Z</time>
      </trkpt>
      <trkpt lat="44.79727" lon="1.66109">
        <ele>185</ele>
        <time>2023-09-25T09:35:41Z</time>
      </trkpt>
      <trkpt lat="44.79721" lon="1.66106">
        <ele>187.9</ele>
        <time>2023-09-25T09:35:48.317Z</time>
      </trkpt>
      <trkpt lat="44.79714" lon="1.66102">
        <ele>191</ele>
        <time>2023-09-25T09:35:57Z</time>
      </trkpt>
      <trkpt lat="44.79706" lon="1.66105">
        <ele>191.7</ele>
        <time>2023-09-25T09:36:13Z</time>
      </trkpt>
      <trkpt lat="44.79701" lon="1.66104">
        <ele>193.8</ele>
        <time>2023-09-25T09:36:21.104Z</time>
      </trkpt>
      <trkpt lat="44.79695" lon="1.66102">
        <ele>195.8</ele>
        <time>2023-09-25T09:36:31Z</time>
      </trkpt>
      <trkpt lat="44.7969" lon="1.66104">
        <ele>196.7</ele>
        <time>2023-09-25T09:36:39.323Z</time>
      </trkpt>
      <trkpt lat="44.79684" lon="1.66105">
        <ele>197.6</ele>
        <time>2023-09-25T09:36:49Z</time>
      </trkpt>
      <trkpt lat="44.7968" lon="1.66105">
        <ele>198.9</ele>
        <time>2023-09-25T09:36:58.333Z</time>
      </trkpt>
      <trkpt lat="44.79675" lon="1.66105">
        <ele>200.2</ele>
        <time>2023-09-25T09:37:10Z</time>
      </trkpt>
      <trkpt lat="44.7967" lon="1.66105">
        <ele>201.7</ele>
        <time>2023-09-25T09:37:47Z</time>
      </trkpt>
      <trkpt lat="44.79674" lon="1.66104">
        <ele>201</ele>
        <time>2023-09-25T09:38:10Z</time>
      </trkpt>
      <trkpt lat="44.7967" lon="1.66105">
        <ele>202</ele>
        <time>2023-09-25T09:38:27.482Z</time>
      </trkpt>
      <trkpt lat="44.79665" lon="1.66105">
        <ele>203.2</ele>
        <time>2023-09-25T09:38:49Z</time>
      </trkpt>
      <trkpt lat="44.79659" lon="1.66104">
        <ele>205.6</ele>
        <time>2023-09-25T09:39:15Z</time>
      </trkpt>
      <trkpt lat="44.79651" lon="1.66104">
        <ele>208.1</ele>
        <time>2023-09-25T09:39:39Z</time>
      </trkpt>
      <trkpt lat="44.79656" lon="1.66097">
        <ele>209.6</ele>
        <time>2023-09-25T09:40:04Z</time>
      </trkpt>
      <trkpt lat="44.79661" lon="1.66087">
        <ele>212.3</ele>
        <time>2023-09-25T09:40:25Z</time>
      </trkpt>
      <trkpt lat="44.79666" lon="1.66082">
        <ele>213</ele>
        <time>2023-09-25T09:40:33.012Z</time>
      </trkpt>
      <trkpt lat="44.7967" lon="1.66077">
        <ele>214.2</ele>
        <time>2023-09-25T09:40:40Z</time>
      </trkpt>
      <trkpt lat="44.79675" lon="1.66068">
        <ele>217.2</ele>
        <time>2023-09-25T09:40:53Z</time>
      </trkpt>
      <trkpt lat="44.79679" lon="1.66063">
        <ele>218.6</ele>
        <time>2023-09-25T09:41:00.168Z</time>
      </trkpt>
      <trkpt lat="44.79683" lon="1.66057">
        <ele>220</ele>
        <time>2023-09-25T09:41:08Z</time>
      </trkpt>
      <trkpt lat="44.79689" lon="1.66048">
        <ele>223.1</ele>
        <time>2023-09-25T09:41:25Z</time>
      </trkpt>
      <trkpt lat="44.79693" lon="1.66042">
        <ele>225.3</ele>
        <time>2023-09-25T09:41:33.500Z</time>
      </trkpt>
      <trkpt lat="44.79697" lon="1.66036">
        <ele>227.5</ele>
        <time>2023-09-25T09:41:42Z</time>
      </trkpt>
      <trkpt lat="44.79701" lon="1.66032">
        <ele>228.7</ele>
        <time>2023-09-25T09:41:52.857Z</time>
      </trkpt>
      <trkpt lat="44.79704" lon="1.66028">
        <ele>229.8</ele>
        <time>2023-09-25T09:42:02Z</time>
      </trkpt>
      <trkpt lat="44.7971" lon="1.66019">
        <ele>234.9</ele>
        <time>2023-09-25T09:42:23Z</time>
      </trkpt>
      <trkpt lat="44.79712" lon="1.66012">
        <ele>239.8</ele>
        <time>2023-09-25T09:42:28.649Z</time>
      </trkpt>
      <trkpt lat="44.79714" lon="1.66004">
        <ele>244.4</ele>
        <time>2023-09-25T09:42:35Z</time>
      </trkpt>
      <trkpt lat="44.79718" lon="1.65999">
        <ele>246.1</ele>
        <time>2023-09-25T09:42:43.560Z</time>
      </trkpt>
      <trkpt lat="44.79721" lon="1.65994">
        <ele>249.8</ele>
        <time>2023-09-25T09:42:51Z</time>
      </trkpt>
      <trkpt lat="44.79726" lon="1.65993">
        <ele>249</ele>
        <time>2023-09-25T09:42:59.867Z</time>
      </trkpt>
      <trkpt lat="44.7973" lon="1.65992">
        <ele>248.3</ele>
        <time>2023-09-25T09:43:07Z</time>
      </trkpt>
      <trkpt lat="44.79735" lon="1.65992">
        <ele>246.9</ele>
        <time>2023-09-25T09:43:15.275Z</time>
      </trkpt>
      <trkpt lat="44.79739" lon="1.65991">
        <ele>245.5</ele>
        <time>2023-09-25T09:43:22Z</time>
      </trkpt>
      <trkpt lat="44.79744" lon="1.65988">
        <ele>246.6</ele>
        <time>2023-09-25T09:43:30.409Z</time>
      </trkpt>
      <trkpt lat="44.79748" lon="1.65984">
        <ele>247.2</ele>
        <time>2023-09-25T09:43:38Z</time>
      </trkpt>
      <trkpt lat="44.79753" lon="1.65979">
        <ele>249.3</ele>
        <time>2023-09-25T09:43:45.169Z</time>
      </trkpt>
      <trkpt lat="44.79757" lon="1.65973">
        <ele>251.4</ele>
        <time>2023-09-25T09:43:52Z</time>
      </trkpt>
      <trkpt lat="44.79763" lon="1.65965">
        <ele>254.3</ele>
        <time>2023-09-25T09:44:10Z</time>
      </trkpt>
      <trkpt lat="44.79767" lon="1.65961">
        <ele>255.7</ele>
        <time>2023-09-25T09:44:17.655Z</time>
      </trkpt>
      <trkpt lat="44.79771" lon="1.65956">
        <ele>257</ele>
        <time>2023-09-25T09:44:26Z</time>
      </trkpt>
      <trkpt lat="44.79776" lon="1.65953">
        <ele>257.3</ele>
        <time>2023-09-25T09:44:34.260Z</time>
      </trkpt>
      <trkpt lat="44.79781" lon="1.65949">
        <ele>258.7</ele>
        <time>2023-09-25T09:44:43Z</time>
      </trkpt>
      <trkpt lat="44.79789" lon="1.65951">
        <ele>256.9</ele>
        <time>2023-09-25T09:45:05Z</time>
      </trkpt>
      <trkpt lat="44.79797" lon="1.65952">
        <ele>255.9</ele>
        <time>2023-09-25T09:45:21Z</time>
      </trkpt>
      <trkpt lat="44.79802" lon="1.65954">
        <ele>254.9</ele>
        <time>2023-09-25T09:45:32.225Z</time>
      </trkpt>
      <trkpt lat="44.79806" lon="1.65955">
        <ele>254</ele>
        <time>2023-09-25T09:45:41Z</time>
      </trkpt>
      <trkpt lat="44.7981" lon="1.65966">
        <ele>248</ele>
        <time>2023-09-25T09:46:04Z</time>
      </trkpt>
      <trkpt lat="44.79812" lon="1.65965">
        <ele>248.4</ele>
        <time>2023-09-25T09:46:43Z</time>
      </trkpt>
      <trkpt lat="44.79815" lon="1.65975">
        <ele>242</ele>
        <time>2023-09-25T09:47:08Z</time>
      </trkpt>
      <trkpt lat="44.79814" lon="1.65969">
        <ele>245.7</ele>
        <time>2023-09-25T09:47:53Z</time>
      </trkpt>
      <trkpt lat="44.79813" lon="1.65961">
        <ele>250.2</ele>
        <time>2023-09-25T09:48:40Z</time>
      </trkpt>
      <trkpt lat="44.7981" lon="1.65955">
        <ele>253.6</ele>
        <time>2023-09-25T09:48:52.610Z</time>
      </trkpt>
      <trkpt lat="44.79808" lon="1.65949">
        <ele>256.8</ele>
        <time>2023-09-25T09:49:04Z</time>
      </trkpt>
      <trkpt lat="44.79803" lon="1.6594">
        <ele>260.7</ele>
        <time>2023-09-25T09:49:29Z</time>
      </trkpt>
      <trkpt lat="44.79802" lon="1.65932">
        <ele>263.5</ele>
        <time>2023-09-25T09:49:53Z</time>
      </trkpt>
      <trkpt lat="44.79805" lon="1.65922">
        <ele>266.4</ele>
        <time>2023-09-25T09:50:11Z</time>
      </trkpt>
      <trkpt lat="44.79805" lon="1.65918">
        <ele>267.9</ele>
        <time>2023-09-25T09:50:45Z</time>
      </trkpt>
      <trkpt lat="44.79805" lon="1.65913">
        <ele>268.9</ele>
        <time>2023-09-25T09:51:21Z</time>
      </trkpt>
      <trkpt lat="44.79802" lon="1.65911">
        <ele>269.7</ele>
        <time>2023-09-25T09:52:08Z</time>
      </trkpt>
      <trkpt lat="44.79799" lon="1.65912">
        <ele>270</ele>
        <time>2023-09-25T09:53:08Z</time>
      </trkpt>
      <trkpt lat="44.79794" lon="1.65908">
        <ele>271.2</ele>
        <time>2023-09-25T09:55:11Z</time>
      </trkpt>
      <trkpt lat="44.79795" lon="1.65916">
        <ele>270</ele>
        <time>2023-09-25T09:55:16.854Z</time>
      </trkpt>
      <trkpt lat="44.79796" lon="1.65923">
        <ele>267.5</ele>
        <time>2023-09-25T09:55:22Z</time>
      </trkpt>
      <trkpt lat="44.79797" lon="1.65933">
        <ele>263.9</ele>
        <time>2023-09-25T09:55:39Z</time>
      </trkpt>
      <trkpt lat="44.79793" lon="1.65936">
        <ele>263.6</ele>
        <time>2023-09-25T09:55:46.452Z</time>
      </trkpt>
      <trkpt lat="44.79788" lon="1.65938">
        <ele>263.3</ele>
        <time>2023-09-25T09:55:55Z</time>
      </trkpt>
      <trkpt lat="44.79784" lon="1.65941">
        <ele>262.6</ele>
        <time>2023-09-25T09:56:49Z</time>
      </trkpt>
      <trkpt lat="44.7978" lon="1.65939">
        <ele>263.9</ele>
        <time>2023-09-25T09:56:57.091Z</time>
      </trkpt>
      <trkpt lat="44.79775" lon="1.65937">
        <ele>265.9</ele>
        <time>2023-09-25T09:57:07Z</time>
      </trkpt>
      <trkpt lat="44.7977" lon="1.65942">
        <ele>266.2</ele>
        <time>2023-09-25T09:57:13.192Z</time>
      </trkpt>
      <trkpt lat="44.79765" lon="1.65946">
        <ele>266.5</ele>
        <time>2023-09-25T09:57:19Z</time>
      </trkpt>
      <trkpt lat="44.79761" lon="1.65951">
        <ele>264.8</ele>
        <time>2023-09-25T09:57:29.499Z</time>
      </trkpt>
      <trkpt lat="44.79757" lon="1.65956">
        <ele>263.1</ele>
        <time>2023-09-25T09:57:40Z</time>
      </trkpt>
      <trkpt lat="44.7975" lon="1.65954">
        <ele>267.5</ele>
        <time>2023-09-25T09:58:23Z</time>
      </trkpt>
      <trkpt lat="44.79744" lon="1.65961">
        <ele>265.3</ele>
        <time>2023-09-25T09:58:33Z</time>
      </trkpt>
      <trkpt lat="44.79739" lon="1.65963">
        <ele>266.7</ele>
        <time>2023-09-25T09:58:38.499Z</time>
      </trkpt>
      <trkpt lat="44.79734" lon="1.65965">
        <ele>268.6</ele>
        <time>2023-09-25T09:58:44Z</time>
      </trkpt>
      <trkpt lat="44.79729" lon="1.65967">
        <ele>271.3</ele>
        <time>2023-09-25T09:58:48.574Z</time>
      </trkpt>
      <trkpt lat="44.79723" lon="1.65969">
        <ele>274.5</ele>
        <time>2023-09-25T09:58:54Z</time>
      </trkpt>
      <trkpt lat="44.79719" lon="1.65974">
        <ele>273.2</ele>
        <time>2023-09-25T09:58:58.192Z</time>
      </trkpt>
      <trkpt lat="44.79714" lon="1.65979">
        <ele>268.5</ele>
        <time>2023-09-25T09:59:03Z</time>
      </trkpt>
      <trkpt lat="44.7971" lon="1.65981">
        <ele>267.5</ele>
        <time>2023-09-25T09:59:08.394Z</time>
      </trkpt>
      <trkpt lat="44.79705" lon="1.65983">
        <ele>266.9</ele>
        <time>2023-09-25T09:59:15Z</time>
      </trkpt>
      <trkpt lat="44.79701" lon="1.65985">
        <ele>266.7</ele>
        <time>2023-09-25T09:59:19.045Z</time>
      </trkpt>
      <trkpt lat="44.79696" lon="1.65987">
        <ele>266.9</ele>
        <time>2023-09-25T09:59:24Z</time>
      </trkpt>
      <trkpt lat="44.79691" lon="1.6599">
        <ele>267.1</ele>
        <time>2023-09-25T09:59:33.200Z</time>
      </trkpt>
      <trkpt lat="44.79686" lon="1.65992">
        <ele>267.6</ele>
        <time>2023-09-25T09:59:42Z</time>
      </trkpt>
      <trkpt lat="44.79681" lon="1.65993">
        <ele>269.3</ele>
        <time>2023-09-25T09:59:46.097Z</time>
      </trkpt>
      <trkpt lat="44.79675" lon="1.65994">
        <ele>271.1</ele>
        <time>2023-09-25T09:59:51Z</time>
      </trkpt>
      <trkpt lat="44.7967" lon="1.65996">
        <ele>273.1</ele>
        <time>2023-09-25T09:59:55.624Z</time>
      </trkpt>
      <trkpt lat="44.79664" lon="1.65997">
        <ele>274.3</ele>
        <time>2023-09-25T10:00:01Z</time>
      </trkpt>
      <trkpt lat="44.79659" lon="1.65999">
        <ele>274.4</ele>
        <time>2023-09-25T10:00:05.057Z</time>
      </trkpt>
      <trkpt lat="44.79654" lon="1.66">
        <ele>274.5</ele>
        <time>2023-09-25T10:00:09Z</time>
      </trkpt>
      <trkpt lat="44.7965" lon="1.66002">
        <ele>273.3</ele>
        <time>2023-09-25T10:00:12.653Z</time>
      </trkpt>
      <trkpt lat="44.79645" lon="1.66003">
        <ele>272.4</ele>
        <time>2023-09-25T10:00:17Z</time>
      </trkpt>
      <trkpt lat="44.79641" lon="1.66006">
        <ele>271</ele>
        <time>2023-09-25T10:00:20.726Z</time>
      </trkpt>
      <trkpt lat="44.79636" lon="1.66008">
        <ele>270.1</ele>
        <time>2023-09-25T10:00:25Z</time>
      </trkpt>
      <trkpt lat="44.79632" lon="1.66013">
        <ele>268.2</ele>
        <time>2023-09-25T10:00:29.499Z</time>
      </trkpt>
      <trkpt lat="44.79628" lon="1.66018">
        <ele>267.3</ele>
        <time>2023-09-25T10:00:34Z</time>
      </trkpt>
      <trkpt lat="44.79623" lon="1.66021">
        <ele>268.4</ele>
        <time>2023-09-25T10:00:38.499Z</time>
      </trkpt>
      <trkpt lat="44.79618" lon="1.66024">
        <ele>270.3</ele>
        <time>2023-09-25T10:00:43Z</time>
      </trkpt>
      <trkpt lat="44.79614" lon="1.66028">
        <ele>272.5</ele>
        <time>2023-09-25T10:00:47.269Z</time>
      </trkpt>
      <trkpt lat="44.79609" lon="1.66031">
        <ele>271.5</ele>
        <time>2023-09-25T10:00:52Z</time>
      </trkpt>
      <trkpt lat="44.79606" lon="1.66037">
        <ele>268.1</ele>
        <time>2023-09-25T10:00:56.440Z</time>
      </trkpt>
      <trkpt lat="44.79602" lon="1.66042">
        <ele>265.9</ele>
        <time>2023-09-25T10:01:01Z</time>
      </trkpt>
      <trkpt lat="44.79595" lon="1.66048">
        <ele>266.8</ele>
        <time>2023-09-25T10:01:09Z</time>
      </trkpt>
      <trkpt lat="44.79592" lon="1.66055">
        <ele>267.1</ele>
        <time>2023-09-25T10:01:12.811Z</time>
      </trkpt>
      <trkpt lat="44.79588" lon="1.66062">
        <ele>265.9</ele>
        <time>2023-09-25T10:01:17Z</time>
      </trkpt>
      <trkpt lat="44.79585" lon="1.66068">
        <ele>265</ele>
        <time>2023-09-25T10:01:20.770Z</time>
      </trkpt>
      <trkpt lat="44.79581" lon="1.66074">
        <ele>263.1</ele>
        <time>2023-09-25T10:01:25Z</time>
      </trkpt>
      <trkpt lat="44.79578" lon="1.66079">
        <ele>262.5</ele>
        <time>2023-09-25T10:01:29.378Z</time>
      </trkpt>
      <trkpt lat="44.79574" lon="1.66083">
        <ele>262.5</ele>
        <time>2023-09-25T10:01:34Z</time>
      </trkpt>
      <trkpt lat="44.7957" lon="1.66086">
        <ele>263.9</ele>
        <time>2023-09-25T10:01:37.999Z</time>
      </trkpt>
      <trkpt lat="44.79566" lon="1.66089">
        <ele>265.4</ele>
        <time>2023-09-25T10:01:42Z</time>
      </trkpt>
      <trkpt lat="44.79562" lon="1.66095">
        <ele>266.2</ele>
        <time>2023-09-25T10:01:47.221Z</time>
      </trkpt>
      <trkpt lat="44.79558" lon="1.661">
        <ele>267.5</ele>
        <time>2023-09-25T10:01:52Z</time>
      </trkpt>
      <trkpt lat="44.79554" lon="1.66106">
        <ele>268</ele>
        <time>2023-09-25T10:01:56.999Z</time>
      </trkpt>
      <trkpt lat="44.7955" lon="1.66112">
        <ele>267</ele>
        <time>2023-09-25T10:02:02Z</time>
      </trkpt>
      <trkpt lat="44.79547" lon="1.66118">
        <ele>265</ele>
        <time>2023-09-25T10:02:06.934Z</time>
      </trkpt>
      <trkpt lat="44.79543" lon="1.66123">
        <ele>264</ele>
        <time>2023-09-25T10:02:12Z</time>
      </trkpt>
      <trkpt lat="44.79539" lon="1.6613">
        <ele>264.6</ele>
        <time>2023-09-25T10:02:16.926Z</time>
      </trkpt>
      <trkpt lat="44.79534" lon="1.66136">
        <ele>266.9</ele>
        <time>2023-09-25T10:02:22Z</time>
      </trkpt>
      <trkpt lat="44.7953" lon="1.66144">
        <ele>267</ele>
        <time>2023-09-25T10:02:27.734Z</time>
      </trkpt>
      <trkpt lat="44.79526" lon="1.66151">
        <ele>264</ele>
        <time>2023-09-25T10:02:33Z</time>
      </trkpt>
      <trkpt lat="44.79522" lon="1.66158">
        <ele>261.1</ele>
        <time>2023-09-25T10:02:37.275Z</time>
      </trkpt>
      <trkpt lat="44.79517" lon="1.66165">
        <ele>260</ele>
        <time>2023-09-25T10:02:42Z</time>
      </trkpt>
      <trkpt lat="44.79514" lon="1.66172">
        <ele>259.6</ele>
        <time>2023-09-25T10:02:46.484Z</time>
      </trkpt>
      <trkpt lat="44.7951" lon="1.66178">
        <ele>260.3</ele>
        <time>2023-09-25T10:02:51Z</time>
      </trkpt>
      <trkpt lat="44.79507" lon="1.66184">
        <ele>262.4</ele>
        <time>2023-09-25T10:02:55.934Z</time>
      </trkpt>
      <trkpt lat="44.79503" lon="1.66189">
        <ele>265.6</ele>
        <time>2023-09-25T10:03:01Z</time>
      </trkpt>
      <trkpt lat="44.795" lon="1.66193">
        <ele>269.2</ele>
        <time>2023-09-25T10:03:05.114Z</time>
      </trkpt>
      <trkpt lat="44.79496" lon="1.66197">
        <ele>265.6</ele>
        <time>2023-09-25T10:03:10Z</time>
      </trkpt>
      <trkpt lat="44.79492" lon="1.66201">
        <ele>262.4</ele>
        <time>2023-09-25T10:03:14.269Z</time>
      </trkpt>
      <trkpt lat="44.79487" lon="1.66204">
        <ele>260.8</ele>
        <time>2023-09-25T10:03:19Z</time>
      </trkpt>
      <trkpt lat="44.79482" lon="1.66202">
        <ele>265.1</ele>
        <time>2023-09-25T10:03:24.377Z</time>
      </trkpt>
      <trkpt lat="44.79477" lon="1.66199">
        <ele>268</ele>
        <time>2023-09-25T10:03:30Z</time>
      </trkpt>
      <trkpt lat="44.79474" lon="1.66194">
        <ele>270</ele>
        <time>2023-09-25T10:03:35.114Z</time>
      </trkpt>
      <trkpt lat="44.7947" lon="1.66189">
        <ele>269.9</ele>
        <time>2023-09-25T10:03:41Z</time>
      </trkpt>
      <trkpt lat="44.79466" lon="1.66184">
        <ele>269.8</ele>
        <time>2023-09-25T10:03:45.936Z</time>
      </trkpt>
      <trkpt lat="44.79461" lon="1.66178">
        <ele>270</ele>
        <time>2023-09-25T10:03:52Z</time>
      </trkpt>
      <trkpt lat="44.79456" lon="1.66174">
        <ele>270.5</ele>
        <time>2023-09-25T10:03:59.743Z</time>
      </trkpt>
      <trkpt lat="44.79451" lon="1.66169">
        <ele>271.4</ele>
        <time>2023-09-25T10:04:08Z</time>
      </trkpt>
      <trkpt lat="44.79445" lon="1.66171">
        <ele>270.6</ele>
        <time>2023-09-25T10:04:15.412Z</time>
      </trkpt>
      <trkpt lat="44.79438" lon="1.66173">
        <ele>270.4</ele>
        <time>2023-09-25T10:04:24Z</time>
      </trkpt>
      <trkpt lat="44.79432" lon="1.66179">
        <ele>269.9</ele>
        <time>2023-09-25T10:04:31.569Z</time>
      </trkpt>
      <trkpt lat="44.79425" lon="1.66185">
        <ele>270.2</ele>
        <time>2023-09-25T10:04:40Z</time>
      </trkpt>
      <trkpt lat="44.7942" lon="1.66194">
        <ele>271.1</ele>
        <time>2023-09-25T10:04:47.431Z</time>
      </trkpt>
      <trkpt lat="44.79414" lon="1.66202">
        <ele>269</ele>
        <time>2023-09-25T10:04:55Z</time>
      </trkpt>
      <trkpt lat="44.7941" lon="1.66212">
        <ele>266.3</ele>
        <time>2023-09-25T10:05:02.516Z</time>
      </trkpt>
      <trkpt lat="44.79405" lon="1.66221">
        <ele>264.9</ele>
        <time>2023-09-25T10:05:10Z</time>
      </trkpt>
      <trkpt lat="44.79403" lon="1.66223">
        <ele>265.4</ele>
        <time>2023-09-25T10:05:44Z</time>
      </trkpt>
      <trkpt lat="44.79408" lon="1.66226">
        <ele>263.4</ele>
        <time>2023-09-25T10:05:57.000Z</time>
      </trkpt>
      <trkpt lat="44.79413" lon="1.66229">
        <ele>261.4</ele>
        <time>2023-09-25T10:06:10Z</time>
      </trkpt>
      <trkpt lat="44.79419" lon="1.66233">
        <ele>258.6</ele>
        <time>2023-09-25T10:06:31Z</time>
      </trkpt>
      <trkpt lat="44.79424" lon="1.66224">
        <ele>256.6</ele>
        <time>2023-09-25T10:06:51Z</time>
      </trkpt>
      <trkpt lat="44.79422" lon="1.66236">
        <ele>256.5</ele>
        <time>2023-09-25T10:07:11Z</time>
      </trkpt>
      <trkpt lat="44.79418" lon="1.66242">
        <ele>259</ele>
        <time>2023-09-25T10:07:26Z</time>
      </trkpt>
      <trkpt lat="44.7941" lon="1.66243">
        <ele>262.5</ele>
        <time>2023-09-25T10:07:41Z</time>
      </trkpt>
      <trkpt lat="44.79403" lon="1.66247">
        <ele>265</ele>
        <time>2023-09-25T10:08:08Z</time>
      </trkpt>
      <trkpt lat="44.79403" lon="1.6624">
        <ele>265.3</ele>
        <time>2023-09-25T10:08:16.415Z</time>
      </trkpt>
      <trkpt lat="44.79402" lon="1.66233">
        <ele>265.6</ele>
        <time>2023-09-25T10:08:25Z</time>
      </trkpt>
      <trkpt lat="44.794" lon="1.66232">
        <ele>266.4</ele>
        <time>2023-09-25T10:09:01Z</time>
      </trkpt>
      <trkpt lat="44.79401" lon="1.66241">
        <ele>266</ele>
        <time>2023-09-25T10:09:08.545Z</time>
      </trkpt>
      <trkpt lat="44.79401" lon="1.6625">
        <ele>265.6</ele>
        <time>2023-09-25T10:09:16Z</time>
      </trkpt>
      <trkpt lat="44.794" lon="1.66257">
        <ele>264.3</ele>
        <time>2023-09-25T10:09:22.320Z</time>
      </trkpt>
      <trkpt lat="44.79398" lon="1.66264">
        <ele>263.4</ele>
        <time>2023-09-25T10:09:29Z</time>
      </trkpt>
      <trkpt lat="44.79395" lon="1.66272">
        <ele>264.1</ele>
        <time>2023-09-25T10:09:36.879Z</time>
      </trkpt>
      <trkpt lat="44.79392" lon="1.66279">
        <ele>265.6</ele>
        <time>2023-09-25T10:09:44Z</time>
      </trkpt>
      <trkpt lat="44.79388" lon="1.66288">
        <ele>267</ele>
        <time>2023-09-25T10:09:51.285Z</time>
      </trkpt>
      <trkpt lat="44.79384" lon="1.66296">
        <ele>265.6</ele>
        <time>2023-09-25T10:09:58Z</time>
      </trkpt>
      <trkpt lat="44.79381" lon="1.66306">
        <ele>264.4</ele>
        <time>2023-09-25T10:10:04.785Z</time>
      </trkpt>
      <trkpt lat="44.79378" lon="1.66315">
        <ele>257.5</ele>
        <time>2023-09-25T10:10:11Z</time>
      </trkpt>
      <trkpt lat="44.79376" lon="1.66323">
        <ele>253.8</ele>
        <time>2023-09-25T10:10:17.618Z</time>
      </trkpt>
      <trkpt lat="44.79373" lon="1.6633">
        <ele>251.7</ele>
        <time>2023-09-25T10:10:24Z</time>
      </trkpt>
      <trkpt lat="44.79371" lon="1.66342">
        <ele>251.3</ele>
        <time>2023-09-25T10:10:31.873Z</time>
      </trkpt>
      <trkpt lat="44.79368" lon="1.66354">
        <ele>252.7</ele>
        <time>2023-09-25T10:10:40Z</time>
      </trkpt>
      <trkpt lat="44.79365" lon="1.66363">
        <ele>256.2</ele>
        <time>2023-09-25T10:10:46.769Z</time>
      </trkpt>
      <trkpt lat="44.79361" lon="1.66372">
        <ele>256.4</ele>
        <time>2023-09-25T10:10:54Z</time>
      </trkpt>
      <trkpt lat="44.79359" lon="1.66381">
        <ele>251.6</ele>
        <time>2023-09-25T10:10:59.999Z</time>
      </trkpt>
      <trkpt lat="44.79357" lon="1.6639">
        <ele>247.3</ele>
        <time>2023-09-25T10:11:06Z</time>
      </trkpt>
      <trkpt lat="44.79354" lon="1.66396">
        <ele>245.7</ele>
        <time>2023-09-25T10:11:13.399Z</time>
      </trkpt>
      <trkpt lat="44.79351" lon="1.66401">
        <ele>245</ele>
        <time>2023-09-25T10:11:20Z</time>
      </trkpt>
      <trkpt lat="44.79347" lon="1.66407">
        <ele>245.4</ele>
        <time>2023-09-25T10:11:23.083Z</time>
      </trkpt>
      <trkpt lat="44.79344" lon="1.66413">
        <ele>247.1</ele>
        <time>2023-09-25T10:11:25.832Z</time>
      </trkpt>
      <trkpt lat="44.7934" lon="1.66419">
        <ele>250.2</ele>
        <time>2023-09-25T10:11:28.915Z</time>
      </trkpt>
      <trkpt lat="44.79336" lon="1.66425">
        <ele>254.5</ele>
        <time>2023-09-25T10:11:32Z</time>
      </trkpt>
      <trkpt lat="44.79334" lon="1.66433">
        <ele>257</ele>
        <time>2023-09-25T10:11:37.821Z</time>
      </trkpt>
      <trkpt lat="44.79332" lon="1.6644">
        <ele>258.2</ele>
        <time>2023-09-25T10:11:43Z</time>
      </trkpt>
      <trkpt lat="44.79329" lon="1.66447">
        <ele>258.6</ele>
        <time>2023-09-25T10:11:49.669Z</time>
      </trkpt>
      <trkpt lat="44.79325" lon="1.66454">
        <ele>258.8</ele>
        <time>2023-09-25T10:11:57Z</time>
      </trkpt>
      <trkpt lat="44.79319" lon="1.66462">
        <ele>259.8</ele>
        <time>2023-09-25T10:12:04.499Z</time>
      </trkpt>
      <trkpt lat="44.79313" lon="1.6647">
        <ele>261.1</ele>
        <time>2023-09-25T10:12:12Z</time>
      </trkpt>
      <trkpt lat="44.79309" lon="1.66473">
        <ele>262.2</ele>
        <time>2023-09-25T10:12:21.315Z</time>
      </trkpt>
      <trkpt lat="44.79304" lon="1.66475">
        <ele>262.9</ele>
        <time>2023-09-25T10:12:32Z</time>
      </trkpt>
      <trkpt lat="44.79299" lon="1.66478">
        <ele>263.6</ele>
        <time>2023-09-25T10:12:38.558Z</time>
      </trkpt>
      <trkpt lat="44.79293" lon="1.6648">
        <ele>264.4</ele>
        <time>2023-09-25T10:12:46Z</time>
      </trkpt>
      <trkpt lat="44.79288" lon="1.66485">
        <ele>265</ele>
        <time>2023-09-25T10:12:54.256Z</time>
      </trkpt>
      <trkpt lat="44.79283" lon="1.66489">
        <ele>265.6</ele>
        <time>2023-09-25T10:13:02Z</time>
      </trkpt>
      <trkpt lat="44.79279" lon="1.66497">
        <ele>266.1</ele>
        <time>2023-09-25T10:13:11.926Z</time>
      </trkpt>
      <trkpt lat="44.79274" lon="1.66504">
        <ele>265.3</ele>
        <time>2023-09-25T10:13:22Z</time>
      </trkpt>
      <trkpt lat="44.79271" lon="1.6651">
        <ele>264.2</ele>
        <time>2023-09-25T10:13:24.668Z</time>
      </trkpt>
      <trkpt lat="44.79268" lon="1.66516">
        <ele>263.6</ele>
        <time>2023-09-25T10:13:27.337Z</time>
      </trkpt>
      <trkpt lat="44.79264" lon="1.66522">
        <ele>263.5</ele>
        <time>2023-09-25T10:13:30.330Z</time>
      </trkpt>
      <trkpt lat="44.79261" lon="1.66528">
        <ele>263.8</ele>
        <time>2023-09-25T10:13:33Z</time>
      </trkpt>
      <trkpt lat="44.79258" lon="1.66534">
        <ele>263.6</ele>
        <time>2023-09-25T10:13:40.399Z</time>
      </trkpt>
      <trkpt lat="44.79255" lon="1.66539">
        <ele>263.5</ele>
        <time>2023-09-25T10:13:47Z</time>
      </trkpt>
      <trkpt lat="44.7925" lon="1.66544">
        <ele>264.9</ele>
        <time>2023-09-25T10:13:53.499Z</time>
      </trkpt>
      <trkpt lat="44.79245" lon="1.66549">
        <ele>264.8</ele>
        <time>2023-09-25T10:14:00Z</time>
      </trkpt>
      <trkpt lat="44.79243" lon="1.66555">
        <ele>264.2</ele>
        <time>2023-09-25T10:14:03.621Z</time>
      </trkpt>
      <trkpt lat="44.79241" lon="1.66561">
        <ele>264.2</ele>
        <time>2023-09-25T10:14:07.242Z</time>
      </trkpt>
      <trkpt lat="44.79239" lon="1.66566">
        <ele>264.3</ele>
        <time>2023-09-25T10:14:10.378Z</time>
      </trkpt>
      <trkpt lat="44.79237" lon="1.66572">
        <ele>264.5</ele>
        <time>2023-09-25T10:14:14Z</time>
      </trkpt>
      <trkpt lat="44.79237" lon="1.66583">
        <ele>263.9</ele>
        <time>2023-09-25T10:14:19.975Z</time>
      </trkpt>
      <trkpt lat="44.79236" lon="1.66594">
        <ele>265.2</ele>
        <time>2023-09-25T10:14:26Z</time>
      </trkpt>
      <trkpt lat="44.79237" lon="1.66602">
        <ele>265.9</ele>
        <time>2023-09-25T10:14:31.542Z</time>
      </trkpt>
      <trkpt lat="44.79237" lon="1.6661">
        <ele>266.7</ele>
        <time>2023-09-25T10:14:37Z</time>
      </trkpt>
      <trkpt lat="44.79241" lon="1.66618">
        <ele>267.4</ele>
        <time>2023-09-25T10:14:42.715Z</time>
      </trkpt>
      <trkpt lat="44.79244" lon="1.66626">
        <ele>268.5</ele>
        <time>2023-09-25T10:14:48Z</time>
      </trkpt>
      <trkpt lat="44.79249" lon="1.66635">
        <ele>270.1</ele>
        <time>2023-09-25T10:15:01Z</time>
      </trkpt>
      <trkpt lat="44.79255" lon="1.66638">
        <ele>270.6</ele>
        <time>2023-09-25T10:15:08.157Z</time>
      </trkpt>
      <trkpt lat="44.7926" lon="1.6664">
        <ele>271.1</ele>
        <time>2023-09-25T10:15:14Z</time>
      </trkpt>
      <trkpt lat="44.79265" lon="1.66645">
        <ele>271.3</ele>
        <time>2023-09-25T10:15:20.500Z</time>
      </trkpt>
      <trkpt lat="44.7927" lon="1.6665">
        <ele>271.5</ele>
        <time>2023-09-25T10:15:27Z</time>
      </trkpt>
      <trkpt lat="44.79276" lon="1.66656">
        <ele>271.7</ele>
        <time>2023-09-25T10:15:33.500Z</time>
      </trkpt>
      <trkpt lat="44.79282" lon="1.66662">
        <ele>268.3</ele>
        <time>2023-09-25T10:15:40Z</time>
      </trkpt>
      <trkpt lat="44.79287" lon="1.66667">
        <ele>264.4</ele>
        <time>2023-09-25T10:15:45.500Z</time>
      </trkpt>
      <trkpt lat="44.79292" lon="1.66672">
        <ele>261.3</ele>
        <time>2023-09-25T10:15:51Z</time>
      </trkpt>
      <trkpt lat="44.79296" lon="1.66678">
        <ele>260</ele>
        <time>2023-09-25T10:15:56.569Z</time>
      </trkpt>
      <trkpt lat="44.79299" lon="1.66683">
        <ele>259.1</ele>
        <time>2023-09-25T10:16:01Z</time>
      </trkpt>
      <trkpt lat="44.793" lon="1.66686">
        <ele>258.9</ele>
        <time>2023-09-25T10:16:24Z</time>
      </trkpt>
      <trkpt lat="44.79302" lon="1.66692">
        <ele>260</ele>
        <time>2023-09-25T10:16:45Z</time>
      </trkpt>
      <trkpt lat="44.79303" lon="1.667">
        <ele>261.4</ele>
        <time>2023-09-25T10:16:50.038Z</time>
      </trkpt>
      <trkpt lat="44.79303" lon="1.66708">
        <ele>262.5</ele>
        <time>2023-09-25T10:16:55Z</time>
      </trkpt>
      <trkpt lat="44.79304" lon="1.66719">
        <ele>263.9</ele>
        <time>2023-09-25T10:17:11Z</time>
      </trkpt>
      <trkpt lat="44.79306" lon="1.66722">
        <ele>263.4</ele>
        <time>2023-09-25T10:17:48Z</time>
      </trkpt>
      <trkpt lat="44.79306" lon="1.66732">
        <ele>264.9</ele>
        <time>2023-09-25T10:18:06Z</time>
      </trkpt>
      <trkpt lat="44.79305" lon="1.6674">
        <ele>266.8</ele>
        <time>2023-09-25T10:18:10.402Z</time>
      </trkpt>
      <trkpt lat="44.79303" lon="1.66748">
        <ele>268.1</ele>
        <time>2023-09-25T10:18:15Z</time>
      </trkpt>
      <trkpt lat="44.79302" lon="1.66755">
        <ele>268.4</ele>
        <time>2023-09-25T10:18:20.499Z</time>
      </trkpt>
      <trkpt lat="44.79301" lon="1.66762">
        <ele>268.3</ele>
        <time>2023-09-25T10:18:26Z</time>
      </trkpt>
      <trkpt lat="44.79296" lon="1.66772">
        <ele>268.9</ele>
        <time>2023-09-25T10:18:37Z</time>
      </trkpt>
      <trkpt lat="44.79291" lon="1.66779">
        <ele>269.1</ele>
        <time>2023-09-25T10:18:42.225Z</time>
      </trkpt>
      <trkpt lat="44.79285" lon="1.66786">
        <ele>268.1</ele>
        <time>2023-09-25T10:18:48Z</time>
      </trkpt>
      <trkpt lat="44.79281" lon="1.66792">
        <ele>269</ele>
        <time>2023-09-25T10:18:52.879Z</time>
      </trkpt>
      <trkpt lat="44.79276" lon="1.66797">
        <ele>270.1</ele>
        <time>2023-09-25T10:18:58Z</time>
      </trkpt>
      <trkpt lat="44.79272" lon="1.66801">
        <ele>270.3</ele>
        <time>2023-09-25T10:19:02.143Z</time>
      </trkpt>
      <trkpt lat="44.79267" lon="1.66805">
        <ele>270.6</ele>
        <time>2023-09-25T10:19:07Z</time>
      </trkpt>
      <trkpt lat="44.79262" lon="1.66812">
        <ele>267.8</ele>
        <time>2023-09-25T10:19:11.499Z</time>
      </trkpt>
      <trkpt lat="44.79257" lon="1.66819">
        <ele>266.8</ele>
        <time>2023-09-25T10:19:16Z</time>
      </trkpt>
      <trkpt lat="44.79254" lon="1.66826">
        <ele>266.7</ele>
        <time>2023-09-25T10:19:19.811Z</time>
      </trkpt>
      <trkpt lat="44.7925" lon="1.66833">
        <ele>268.1</ele>
        <time>2023-09-25T10:19:24Z</time>
      </trkpt>
      <trkpt lat="44.79245" lon="1.66838">
        <ele>264.9</ele>
        <time>2023-09-25T10:19:32Z</time>
      </trkpt>
      <trkpt lat="44.79241" lon="1.66842">
        <ele>263.5</ele>
        <time>2023-09-25T10:19:36.143Z</time>
      </trkpt>
      <trkpt lat="44.79236" lon="1.66846">
        <ele>263.3</ele>
        <time>2023-09-25T10:19:41Z</time>
      </trkpt>
      <trkpt lat="44.79228" lon="1.66849">
        <ele>266.9</ele>
        <time>2023-09-25T10:19:49Z</time>
      </trkpt>
      <trkpt lat="44.79224" lon="1.66851">
        <ele>269.6</ele>
        <time>2023-09-25T10:19:52.653Z</time>
      </trkpt>
      <trkpt lat="44.79219" lon="1.66852">
        <ele>269.7</ele>
        <time>2023-09-25T10:19:57Z</time>
      </trkpt>
      <trkpt lat="44.79215" lon="1.66856">
        <ele>268.3</ele>
        <time>2023-09-25T10:20:03.167Z</time>
      </trkpt>
      <trkpt lat="44.7921" lon="1.66859">
        <ele>266.7</ele>
        <time>2023-09-25T10:20:10Z</time>
      </trkpt>
      <trkpt lat="44.79207" lon="1.66866">
        <ele>263.3</ele>
        <time>2023-09-25T10:20:36.411Z</time>
      </trkpt>
      <trkpt lat="44.79203" lon="1.66872">
        <ele>260.1</ele>
        <time>2023-09-25T10:21:03Z</time>
      </trkpt>
      <trkpt lat="44.7921" lon="1.66872">
        <ele>259.6</ele>
        <time>2023-09-25T10:21:26Z</time>
      </trkpt>
      <trkpt lat="44.79205" lon="1.66873">
        <ele>259.5</ele>
        <time>2023-09-25T10:21:37.837Z</time>
      </trkpt>
      <trkpt lat="44.79199" lon="1.66874">
        <ele>259.7</ele>
        <time>2023-09-25T10:21:52Z</time>
      </trkpt>
      <trkpt lat="44.79202" lon="1.66872">
        <ele>260.1</ele>
        <time>2023-09-25T10:22:15Z</time>
      </trkpt>
      <trkpt lat="44.79201" lon="1.66867">
        <ele>262.1</ele>
        <time>2023-09-25T10:22:36Z</time>
      </trkpt>
      <trkpt lat="44.79202" lon="1.66874">
        <ele>259.3</ele>
        <time>2023-09-25T10:23:02Z</time>
      </trkpt>
      <trkpt lat="44.79201" lon="1.66867">
        <ele>262.1</ele>
        <time>2023-09-25T10:23:49Z</time>
      </trkpt>
      <trkpt lat="44.79201" lon="1.66867">
        <ele>262.1</ele>
        <time>2023-09-25T10:59:24Z</time>
      </trkpt>
      <trkpt lat="44.79205" lon="1.6686">
        <ele>265.5</ele>
        <time>2023-09-25T11:01:25Z</time>
      </trkpt>
      <trkpt lat="44.79203" lon="1.66848">
        <ele>267.4</ele>
        <time>2023-09-25T11:01:38Z</time>
      </trkpt>
      <trkpt lat="44.79202" lon="1.66842">
        <ele>268.5</ele>
        <time>2023-09-25T11:01:42.632Z</time>
      </trkpt>
      <trkpt lat="44.79201" lon="1.66835">
        <ele>269.6</ele>
        <time>2023-09-25T11:01:48Z</time>
      </trkpt>
      <trkpt lat="44.792" lon="1.66829">
        <ele>270.4</ele>
        <time>2023-09-25T11:01:54.949Z</time>
      </trkpt>
      <trkpt lat="44.79199" lon="1.66822">
        <ele>271.1</ele>
        <time>2023-09-25T11:02:03Z</time>
      </trkpt>
      <trkpt lat="44.79197" lon="1.66816">
        <ele>271.7</ele>
        <time>2023-09-25T11:02:07.745Z</time>
      </trkpt>
      <trkpt lat="44.79194" lon="1.6681">
        <ele>272.1</ele>
        <time>2023-09-25T11:02:13Z</time>
      </trkpt>
      <trkpt lat="44.79193" lon="1.66803">
        <ele>272.7</ele>
        <time>2023-09-25T11:02:18.499Z</time>
      </trkpt>
      <trkpt lat="44.79192" lon="1.66796">
        <ele>273</ele>
        <time>2023-09-25T11:02:24Z</time>
      </trkpt>
      <trkpt lat="44.79189" lon="1.6679">
        <ele>272.8</ele>
        <time>2023-09-25T11:02:28.999Z</time>
      </trkpt>
      <trkpt lat="44.79186" lon="1.66784">
        <ele>272.9</ele>
        <time>2023-09-25T11:02:34Z</time>
      </trkpt>
      <trkpt lat="44.79184" lon="1.66778">
        <ele>273.5</ele>
        <time>2023-09-25T11:02:39.144Z</time>
      </trkpt>
      <trkpt lat="44.79182" lon="1.66771">
        <ele>273.6</ele>
        <time>2023-09-25T11:02:45Z</time>
      </trkpt>
      <trkpt lat="44.79174" lon="1.66766">
        <ele>273.3</ele>
        <time>2023-09-25T11:02:55Z</time>
      </trkpt>
      <trkpt lat="44.79169" lon="1.66764">
        <ele>273.2</ele>
        <time>2023-09-25T11:03:00.499Z</time>
      </trkpt>
      <trkpt lat="44.79164" lon="1.66762">
        <ele>273</ele>
        <time>2023-09-25T11:03:06Z</time>
      </trkpt>
      <trkpt lat="44.7916" lon="1.66759">
        <ele>273.2</ele>
        <time>2023-09-25T11:03:10.802Z</time>
      </trkpt>
      <trkpt lat="44.79156" lon="1.66755">
        <ele>273.6</ele>
        <time>2023-09-25T11:03:16Z</time>
      </trkpt>
      <trkpt lat="44.79152" lon="1.66755">
        <ele>273.3</ele>
        <time>2023-09-25T11:03:20.444Z</time>
      </trkpt>
      <trkpt lat="44.79147" lon="1.66755">
        <ele>273.1</ele>
        <time>2023-09-25T11:03:26Z</time>
      </trkpt>
      <trkpt lat="44.7914" lon="1.66758">
        <ele>271.8</ele>
        <time>2023-09-25T11:03:36Z</time>
      </trkpt>
      <trkpt lat="44.79136" lon="1.66763">
        <ele>270.4</ele>
        <time>2023-09-25T11:03:43.301Z</time>
      </trkpt>
      <trkpt lat="44.79132" lon="1.66767">
        <ele>269.1</ele>
        <time>2023-09-25T11:03:50Z</time>
      </trkpt>
      <trkpt lat="44.79136" lon="1.66773">
        <ele>267.4</ele>
        <time>2023-09-25T11:04:31Z</time>
      </trkpt>
      <trkpt lat="44.79132" lon="1.66775">
        <ele>266.8</ele>
        <time>2023-09-25T11:05:41Z</time>
      </trkpt>
      <trkpt lat="44.79127" lon="1.66771">
        <ele>268.1</ele>
        <time>2023-09-25T11:05:49.227Z</time>
      </trkpt>
      <trkpt lat="44.79122" lon="1.66766">
        <ele>269.4</ele>
        <time>2023-09-25T11:05:58Z</time>
      </trkpt>
      <trkpt lat="44.79117" lon="1.66765">
        <ele>269.8</ele>
        <time>2023-09-25T11:06:02.952Z</time>
      </trkpt>
      <trkpt lat="44.79111" lon="1.66763">
        <ele>270.3</ele>
        <time>2023-09-25T11:06:09Z</time>
      </trkpt>
      <trkpt lat="44.79107" lon="1.66763">
        <ele>270.6</ele>
        <time>2023-09-25T11:06:17.444Z</time>
      </trkpt>
      <trkpt lat="44.79102" lon="1.66763">
        <ele>271</ele>
        <time>2023-09-25T11:06:28Z</time>
      </trkpt>
      <trkpt lat="44.79098" lon="1.66765">
        <ele>271</ele>
        <time>2023-09-25T11:06:32.944Z</time>
      </trkpt>
      <trkpt lat="44.79093" lon="1.66767">
        <ele>271.1</ele>
        <time>2023-09-25T11:06:39Z</time>
      </trkpt>
      <trkpt lat="44.79088" lon="1.66777">
        <ele>270.3</ele>
        <time>2023-09-25T11:06:48Z</time>
      </trkpt>
      <trkpt lat="44.79083" lon="1.66784">
        <ele>265.3</ele>
        <time>2023-09-25T11:07:35Z</time>
      </trkpt>
      <trkpt lat="44.79078" lon="1.66786">
        <ele>265.3</ele>
        <time>2023-09-25T11:07:39.161Z</time>
      </trkpt>
      <trkpt lat="44.79072" lon="1.66787">
        <ele>265.8</ele>
        <time>2023-09-25T11:07:44Z</time>
      </trkpt>
      <trkpt lat="44.79067" lon="1.66788">
        <ele>267.1</ele>
        <time>2023-09-25T11:07:48.570Z</time>
      </trkpt>
      <trkpt lat="44.79061" lon="1.66788">
        <ele>268.7</ele>
        <time>2023-09-25T11:07:54Z</time>
      </trkpt>
      <trkpt lat="44.79057" lon="1.66791">
        <ele>269.1</ele>
        <time>2023-09-25T11:07:57.999Z</time>
      </trkpt>
      <trkpt lat="44.79053" lon="1.66794">
        <ele>269.2</ele>
        <time>2023-09-25T11:08:02Z</time>
      </trkpt>
      <trkpt lat="44.79048" lon="1.66798">
        <ele>269.1</ele>
        <time>2023-09-25T11:08:05.999Z</time>
      </trkpt>
      <trkpt lat="44.79043" lon="1.66802">
        <ele>269.3</ele>
        <time>2023-09-25T11:08:10Z</time>
      </trkpt>
      <trkpt lat="44.79038" lon="1.66806">
        <ele>269.8</ele>
        <time>2023-09-25T11:08:13.598Z</time>
      </trkpt>
      <trkpt lat="44.79033" lon="1.66809">
        <ele>269.8</ele>
        <time>2023-09-25T11:08:17Z</time>
      </trkpt>
      <trkpt lat="44.79029" lon="1.66812">
        <ele>270.3</ele>
        <time>2023-09-25T11:08:20.260Z</time>
      </trkpt>
      <trkpt lat="44.79024" lon="1.66814">
        <ele>270</ele>
        <time>2023-09-25T11:08:24Z</time>
      </trkpt>
      <trkpt lat="44.79019" lon="1.66813">
        <ele>270.4</ele>
        <time>2023-09-25T11:08:27.642Z</time>
      </trkpt>
      <trkpt lat="44.79013" lon="1.66812">
        <ele>270.8</ele>
        <time>2023-09-25T11:08:32Z</time>
      </trkpt>
      <trkpt lat="44.79008" lon="1.66811">
        <ele>271.2</ele>
        <time>2023-09-25T11:08:36.500Z</time>
      </trkpt>
      <trkpt lat="44.79003" lon="1.6681">
        <ele>271.6</ele>
        <time>2023-09-25T11:08:41Z</time>
      </trkpt>
      <trkpt lat="44.78997" lon="1.6681">
        <ele>271.8</ele>
        <time>2023-09-25T11:08:45.500Z</time>
      </trkpt>
      <trkpt lat="44.78991" lon="1.6681">
        <ele>271.8</ele>
        <time>2023-09-25T11:08:50Z</time>
      </trkpt>
      <trkpt lat="44.78986" lon="1.6681">
        <ele>271.9</ele>
        <time>2023-09-25T11:08:55.500Z</time>
      </trkpt>
      <trkpt lat="44.78981" lon="1.6681">
        <ele>271.9</ele>
        <time>2023-09-25T11:09:01Z</time>
      </trkpt>
      <trkpt lat="44.78977" lon="1.66806">
        <ele>273</ele>
        <time>2023-09-25T11:09:05.888Z</time>
      </trkpt>
      <trkpt lat="44.78972" lon="1.66801">
        <ele>273.2</ele>
        <time>2023-09-25T11:09:12Z</time>
      </trkpt>
      <trkpt lat="44.78968" lon="1.66804">
        <ele>273.2</ele>
        <time>2023-09-25T11:09:17.123Z</time>
      </trkpt>
      <trkpt lat="44.78963" lon="1.66806">
        <ele>273.3</ele>
        <time>2023-09-25T11:09:23Z</time>
      </trkpt>
      <trkpt lat="44.78961" lon="1.66814">
        <ele>272.4</ele>
        <time>2023-09-25T11:09:28.322Z</time>
      </trkpt>
      <trkpt lat="44.78958" lon="1.66822">
        <ele>271.8</ele>
        <time>2023-09-25T11:09:34Z</time>
      </trkpt>
      <trkpt lat="44.78954" lon="1.6683">
        <ele>271.9</ele>
        <time>2023-09-25T11:09:40.776Z</time>
      </trkpt>
      <trkpt lat="44.7895" lon="1.66837">
        <ele>272.2</ele>
        <time>2023-09-25T11:09:47Z</time>
      </trkpt>
      <trkpt lat="44.78947" lon="1.66845">
        <ele>272.2</ele>
        <time>2023-09-25T11:09:51.999Z</time>
      </trkpt>
      <trkpt lat="44.78944" lon="1.66853">
        <ele>272.6</ele>
        <time>2023-09-25T11:09:57Z</time>
      </trkpt>
      <trkpt lat="44.78942" lon="1.66861">
        <ele>272.4</ele>
        <time>2023-09-25T11:10:02.821Z</time>
      </trkpt>
      <trkpt lat="44.7894" lon="1.66868">
        <ele>272.7</ele>
        <time>2023-09-25T11:10:08Z</time>
      </trkpt>
      <trkpt lat="44.78938" lon="1.66876">
        <ele>273.1</ele>
        <time>2023-09-25T11:10:13.091Z</time>
      </trkpt>
      <trkpt lat="44.78935" lon="1.66883">
        <ele>273.6</ele>
        <time>2023-09-25T11:10:18Z</time>
      </trkpt>
      <trkpt lat="44.78932" lon="1.66894">
        <ele>274.1</ele>
        <time>2023-09-25T11:10:22.684Z</time>
      </trkpt>
      <trkpt lat="44.78929" lon="1.66904">
        <ele>274.2</ele>
        <time>2023-09-25T11:10:27Z</time>
      </trkpt>
      <trkpt lat="44.78927" lon="1.66911">
        <ele>274.4</ele>
        <time>2023-09-25T11:10:31.319Z</time>
      </trkpt>
      <trkpt lat="44.78924" lon="1.66918">
        <ele>274.6</ele>
        <time>2023-09-25T11:10:36Z</time>
      </trkpt>
      <trkpt lat="44.78923" lon="1.66925">
        <ele>274.5</ele>
        <time>2023-09-25T11:10:40.375Z</time>
      </trkpt>
      <trkpt lat="44.78921" lon="1.66932">
        <ele>274.5</ele>
        <time>2023-09-25T11:10:45Z</time>
      </trkpt>
      <trkpt lat="44.78919" lon="1.6694">
        <ele>274.6</ele>
        <time>2023-09-25T11:10:49.762Z</time>
      </trkpt>
      <trkpt lat="44.78917" lon="1.66947">
        <ele>274.8</ele>
        <time>2023-09-25T11:10:54Z</time>
      </trkpt>
      <trkpt lat="44.78916" lon="1.66954">
        <ele>274.8</ele>
        <time>2023-09-25T11:10:57.999Z</time>
      </trkpt>
      <trkpt lat="44.78915" lon="1.66961">
        <ele>274.7</ele>
        <time>2023-09-25T11:11:02Z</time>
      </trkpt>
      <trkpt lat="44.78916" lon="1.66969">
        <ele>274.2</ele>
        <time>2023-09-25T11:11:07.321Z</time>
      </trkpt>
      <trkpt lat="44.78917" lon="1.66976">
        <ele>273.6</ele>
        <time>2023-09-25T11:11:12Z</time>
      </trkpt>
      <trkpt lat="44.78918" lon="1.66984">
        <ele>272.9</ele>
        <time>2023-09-25T11:11:16.030Z</time>
      </trkpt>
      <trkpt lat="44.78918" lon="1.66992">
        <ele>272.1</ele>
        <time>2023-09-25T11:11:20Z</time>
      </trkpt>
      <trkpt lat="44.78918" lon="1.66999">
        <ele>271.7</ele>
        <time>2023-09-25T11:11:27.425Z</time>
      </trkpt>
      <trkpt lat="44.78917" lon="1.67006">
        <ele>271.4</ele>
        <time>2023-09-25T11:11:35Z</time>
      </trkpt>
      <trkpt lat="44.78918" lon="1.67014">
        <ele>270.6</ele>
        <time>2023-09-25T11:11:43.515Z</time>
      </trkpt>
      <trkpt lat="44.78919" lon="1.67021">
        <ele>269.8</ele>
        <time>2023-09-25T11:11:51Z</time>
      </trkpt>
      <trkpt lat="44.78921" lon="1.67029">
        <ele>269</ele>
        <time>2023-09-25T11:11:55.343Z</time>
      </trkpt>
      <trkpt lat="44.78922" lon="1.67036">
        <ele>267.7</ele>
        <time>2023-09-25T11:11:59Z</time>
      </trkpt>
      <trkpt lat="44.78922" lon="1.67044">
        <ele>266.9</ele>
        <time>2023-09-25T11:12:03.465Z</time>
      </trkpt>
      <trkpt lat="44.78921" lon="1.67052">
        <ele>266.2</ele>
        <time>2023-09-25T11:12:08Z</time>
      </trkpt>
      <trkpt lat="44.78921" lon="1.67059">
        <ele>265.6</ele>
        <time>2023-09-25T11:12:12.455Z</time>
      </trkpt>
      <trkpt lat="44.7892" lon="1.67066">
        <ele>265.1</ele>
        <time>2023-09-25T11:12:17Z</time>
      </trkpt>
      <trkpt lat="44.7892" lon="1.67074">
        <ele>264.1</ele>
        <time>2023-09-25T11:12:22.000Z</time>
      </trkpt>
      <trkpt lat="44.7892" lon="1.67082">
        <ele>263.2</ele>
        <time>2023-09-25T11:12:27Z</time>
      </trkpt>
      <trkpt lat="44.7892" lon="1.67089">
        <ele>263</ele>
        <time>2023-09-25T11:12:31.950Z</time>
      </trkpt>
      <trkpt lat="44.78919" lon="1.67096">
        <ele>262.8</ele>
        <time>2023-09-25T11:12:37Z</time>
      </trkpt>
      <trkpt lat="44.78916" lon="1.67103">
        <ele>264.7</ele>
        <time>2023-09-25T11:12:41.999Z</time>
      </trkpt>
      <trkpt lat="44.78913" lon="1.6711">
        <ele>265</ele>
        <time>2023-09-25T11:12:47Z</time>
      </trkpt>
      <trkpt lat="44.7891" lon="1.67119">
        <ele>265.9</ele>
        <time>2023-09-25T11:12:51.499Z</time>
      </trkpt>
      <trkpt lat="44.78907" lon="1.67128">
        <ele>266.8</ele>
        <time>2023-09-25T11:12:56Z</time>
      </trkpt>
      <trkpt lat="44.78907" lon="1.67136">
        <ele>267.1</ele>
        <time>2023-09-25T11:13:02.869Z</time>
      </trkpt>
      <trkpt lat="44.78906" lon="1.67143">
        <ele>267.5</ele>
        <time>2023-09-25T11:13:09Z</time>
      </trkpt>
      <trkpt lat="44.78905" lon="1.67151">
        <ele>268.2</ele>
        <time>2023-09-25T11:13:15.999Z</time>
      </trkpt>
      <trkpt lat="44.78904" lon="1.67159">
        <ele>268.9</ele>
        <time>2023-09-25T11:13:23Z</time>
      </trkpt>
      <trkpt lat="44.78899" lon="1.67166">
        <ele>270.1</ele>
        <time>2023-09-25T11:13:48Z</time>
      </trkpt>
      <trkpt lat="44.789" lon="1.67174">
        <ele>270.2</ele>
        <time>2023-09-25T11:14:32Z</time>
      </trkpt>
      <trkpt lat="44.78899" lon="1.67182">
        <ele>270.5</ele>
        <time>2023-09-25T11:14:37.854Z</time>
      </trkpt>
      <trkpt lat="44.78898" lon="1.67189">
        <ele>270.9</ele>
        <time>2023-09-25T11:14:43Z</time>
      </trkpt>
      <trkpt lat="44.78897" lon="1.67197">
        <ele>271.3</ele>
        <time>2023-09-25T11:14:48.184Z</time>
      </trkpt>
      <trkpt lat="44.78895" lon="1.67204">
        <ele>271.6</ele>
        <time>2023-09-25T11:14:53Z</time>
      </trkpt>
      <trkpt lat="44.78896" lon="1.67213">
        <ele>271.4</ele>
        <time>2023-09-25T11:14:58.324Z</time>
      </trkpt>
      <trkpt lat="44.78896" lon="1.67221">
        <ele>271.2</ele>
        <time>2023-09-25T11:15:03Z</time>
      </trkpt>
      <trkpt lat="44.78896" lon="1.67229">
        <ele>271.5</ele>
        <time>2023-09-25T11:15:07.755Z</time>
      </trkpt>
      <trkpt lat="44.78895" lon="1.67236">
        <ele>271.8</ele>
        <time>2023-09-25T11:15:12Z</time>
      </trkpt>
      <trkpt lat="44.78893" lon="1.67244">
        <ele>272.6</ele>
        <time>2023-09-25T11:15:17.291Z</time>
      </trkpt>
      <trkpt lat="44.78891" lon="1.67251">
        <ele>273.4</ele>
        <time>2023-09-25T11:15:22Z</time>
      </trkpt>
      <trkpt lat="44.7889" lon="1.67259">
        <ele>273.8</ele>
        <time>2023-09-25T11:15:27.184Z</time>
      </trkpt>
      <trkpt lat="44.78888" lon="1.67266">
        <ele>274.1</ele>
        <time>2023-09-25T11:15:32Z</time>
      </trkpt>
      <trkpt lat="44.78887" lon="1.67273">
        <ele>274.2</ele>
        <time>2023-09-25T11:15:36.499Z</time>
      </trkpt>
      <trkpt lat="44.78886" lon="1.6728">
        <ele>274.2</ele>
        <time>2023-09-25T11:15:41Z</time>
      </trkpt>
      <trkpt lat="44.78885" lon="1.67289">
        <ele>274.1</ele>
        <time>2023-09-25T11:15:45.913Z</time>
      </trkpt>
      <trkpt lat="44.78883" lon="1.67298">
        <ele>274.1</ele>
        <time>2023-09-25T11:15:51Z</time>
      </trkpt>
      <trkpt lat="44.78882" lon="1.67306">
        <ele>274</ele>
        <time>2023-09-25T11:15:56.321Z</time>
      </trkpt>
      <trkpt lat="44.78881" lon="1.67313">
        <ele>273.8</ele>
        <time>2023-09-25T11:16:01Z</time>
      </trkpt>
      <trkpt lat="44.78878" lon="1.67318">
        <ele>274</ele>
        <time>2023-09-25T11:16:06.294Z</time>
      </trkpt>
      <trkpt lat="44.78875" lon="1.67322">
        <ele>274.2</ele>
        <time>2023-09-25T11:16:11Z</time>
      </trkpt>
      <trkpt lat="44.78873" lon="1.67332">
        <ele>273.8</ele>
        <time>2023-09-25T11:17:25Z</time>
      </trkpt>
      <trkpt lat="44.78873" lon="1.67339">
        <ele>273.2</ele>
        <time>2023-09-25T11:17:53.712Z</time>
      </trkpt>
      <trkpt lat="44.78874" lon="1.67346">
        <ele>272.5</ele>
        <time>2023-09-25T11:18:23Z</time>
      </trkpt>
      <trkpt lat="44.78878" lon="1.67354">
        <ele>271.2</ele>
        <time>2023-09-25T11:19:56Z</time>
      </trkpt>
      <trkpt lat="44.78883" lon="1.67354">
        <ele>270.6</ele>
        <time>2023-09-25T11:20:03.462Z</time>
      </trkpt>
      <trkpt lat="44.78888" lon="1.67353">
        <ele>270</ele>
        <time>2023-09-25T11:20:11Z</time>
      </trkpt>
      <trkpt lat="44.78894" lon="1.6735">
        <ele>268.6</ele>
        <time>2023-09-25T11:20:16.934Z</time>
      </trkpt>
      <trkpt lat="44.78899" lon="1.67347">
        <ele>267.3</ele>
        <time>2023-09-25T11:20:22Z</time>
      </trkpt>
      <trkpt lat="44.78903" lon="1.67342">
        <ele>267.1</ele>
        <time>2023-09-25T11:20:27.572Z</time>
      </trkpt>
      <trkpt lat="44.78906" lon="1.67336">
        <ele>267.2</ele>
        <time>2023-09-25T11:20:33Z</time>
      </trkpt>
      <trkpt lat="44.78912" lon="1.67334">
        <ele>266</ele>
        <time>2023-09-25T11:21:35Z</time>
      </trkpt>
      <trkpt lat="44.78911" lon="1.67343">
        <ele>264.3</ele>
        <time>2023-09-25T11:21:39.999Z</time>
      </trkpt>
      <trkpt lat="44.7891" lon="1.67352">
        <ele>262.6</ele>
        <time>2023-09-25T11:21:45Z</time>
      </trkpt>
      <trkpt lat="44.78911" lon="1.67361">
        <ele>260.6</ele>
        <time>2023-09-25T11:21:49.791Z</time>
      </trkpt>
      <trkpt lat="44.78911" lon="1.67369">
        <ele>258.9</ele>
        <time>2023-09-25T11:21:54Z</time>
      </trkpt>
      <trkpt lat="44.78912" lon="1.67368">
        <ele>258.6</ele>
        <time>2023-09-25T11:22:23Z</time>
      </trkpt>
      <trkpt lat="44.7891" lon="1.67376">
        <ele>258.4</ele>
        <time>2023-09-25T11:22:28.600Z</time>
      </trkpt>
      <trkpt lat="44.78907" lon="1.67383">
        <ele>258.2</ele>
        <time>2023-09-25T11:22:34Z</time>
      </trkpt>
      <trkpt lat="44.78904" lon="1.6739">
        <ele>258.3</ele>
        <time>2023-09-25T11:22:38.742Z</time>
      </trkpt>
      <trkpt lat="44.78901" lon="1.67396">
        <ele>258.2</ele>
        <time>2023-09-25T11:22:43Z</time>
      </trkpt>
      <trkpt lat="44.78901" lon="1.67407">
        <ele>255.7</ele>
        <time>2023-09-25T11:22:56Z</time>
      </trkpt>
      <trkpt lat="44.78897" lon="1.67414">
        <ele>256.4</ele>
        <time>2023-09-25T11:23:01.265Z</time>
      </trkpt>
      <trkpt lat="44.78893" lon="1.67422">
        <ele>257.6</ele>
        <time>2023-09-25T11:23:07Z</time>
      </trkpt>
      <trkpt lat="44.78892" lon="1.67429">
        <ele>257.1</ele>
        <time>2023-09-25T11:23:13.549Z</time>
      </trkpt>
      <trkpt lat="44.78891" lon="1.67437">
        <ele>256.4</ele>
        <time>2023-09-25T11:23:21Z</time>
      </trkpt>
      <trkpt lat="44.7889" lon="1.67443">
        <ele>255.7</ele>
        <time>2023-09-25T11:23:26.559Z</time>
      </trkpt>
      <trkpt lat="44.78889" lon="1.6745">
        <ele>257.2</ele>
        <time>2023-09-25T11:23:33Z</time>
      </trkpt>
      <trkpt lat="44.78897" lon="1.67448">
        <ele>253.5</ele>
        <time>2023-09-25T11:23:47Z</time>
      </trkpt>
      <trkpt lat="44.78902" lon="1.67445">
        <ele>251</ele>
        <time>2023-09-25T11:23:54.358Z</time>
      </trkpt>
      <trkpt lat="44.78906" lon="1.67441">
        <ele>249.4</ele>
        <time>2023-09-25T11:24:01Z</time>
      </trkpt>
      <trkpt lat="44.78911" lon="1.67445">
        <ele>247.3</ele>
        <time>2023-09-25T11:24:08.000Z</time>
      </trkpt>
      <trkpt lat="44.78916" lon="1.67449">
        <ele>246.1</ele>
        <time>2023-09-25T11:24:15Z</time>
      </trkpt>
      <trkpt lat="44.78919" lon="1.67456">
        <ele>246.6</ele>
        <time>2023-09-25T11:24:22.904Z</time>
      </trkpt>
      <trkpt lat="44.78922" lon="1.67462">
        <ele>247</ele>
        <time>2023-09-25T11:24:30Z</time>
      </trkpt>
      <trkpt lat="44.78928" lon="1.67456">
        <ele>245.2</ele>
        <time>2023-09-25T11:24:48Z</time>
      </trkpt>
      <trkpt lat="44.78927" lon="1.67447">
        <ele>244.5</ele>
        <time>2023-09-25T11:25:05Z</time>
      </trkpt>
      <trkpt lat="44.78926" lon="1.67439">
        <ele>243.8</ele>
        <time>2023-09-25T11:25:11.848Z</time>
      </trkpt>
      <trkpt lat="44.78924" lon="1.67431">
        <ele>243.2</ele>
        <time>2023-09-25T11:25:19Z</time>
      </trkpt>
      <trkpt lat="44.78927" lon="1.67423">
        <ele>241.8</ele>
        <time>2023-09-25T11:25:26.000Z</time>
      </trkpt>
      <trkpt lat="44.7893" lon="1.67415">
        <ele>240.3</ele>
        <time>2023-09-25T11:25:33Z</time>
      </trkpt>
      <trkpt lat="44.78928" lon="1.67408">
        <ele>241.6</ele>
        <time>2023-09-25T11:25:51Z</time>
      </trkpt>
      <trkpt lat="44.78931" lon="1.67401">
        <ele>240.9</ele>
        <time>2023-09-25T11:25:57.381Z</time>
      </trkpt>
      <trkpt lat="44.78933" lon="1.67393">
        <ele>239.4</ele>
        <time>2023-09-25T11:26:04Z</time>
      </trkpt>
      <trkpt lat="44.78935" lon="1.67387">
        <ele>237.8</ele>
        <time>2023-09-25T11:26:09.500Z</time>
      </trkpt>
      <trkpt lat="44.78937" lon="1.67381">
        <ele>235.9</ele>
        <time>2023-09-25T11:26:15Z</time>
      </trkpt>
      <trkpt lat="44.78942" lon="1.67372">
        <ele>230.6</ele>
        <time>2023-09-25T11:26:22.500Z</time>
      </trkpt>
      <trkpt lat="44.78947" lon="1.67363">
        <ele>227.2</ele>
        <time>2023-09-25T11:26:30Z</time>
      </trkpt>
      <trkpt lat="44.78952" lon="1.67355">
        <ele>227.3</ele>
        <time>2023-09-25T11:26:36.256Z</time>
      </trkpt>
      <trkpt lat="44.78956" lon="1.67347">
        <ele>228.1</ele>
        <time>2023-09-25T11:26:42Z</time>
      </trkpt>
      <trkpt lat="44.78961" lon="1.6734">
        <ele>229.2</ele>
        <time>2023-09-25T11:26:48.299Z</time>
      </trkpt>
      <trkpt lat="44.78965" lon="1.67333">
        <ele>230.7</ele>
        <time>2023-09-25T11:26:54Z</time>
      </trkpt>
      <trkpt lat="44.7897" lon="1.67325">
        <ele>231.9</ele>
        <time>2023-09-25T11:27:17Z</time>
      </trkpt>
      <trkpt lat="44.78972" lon="1.67318">
        <ele>232.5</ele>
        <time>2023-09-25T11:27:39Z</time>
      </trkpt>
      <trkpt lat="44.78972" lon="1.67312">
        <ele>233</ele>
        <time>2023-09-25T11:28:09Z</time>
      </trkpt>
      <trkpt lat="44.78972" lon="1.67299">
        <ele>232.5</ele>
        <time>2023-09-25T11:28:21Z</time>
      </trkpt>
      <trkpt lat="44.78973" lon="1.6729">
        <ele>232.2</ele>
        <time>2023-09-25T11:28:27.036Z</time>
      </trkpt>
      <trkpt lat="44.78973" lon="1.67281">
        <ele>232</ele>
        <time>2023-09-25T11:28:33Z</time>
      </trkpt>
      <trkpt lat="44.78975" lon="1.67275">
        <ele>233.3</ele>
        <time>2023-09-25T11:28:37.000Z</time>
      </trkpt>
      <trkpt lat="44.78977" lon="1.67269">
        <ele>234.4</ele>
        <time>2023-09-25T11:28:41.000Z</time>
      </trkpt>
      <trkpt lat="44.78979" lon="1.67263">
        <ele>235.5</ele>
        <time>2023-09-25T11:28:45.000Z</time>
      </trkpt>
      <trkpt lat="44.78981" lon="1.67257">
        <ele>236.5</ele>
        <time>2023-09-25T11:28:49Z</time>
      </trkpt>
      <trkpt lat="44.78983" lon="1.67248">
        <ele>236.8</ele>
        <time>2023-09-25T11:28:55.612Z</time>
      </trkpt>
      <trkpt lat="44.78984" lon="1.67239">
        <ele>237.6</ele>
        <time>2023-09-25T11:29:02Z</time>
      </trkpt>
      <trkpt lat="44.78982" lon="1.6723">
        <ele>235.3</ele>
        <time>2023-09-25T11:29:08.499Z</time>
      </trkpt>
      <trkpt lat="44.7898" lon="1.67221">
        <ele>232.9</ele>
        <time>2023-09-25T11:29:15Z</time>
      </trkpt>
      <trkpt lat="44.78979" lon="1.67214">
        <ele>231.4</ele>
        <time>2023-09-25T11:29:28.999Z</time>
      </trkpt>
      <trkpt lat="44.78978" lon="1.67207">
        <ele>229.9</ele>
        <time>2023-09-25T11:29:43Z</time>
      </trkpt>
      <trkpt lat="44.78978" lon="1.672">
        <ele>229.7</ele>
        <time>2023-09-25T11:29:50.425Z</time>
      </trkpt>
      <trkpt lat="44.78979" lon="1.67193">
        <ele>229.5</ele>
        <time>2023-09-25T11:29:58Z</time>
      </trkpt>
      <trkpt lat="44.78979" lon="1.67183">
        <ele>228.7</ele>
        <time>2023-09-25T11:30:05.000Z</time>
      </trkpt>
      <trkpt lat="44.78979" lon="1.67173">
        <ele>228.1</ele>
        <time>2023-09-25T11:30:12Z</time>
      </trkpt>
      <trkpt lat="44.7898" lon="1.67167">
        <ele>228.7</ele>
        <time>2023-09-25T11:30:14.645Z</time>
      </trkpt>
      <trkpt lat="44.78981" lon="1.67161">
        <ele>229</ele>
        <time>2023-09-25T11:30:17.290Z</time>
      </trkpt>
      <trkpt lat="44.78982" lon="1.67155">
        <ele>229.3</ele>
        <time>2023-09-25T11:30:19.935Z</time>
      </trkpt>
      <trkpt lat="44.78983" lon="1.67148">
        <ele>229.5</ele>
        <time>2023-09-25T11:30:23Z</time>
      </trkpt>
      <trkpt lat="44.78986" lon="1.67138">
        <ele>230.5</ele>
        <time>2023-09-25T11:30:29.500Z</time>
      </trkpt>
      <trkpt lat="44.78989" lon="1.67128">
        <ele>231.1</ele>
        <time>2023-09-25T11:30:36Z</time>
      </trkpt>
      <trkpt lat="44.7899" lon="1.67122">
        <ele>230.4</ele>
        <time>2023-09-25T11:30:41.150Z</time>
      </trkpt>
      <trkpt lat="44.7899" lon="1.67115">
        <ele>229.6</ele>
        <time>2023-09-25T11:30:47Z</time>
      </trkpt>
      <trkpt lat="44.78992" lon="1.67106">
        <ele>228.9</ele>
        <time>2023-09-25T11:30:55.138Z</time>
      </trkpt>
      <trkpt lat="44.78993" lon="1.67097">
        <ele>227.8</ele>
        <time>2023-09-25T11:31:03Z</time>
      </trkpt>
      <trkpt lat="44.78995" lon="1.67086">
        <ele>225.7</ele>
        <time>2023-09-25T11:31:08.813Z</time>
      </trkpt>
      <trkpt lat="44.78996" lon="1.67074">
        <ele>224.4</ele>
        <time>2023-09-25T11:31:15Z</time>
      </trkpt>
      <trkpt lat="44.78996" lon="1.67067">
        <ele>223.6</ele>
        <time>2023-09-25T11:31:21.500Z</time>
      </trkpt>
      <trkpt lat="44.78996" lon="1.6706">
        <ele>222.8</ele>
        <time>2023-09-25T11:31:28Z</time>
      </trkpt>
      <trkpt lat="44.78996" lon="1.67054">
        <ele>222.2</ele>
        <time>2023-09-25T11:31:34.000Z</time>
      </trkpt>
      <trkpt lat="44.78996" lon="1.67047">
        <ele>222.1</ele>
        <time>2023-09-25T11:31:41Z</time>
      </trkpt>
      <trkpt lat="44.78997" lon="1.67036">
        <ele>221.8</ele>
        <time>2023-09-25T11:31:47.163Z</time>
      </trkpt>
      <trkpt lat="44.78997" lon="1.67026">
        <ele>221.5</ele>
        <time>2023-09-25T11:31:52.721Z</time>
      </trkpt>
      <trkpt lat="44.78998" lon="1.67015">
        <ele>221.2</ele>
        <time>2023-09-25T11:31:58.885Z</time>
      </trkpt>
      <trkpt lat="44.78998" lon="1.67004">
        <ele>220.8</ele>
        <time>2023-09-25T11:32:05Z</time>
      </trkpt>
      <trkpt lat="44.79" lon="1.66998">
        <ele>219.8</ele>
        <time>2023-09-25T11:32:09.325Z</time>
      </trkpt>
      <trkpt lat="44.79002" lon="1.66992">
        <ele>220.3</ele>
        <time>2023-09-25T11:32:13.651Z</time>
      </trkpt>
      <trkpt lat="44.79003" lon="1.66986">
        <ele>220.8</ele>
        <time>2023-09-25T11:32:17.673Z</time>
      </trkpt>
      <trkpt lat="44.79005" lon="1.6698">
        <ele>221.2</ele>
        <time>2023-09-25T11:32:22Z</time>
      </trkpt>
      <trkpt lat="44.79008" lon="1.66975">
        <ele>222.3</ele>
        <time>2023-09-25T11:32:29.072Z</time>
      </trkpt>
      <trkpt lat="44.79011" lon="1.66969">
        <ele>223.3</ele>
        <time>2023-09-25T11:32:37Z</time>
      </trkpt>
      <trkpt lat="44.79009" lon="1.66962">
        <ele>220.7</ele>
        <time>2023-09-25T11:33:01Z</time>
      </trkpt>
      <trkpt lat="44.79017" lon="1.66963">
        <ele>225.5</ele>
        <time>2023-09-25T11:33:24Z</time>
      </trkpt>
      <trkpt lat="44.79012" lon="1.66963">
        <ele>222.6</ele>
        <time>2023-09-25T11:33:46Z</time>
      </trkpt>
      <trkpt lat="44.79017" lon="1.66954">
        <ele>222.8</ele>
        <time>2023-09-25T11:34:01Z</time>
      </trkpt>
      <trkpt lat="44.79021" lon="1.6695">
        <ele>222.7</ele>
        <time>2023-09-25T11:34:09.729Z</time>
      </trkpt>
      <trkpt lat="44.79024" lon="1.66945">
        <ele>222.1</ele>
        <time>2023-09-25T11:34:18Z</time>
      </trkpt>
      <trkpt lat="44.79025" lon="1.66938">
        <ele>219.8</ele>
        <time>2023-09-25T11:34:25.000Z</time>
      </trkpt>
      <trkpt lat="44.79026" lon="1.66931">
        <ele>217.2</ele>
        <time>2023-09-25T11:34:32Z</time>
      </trkpt>
      <trkpt lat="44.79028" lon="1.66929">
        <ele>216.5</ele>
        <time>2023-09-25T11:34:52Z</time>
      </trkpt>
      <trkpt lat="44.79023" lon="1.66927">
        <ele>215.9</ele>
        <time>2023-09-25T11:35:01.288Z</time>
      </trkpt>
      <trkpt lat="44.79018" lon="1.66924">
        <ele>216</ele>
        <time>2023-09-25T11:35:11Z</time>
      </trkpt>
      <trkpt lat="44.79019" lon="1.66922">
        <ele>215.4</ele>
        <time>2023-09-25T11:35:29Z</time>
      </trkpt>
      <trkpt lat="44.79027" lon="1.66919">
        <ele>212.2</ele>
        <time>2023-09-25T11:35:50Z</time>
      </trkpt>
      <trkpt lat="44.79032" lon="1.66919">
        <ele>214.9</ele>
        <time>2023-09-25T11:35:59.931Z</time>
      </trkpt>
      <trkpt lat="44.79036" lon="1.66918">
        <ele>218.4</ele>
        <time>2023-09-25T11:36:08Z</time>
      </trkpt>
      <trkpt lat="44.79032" lon="1.66916">
        <ele>214.7</ele>
        <time>2023-09-25T11:36:31Z</time>
      </trkpt>
      <trkpt lat="44.79037" lon="1.66923">
        <ele>221.7</ele>
        <time>2023-09-25T11:37:01Z</time>
      </trkpt>
      <trkpt lat="44.7903" lon="1.66922">
        <ele>215.2</ele>
        <time>2023-09-25T11:37:27Z</time>
      </trkpt>
      <trkpt lat="44.79026" lon="1.66924">
        <ele>214.4</ele>
        <time>2023-09-25T11:37:36.589Z</time>
      </trkpt>
      <trkpt lat="44.79021" lon="1.66925">
        <ele>215.7</ele>
        <time>2023-09-25T11:37:48Z</time>
      </trkpt>
      <trkpt lat="44.79025" lon="1.66928">
        <ele>216.2</ele>
        <time>2023-09-25T11:38:05Z</time>
      </trkpt>
      <trkpt lat="44.79024" lon="1.6692">
        <ele>213.5</ele>
        <time>2023-09-25T11:38:17.957Z</time>
      </trkpt>
      <trkpt lat="44.79022" lon="1.66911">
        <ele>216</ele>
        <time>2023-09-25T11:38:33Z</time>
      </trkpt>
      <trkpt lat="44.79016" lon="1.66906">
        <ele>220.9</ele>
        <time>2023-09-25T11:38:53Z</time>
      </trkpt>
      <trkpt lat="44.79019" lon="1.66914">
        <ele>215.7</ele>
        <time>2023-09-25T11:39:00.742Z</time>
      </trkpt>
      <trkpt lat="44.79021" lon="1.66922">
        <ele>214.9</ele>
        <time>2023-09-25T11:39:08Z</time>
      </trkpt>
      <trkpt lat="44.79017" lon="1.66919">
        <ele>215.3</ele>
        <time>2023-09-25T11:39:30Z</time>
      </trkpt>
      <trkpt lat="44.79017" lon="1.66925">
        <ele>216.4</ele>
        <time>2023-09-25T11:39:47Z</time>
      </trkpt>
      <trkpt lat="44.79018" lon="1.66933">
        <ele>217.9</ele>
        <time>2023-09-25T11:40:19Z</time>
      </trkpt>
      <trkpt lat="44.79013" lon="1.66938">
        <ele>218.2</ele>
        <time>2023-09-25T11:40:36Z</time>
      </trkpt>
      <trkpt lat="44.79014" lon="1.66938">
        <ele>218.3</ele>
        <time>2023-09-25T11:40:53Z</time>
      </trkpt>
      <trkpt lat="44.79018" lon="1.66934">
        <ele>218.1</ele>
        <time>2023-09-25T11:41:03.500Z</time>
      </trkpt>
      <trkpt lat="44.79022" lon="1.6693">
        <ele>217</ele>
        <time>2023-09-25T11:41:14Z</time>
      </trkpt>
      <trkpt lat="44.79029" lon="1.66923">
        <ele>214.8</ele>
        <time>2023-09-25T11:41:31Z</time>
      </trkpt>
      <trkpt lat="44.79032" lon="1.66928">
        <ele>219.6</ele>
        <time>2023-09-25T11:41:53Z</time>
      </trkpt>
      <trkpt lat="44.79037" lon="1.66927">
        <ele>222.9</ele>
        <time>2023-09-25T11:42:01.150Z</time>
      </trkpt>
      <trkpt lat="44.79041" lon="1.66925">
        <ele>226.1</ele>
        <time>2023-09-25T11:42:08Z</time>
      </trkpt>
      <trkpt lat="44.79046" lon="1.66935">
        <ele>235.7</ele>
        <time>2023-09-25T11:42:28Z</time>
      </trkpt>
      <trkpt lat="44.79042" lon="1.66925">
        <ele>227</ele>
        <time>2023-09-25T11:42:50Z</time>
      </trkpt>
      <trkpt lat="44.79039" lon="1.6692">
        <ele>221.3</ele>
        <time>2023-09-25T11:42:55.759Z</time>
      </trkpt>
      <trkpt lat="44.79035" lon="1.66914">
        <ele>217.2</ele>
        <time>2023-09-25T11:43:03Z</time>
      </trkpt>
      <trkpt lat="44.7903" lon="1.66905">
        <ele>217.1</ele>
        <time>2023-09-25T11:43:28Z</time>
      </trkpt>
      <trkpt lat="44.79037" lon="1.66899">
        <ele>217.6</ele>
        <time>2023-09-25T11:43:45Z</time>
      </trkpt>
      <trkpt lat="44.79043" lon="1.66907">
        <ele>219.5</ele>
        <time>2023-09-25T11:44:07Z</time>
      </trkpt>
      <trkpt lat="44.79045" lon="1.66901">
        <ele>216.8</ele>
        <time>2023-09-25T11:44:24.100Z</time>
      </trkpt>
      <trkpt lat="44.79046" lon="1.66895">
        <ele>213</ele>
        <time>2023-09-25T11:44:40Z</time>
      </trkpt>
      <trkpt lat="44.79044" lon="1.66895">
        <ele>213.9</ele>
        <time>2023-09-25T11:45:01Z</time>
      </trkpt>
      <trkpt lat="44.79046" lon="1.66892">
        <ele>211.1</ele>
        <time>2023-09-25T11:45:27Z</time>
      </trkpt>
      <trkpt lat="44.79047" lon="1.66883">
        <ele>214.1</ele>
        <time>2023-09-25T11:45:43Z</time>
      </trkpt>
      <trkpt lat="44.79052" lon="1.6688">
        <ele>212.7</ele>
        <time>2023-09-25T11:45:50.000Z</time>
      </trkpt>
      <trkpt lat="44.79057" lon="1.66877">
        <ele>212.2</ele>
        <time>2023-09-25T11:45:57Z</time>
      </trkpt>
      <trkpt lat="44.79057" lon="1.66871">
        <ele>217.6</ele>
        <time>2023-09-25T11:46:21Z</time>
      </trkpt>
      <trkpt lat="44.79054" lon="1.66877">
        <ele>213.9</ele>
        <time>2023-09-25T11:46:51Z</time>
      </trkpt>
      <trkpt lat="44.79059" lon="1.66885">
        <ele>205.1</ele>
        <time>2023-09-25T11:47:07Z</time>
      </trkpt>
      <trkpt lat="44.79057" lon="1.66878">
        <ele>211.4</ele>
        <time>2023-09-25T11:47:15.638Z</time>
      </trkpt>
      <trkpt lat="44.79054" lon="1.66871">
        <ele>219.7</ele>
        <time>2023-09-25T11:47:25Z</time>
      </trkpt>
      <trkpt lat="44.79056" lon="1.66873">
        <ele>216.2</ele>
        <time>2023-09-25T11:47:55Z</time>
      </trkpt>
      <trkpt lat="44.79057" lon="1.66883">
        <ele>206.7</ele>
        <time>2023-09-25T11:48:12Z</time>
      </trkpt>
      <trkpt lat="44.79065" lon="1.66878">
        <ele>209.5</ele>
        <time>2023-09-25T11:48:28Z</time>
      </trkpt>
      <trkpt lat="44.7907" lon="1.66879">
        <ele>208.4</ele>
        <time>2023-09-25T11:48:37.486Z</time>
      </trkpt>
      <trkpt lat="44.79074" lon="1.66879">
        <ele>207.4</ele>
        <time>2023-09-25T11:48:45Z</time>
      </trkpt>
      <trkpt lat="44.7908" lon="1.66882">
        <ele>206.8</ele>
        <time>2023-09-25T11:48:53.128Z</time>
      </trkpt>
      <trkpt lat="44.79086" lon="1.66884">
        <ele>206</ele>
        <time>2023-09-25T11:49:01Z</time>
      </trkpt>
      <trkpt lat="44.79094" lon="1.66889">
        <ele>202.9</ele>
        <time>2023-09-25T11:49:20Z</time>
      </trkpt>
      <trkpt lat="44.79102" lon="1.66893">
        <ele>199.6</ele>
        <time>2023-09-25T11:49:37Z</time>
      </trkpt>
      <trkpt lat="44.79106" lon="1.66896">
        <ele>197.7</ele>
        <time>2023-09-25T11:50:07Z</time>
      </trkpt>
      <trkpt lat="44.79106" lon="1.66901">
        <ele>198.9</ele>
        <time>2023-09-25T11:50:38Z</time>
      </trkpt>
      <trkpt lat="44.79104" lon="1.66903">
        <ele>201.1</ele>
        <time>2023-09-25T11:51:02Z</time>
      </trkpt>
      <trkpt lat="44.79103" lon="1.66905">
        <ele>202.5</ele>
        <time>2023-09-25T11:51:26Z</time>
      </trkpt>
      <trkpt lat="44.79101" lon="1.66903">
        <ele>203.6</ele>
        <time>2023-09-25T11:52:12Z</time>
      </trkpt>
      <trkpt lat="44.791" lon="1.66906">
        <ele>205.6</ele>
        <time>2023-09-25T11:53:03Z</time>
      </trkpt>
      <trkpt lat="44.791" lon="1.66917">
        <ele>209.3</ele>
        <time>2023-09-25T11:53:10.857Z</time>
      </trkpt>
      <trkpt lat="44.791" lon="1.66927">
        <ele>213.8</ele>
        <time>2023-09-25T11:53:18Z</time>
      </trkpt>
      <trkpt lat="44.79101" lon="1.66939">
        <ele>217.9</ele>
        <time>2023-09-25T11:53:39Z</time>
      </trkpt>
      <trkpt lat="44.79102" lon="1.6695">
        <ele>219.5</ele>
        <time>2023-09-25T11:53:54Z</time>
      </trkpt>
      <trkpt lat="44.79101" lon="1.66958">
        <ele>221.8</ele>
        <time>2023-09-25T11:54:01.999Z</time>
      </trkpt>
      <trkpt lat="44.791" lon="1.66966">
        <ele>224.2</ele>
        <time>2023-09-25T11:54:10Z</time>
      </trkpt>
      <trkpt lat="44.79099" lon="1.66974">
        <ele>227</ele>
        <time>2023-09-25T11:54:17.337Z</time>
      </trkpt>
      <trkpt lat="44.79097" lon="1.66982">
        <ele>228.4</ele>
        <time>2023-09-25T11:54:25Z</time>
      </trkpt>
      <trkpt lat="44.79095" lon="1.66991">
        <ele>230.4</ele>
        <time>2023-09-25T11:54:31.844Z</time>
      </trkpt>
      <trkpt lat="44.79093" lon="1.66999">
        <ele>232.2</ele>
        <time>2023-09-25T11:54:38Z</time>
      </trkpt>
      <trkpt lat="44.79093" lon="1.6701">
        <ele>230.6</ele>
        <time>2023-09-25T11:54:45.820Z</time>
      </trkpt>
      <trkpt lat="44.79092" lon="1.6702">
        <ele>228.7</ele>
        <time>2023-09-25T11:54:53Z</time>
      </trkpt>
      <trkpt lat="44.79091" lon="1.6703">
        <ele>228.3</ele>
        <time>2023-09-25T11:54:58.688Z</time>
      </trkpt>
      <trkpt lat="44.79089" lon="1.67039">
        <ele>230.5</ele>
        <time>2023-09-25T11:55:04Z</time>
      </trkpt>
      <trkpt lat="44.79092" lon="1.67047">
        <ele>229.6</ele>
        <time>2023-09-25T11:55:09.997Z</time>
      </trkpt>
      <trkpt lat="44.79094" lon="1.67054">
        <ele>228.9</ele>
        <time>2023-09-25T11:55:15Z</time>
      </trkpt>
      <trkpt lat="44.791" lon="1.67057">
        <ele>225.5</ele>
        <time>2023-09-25T11:55:24.144Z</time>
      </trkpt>
      <trkpt lat="44.79106" lon="1.67059">
        <ele>222.4</ele>
        <time>2023-09-25T11:55:33Z</time>
      </trkpt>
      <trkpt lat="44.79112" lon="1.67063">
        <ele>220.1</ele>
        <time>2023-09-25T11:55:40.000Z</time>
      </trkpt>
      <trkpt lat="44.79118" lon="1.67067">
        <ele>219.3</ele>
        <time>2023-09-25T11:55:47Z</time>
      </trkpt>
      <trkpt lat="44.79124" lon="1.67069">
        <ele>217.9</ele>
        <time>2023-09-25T11:55:54.146Z</time>
      </trkpt>
      <trkpt lat="44.79129" lon="1.6707">
        <ele>216.6</ele>
        <time>2023-09-25T11:56:00Z</time>
      </trkpt>
      <trkpt lat="44.79127" lon="1.67064">
        <ele>215</ele>
        <time>2023-09-25T11:56:07.611Z</time>
      </trkpt>
      <trkpt lat="44.79124" lon="1.67057">
        <ele>213.4</ele>
        <time>2023-09-25T11:56:17Z</time>
      </trkpt>
      <trkpt lat="44.79122" lon="1.67051">
        <ele>212.1</ele>
        <time>2023-09-25T11:56:23.079Z</time>
      </trkpt>
      <trkpt lat="44.7912" lon="1.67044">
        <ele>211</ele>
        <time>2023-09-25T11:56:30Z</time>
      </trkpt>
      <trkpt lat="44.79119" lon="1.67038">
        <ele>209.6</ele>
        <time>2023-09-25T11:56:36.022Z</time>
      </trkpt>
      <trkpt lat="44.79118" lon="1.67031">
        <ele>208.2</ele>
        <time>2023-09-25T11:56:43Z</time>
      </trkpt>
      <trkpt lat="44.79123" lon="1.6703">
        <ele>205.5</ele>
        <time>2023-09-25T11:56:50.758Z</time>
      </trkpt>
      <trkpt lat="44.79127" lon="1.67029">
        <ele>202.8</ele>
        <time>2023-09-25T11:56:57Z</time>
      </trkpt>
      <trkpt lat="44.79134" lon="1.67032">
        <ele>200</ele>
        <time>2023-09-25T11:57:04.084Z</time>
      </trkpt>
      <trkpt lat="44.79141" lon="1.67034">
        <ele>198</ele>
        <time>2023-09-25T11:57:11Z</time>
      </trkpt>
      <trkpt lat="44.79146" lon="1.67033">
        <ele>196.5</ele>
        <time>2023-09-25T11:57:17.500Z</time>
      </trkpt>
      <trkpt lat="44.79151" lon="1.67032">
        <ele>195.1</ele>
        <time>2023-09-25T11:57:24Z</time>
      </trkpt>
      <trkpt lat="44.79143" lon="1.67029">
        <ele>195.6</ele>
        <time>2023-09-25T11:57:41Z</time>
      </trkpt>
      <trkpt lat="44.79139" lon="1.67022">
        <ele>194.9</ele>
        <time>2023-09-25T11:57:57Z</time>
      </trkpt>
      <trkpt lat="44.79137" lon="1.67016">
        <ele>195</ele>
        <time>2023-09-25T11:58:04.999Z</time>
      </trkpt>
      <trkpt lat="44.79135" lon="1.6701">
        <ele>195.1</ele>
        <time>2023-09-25T11:58:13Z</time>
      </trkpt>
      <trkpt lat="44.79135" lon="1.67001">
        <ele>193.5</ele>
        <time>2023-09-25T11:58:27Z</time>
      </trkpt>
      <trkpt lat="44.79143" lon="1.66996">
        <ele>191</ele>
        <time>2023-09-25T11:59:37.000Z</time>
      </trkpt>
      <trkpt lat="44.79151" lon="1.66991">
        <ele>191.6</ele>
        <time>2023-09-25T12:00:47Z</time>
      </trkpt>
      <trkpt lat="44.79152" lon="1.67">
        <ele>190.6</ele>
        <time>2023-09-25T12:00:53.921Z</time>
      </trkpt>
      <trkpt lat="44.79152" lon="1.67008">
        <ele>191.3</ele>
        <time>2023-09-25T12:01:00Z</time>
      </trkpt>
      <trkpt lat="44.79158" lon="1.67016">
        <ele>191.2</ele>
        <time>2023-09-25T12:01:14Z</time>
      </trkpt>
      <trkpt lat="44.79164" lon="1.6702">
        <ele>190.5</ele>
        <time>2023-09-25T12:01:22.247Z</time>
      </trkpt>
      <trkpt lat="44.79169" lon="1.67023">
        <ele>190</ele>
        <time>2023-09-25T12:01:29Z</time>
      </trkpt>
      <trkpt lat="44.79175" lon="1.67022">
        <ele>190</ele>
        <time>2023-09-25T12:01:35.450Z</time>
      </trkpt>
      <trkpt lat="44.7918" lon="1.6702">
        <ele>190</ele>
        <time>2023-09-25T12:01:41Z</time>
      </trkpt>
      <trkpt lat="44.79187" lon="1.67022">
        <ele>190</ele>
        <time>2023-09-25T12:01:47.500Z</time>
      </trkpt>
      <trkpt lat="44.79193" lon="1.67023">
        <ele>190</ele>
        <time>2023-09-25T12:01:53Z</time>
      </trkpt>
      <trkpt lat="44.79198" lon="1.67023">
        <ele>190</ele>
        <time>2023-09-25T12:01:59.068Z</time>
      </trkpt>
      <trkpt lat="44.79202" lon="1.67022">
        <ele>189.9</ele>
        <time>2023-09-25T12:02:04Z</time>
      </trkpt>
      <trkpt lat="44.79207" lon="1.6702">
        <ele>189.9</ele>
        <time>2023-09-25T12:02:09.377Z</time>
      </trkpt>
      <trkpt lat="44.79212" lon="1.67017">
        <ele>189.8</ele>
        <time>2023-09-25T12:02:15Z</time>
      </trkpt>
      <trkpt lat="44.79216" lon="1.67014">
        <ele>189.6</ele>
        <time>2023-09-25T12:02:20.000Z</time>
      </trkpt>
      <trkpt lat="44.7922" lon="1.67011">
        <ele>189.4</ele>
        <time>2023-09-25T12:02:25Z</time>
      </trkpt>
      <trkpt lat="44.79225" lon="1.67007">
        <ele>189.3</ele>
        <time>2023-09-25T12:02:29.856Z</time>
      </trkpt>
      <trkpt lat="44.79229" lon="1.67003">
        <ele>189</ele>
        <time>2023-09-25T12:02:34Z</time>
      </trkpt>
      <trkpt lat="44.79233" lon="1.67">
        <ele>188.6</ele>
        <time>2023-09-25T12:02:38.500Z</time>
      </trkpt>
      <trkpt lat="44.79237" lon="1.66997">
        <ele>189.3</ele>
        <time>2023-09-25T12:02:43Z</time>
      </trkpt>
      <trkpt lat="44.79244" lon="1.66994">
        <ele>189.5</ele>
        <time>2023-09-25T12:02:48.767Z</time>
      </trkpt>
      <trkpt lat="44.7925" lon="1.6699">
        <ele>189.1</ele>
        <time>2023-09-25T12:02:54Z</time>
      </trkpt>
      <trkpt lat="44.79256" lon="1.66988">
        <ele>189.5</ele>
        <time>2023-09-25T12:02:58.883Z</time>
      </trkpt>
      <trkpt lat="44.79261" lon="1.66986">
        <ele>189.7</ele>
        <time>2023-09-25T12:03:03Z</time>
      </trkpt>
      <trkpt lat="44.79265" lon="1.66982">
        <ele>189.5</ele>
        <time>2023-09-25T12:03:08.135Z</time>
      </trkpt>
      <trkpt lat="44.79268" lon="1.66977">
        <ele>188.9</ele>
        <time>2023-09-25T12:03:13Z</time>
      </trkpt>
      <trkpt lat="44.79275" lon="1.66972">
        <ele>187.4</ele>
        <time>2023-09-25T12:03:18.000Z</time>
      </trkpt>
      <trkpt lat="44.79282" lon="1.66967">
        <ele>188.3</ele>
        <time>2023-09-25T12:03:23Z</time>
      </trkpt>
      <trkpt lat="44.79289" lon="1.6696">
        <ele>189.2</ele>
        <time>2023-09-25T12:03:32Z</time>
      </trkpt>
      <trkpt lat="44.79295" lon="1.66956">
        <ele>189.2</ele>
        <time>2023-09-25T12:03:37.894Z</time>
      </trkpt>
      <trkpt lat="44.793" lon="1.66952">
        <ele>188.6</ele>
        <time>2023-09-25T12:03:43Z</time>
      </trkpt>
      <trkpt lat="44.79306" lon="1.6695">
        <ele>187.7</ele>
        <time>2023-09-25T12:03:47.252Z</time>
      </trkpt>
      <trkpt lat="44.79311" lon="1.66947">
        <ele>188.1</ele>
        <time>2023-09-25T12:03:51Z</time>
      </trkpt>
      <trkpt lat="44.79315" lon="1.66942">
        <ele>188.1</ele>
        <time>2023-09-25T12:04:05Z</time>
      </trkpt>
      <trkpt lat="44.79319" lon="1.66937">
        <ele>188.3</ele>
        <time>2023-09-25T12:04:09.500Z</time>
      </trkpt>
      <trkpt lat="44.79323" lon="1.66932">
        <ele>188.3</ele>
        <time>2023-09-25T12:04:14Z</time>
      </trkpt>
      <trkpt lat="44.79329" lon="1.66928">
        <ele>187.8</ele>
        <time>2023-09-25T12:04:19.358Z</time>
      </trkpt>
      <trkpt lat="44.79334" lon="1.66924">
        <ele>187.2</ele>
        <time>2023-09-25T12:04:24Z</time>
      </trkpt>
      <trkpt lat="44.79338" lon="1.6692">
        <ele>187.3</ele>
        <time>2023-09-25T12:04:28.885Z</time>
      </trkpt>
      <trkpt lat="44.79341" lon="1.66916">
        <ele>187.4</ele>
        <time>2023-09-25T12:04:33Z</time>
      </trkpt>
      <trkpt lat="44.79345" lon="1.66911">
        <ele>188.1</ele>
        <time>2023-09-25T12:04:37.558Z</time>
      </trkpt>
      <trkpt lat="44.79348" lon="1.66905">
        <ele>188.3</ele>
        <time>2023-09-25T12:04:42Z</time>
      </trkpt>
      <trkpt lat="44.79352" lon="1.669">
        <ele>188.3</ele>
        <time>2023-09-25T12:04:46.558Z</time>
      </trkpt>
      <trkpt lat="44.79355" lon="1.66894">
        <ele>187.9</ele>
        <time>2023-09-25T12:04:51Z</time>
      </trkpt>
      <trkpt lat="44.79359" lon="1.66887">
        <ele>187.3</ele>
        <time>2023-09-25T12:04:56.235Z</time>
      </trkpt>
      <trkpt lat="44.79362" lon="1.6688">
        <ele>187.2</ele>
        <time>2023-09-25T12:05:01Z</time>
      </trkpt>
      <trkpt lat="44.79366" lon="1.66875">
        <ele>187.6</ele>
        <time>2023-09-25T12:05:06.350Z</time>
      </trkpt>
      <trkpt lat="44.79369" lon="1.6687">
        <ele>187.6</ele>
        <time>2023-09-25T12:05:11Z</time>
      </trkpt>
      <trkpt lat="44.79374" lon="1.66865">
        <ele>187.4</ele>
        <time>2023-09-25T12:05:15.608Z</time>
      </trkpt>
      <trkpt lat="44.79378" lon="1.66859">
        <ele>187.3</ele>
        <time>2023-09-25T12:05:20Z</time>
      </trkpt>
      <trkpt lat="44.79382" lon="1.66854">
        <ele>187.5</ele>
        <time>2023-09-25T12:05:25.065Z</time>
      </trkpt>
      <trkpt lat="44.79385" lon="1.66848">
        <ele>187.3</ele>
        <time>2023-09-25T12:05:30Z</time>
      </trkpt>
      <trkpt lat="44.79389" lon="1.66843">
        <ele>186.4</ele>
        <time>2023-09-25T12:05:34.558Z</time>
      </trkpt>
      <trkpt lat="44.79392" lon="1.66837">
        <ele>186.7</ele>
        <time>2023-09-25T12:05:39Z</time>
      </trkpt>
      <trkpt lat="44.79395" lon="1.66831">
        <ele>186.9</ele>
        <time>2023-09-25T12:05:44.000Z</time>
      </trkpt>
      <trkpt lat="44.79398" lon="1.66825">
        <ele>187.2</ele>
        <time>2023-09-25T12:05:49Z</time>
      </trkpt>
      <trkpt lat="44.79403" lon="1.66819">
        <ele>187.4</ele>
        <time>2023-09-25T12:05:54.073Z</time>
      </trkpt>
      <trkpt lat="44.79407" lon="1.66812">
        <ele>187.4</ele>
        <time>2023-09-25T12:05:59Z</time>
      </trkpt>
      <trkpt lat="44.7941" lon="1.66805">
        <ele>187</ele>
        <time>2023-09-25T12:06:04.200Z</time>
      </trkpt>
      <trkpt lat="44.79412" lon="1.66798">
        <ele>187.2</ele>
        <time>2023-09-25T12:06:09Z</time>
      </trkpt>
      <trkpt lat="44.79414" lon="1.66791">
        <ele>187</ele>
        <time>2023-09-25T12:06:14.178Z</time>
      </trkpt>
      <trkpt lat="44.79416" lon="1.66783">
        <ele>186.4</ele>
        <time>2023-09-25T12:06:20Z</time>
      </trkpt>
      <trkpt lat="44.79418" lon="1.66777">
        <ele>186.4</ele>
        <time>2023-09-25T12:06:24.676Z</time>
      </trkpt>
      <trkpt lat="44.7942" lon="1.6677">
        <ele>187</ele>
        <time>2023-09-25T12:06:30Z</time>
      </trkpt>
      <trkpt lat="44.79424" lon="1.66764">
        <ele>188.1</ele>
        <time>2023-09-25T12:06:36.020Z</time>
      </trkpt>
      <trkpt lat="44.79427" lon="1.66757">
        <ele>189.3</ele>
        <time>2023-09-25T12:06:42Z</time>
      </trkpt>
      <trkpt lat="44.79428" lon="1.66745">
        <ele>189.5</ele>
        <time>2023-09-25T12:06:48.522Z</time>
      </trkpt>
      <trkpt lat="44.79428" lon="1.66733">
        <ele>190.2</ele>
        <time>2023-09-25T12:06:55Z</time>
      </trkpt>
      <trkpt lat="44.79421" lon="1.66731">
        <ele>187</ele>
        <time>2023-09-25T12:07:11Z</time>
      </trkpt>
      <trkpt lat="44.79423" lon="1.66722">
        <ele>188.3</ele>
        <time>2023-09-25T12:07:34Z</time>
      </trkpt>
      <trkpt lat="44.79418" lon="1.66712">
        <ele>189.4</ele>
        <time>2023-09-25T12:07:51Z</time>
      </trkpt>
      <trkpt lat="44.79414" lon="1.66709">
        <ele>189.5</ele>
        <time>2023-09-25T12:07:59.163Z</time>
      </trkpt>
      <trkpt lat="44.7941" lon="1.66705">
        <ele>189.7</ele>
        <time>2023-09-25T12:08:08Z</time>
      </trkpt>
      <trkpt lat="44.79407" lon="1.66698">
        <ele>190.5</ele>
        <time>2023-09-25T12:08:13.221Z</time>
      </trkpt>
      <trkpt lat="44.79404" lon="1.6669">
        <ele>190.6</ele>
        <time>2023-09-25T12:08:19Z</time>
      </trkpt>
      <trkpt lat="44.79401" lon="1.66684">
        <ele>190</ele>
        <time>2023-09-25T12:08:23.499Z</time>
      </trkpt>
      <trkpt lat="44.79398" lon="1.66678">
        <ele>189.2</ele>
        <time>2023-09-25T12:08:28Z</time>
      </trkpt>
      <trkpt lat="44.79397" lon="1.66672">
        <ele>189</ele>
        <time>2023-09-25T12:08:32.495Z</time>
      </trkpt>
      <trkpt lat="44.79395" lon="1.66665">
        <ele>188.6</ele>
        <time>2023-09-25T12:08:38Z</time>
      </trkpt>
      <trkpt lat="44.79391" lon="1.66659">
        <ele>186.3</ele>
        <time>2023-09-25T12:08:44.345Z</time>
      </trkpt>
      <trkpt lat="44.79386" lon="1.66652">
        <ele>185.9</ele>
        <time>2023-09-25T12:08:52Z</time>
      </trkpt>
      <trkpt lat="44.79382" lon="1.66646">
        <ele>186.4</ele>
        <time>2023-09-25T12:08:57.499Z</time>
      </trkpt>
      <trkpt lat="44.79378" lon="1.6664">
        <ele>186.4</ele>
        <time>2023-09-25T12:09:03Z</time>
      </trkpt>
      <trkpt lat="44.7938" lon="1.66632">
        <ele>186.3</ele>
        <time>2023-09-25T12:09:09.129Z</time>
      </trkpt>
      <trkpt lat="44.79381" lon="1.66624">
        <ele>186.1</ele>
        <time>2023-09-25T12:09:15Z</time>
      </trkpt>
      <trkpt lat="44.79382" lon="1.66613">
        <ele>186</ele>
        <time>2023-09-25T12:09:21.700Z</time>
      </trkpt>
      <trkpt lat="44.79383" lon="1.66601">
        <ele>186.1</ele>
        <time>2023-09-25T12:09:29Z</time>
      </trkpt>
      <trkpt lat="44.79385" lon="1.66589">
        <ele>186.1</ele>
        <time>2023-09-25T12:09:34.500Z</time>
      </trkpt>
      <trkpt lat="44.79387" lon="1.66577">
        <ele>185.7</ele>
        <time>2023-09-25T12:09:40Z</time>
      </trkpt>
      <trkpt lat="44.79386" lon="1.66567">
        <ele>185.3</ele>
        <time>2023-09-25T12:09:45.719Z</time>
      </trkpt>
      <trkpt lat="44.79385" lon="1.66556">
        <ele>185</ele>
        <time>2023-09-25T12:09:52Z</time>
      </trkpt>
      <trkpt lat="44.79386" lon="1.66547">
        <ele>184.6</ele>
        <time>2023-09-25T12:09:56.767Z</time>
      </trkpt>
      <trkpt lat="44.79386" lon="1.66537">
        <ele>184.3</ele>
        <time>2023-09-25T12:10:02Z</time>
      </trkpt>
      <trkpt lat="44.79389" lon="1.66529">
        <ele>183.2</ele>
        <time>2023-09-25T12:10:07.875Z</time>
      </trkpt>
      <trkpt lat="44.79391" lon="1.6652">
        <ele>183.4</ele>
        <time>2023-09-25T12:10:14Z</time>
      </trkpt>
      <trkpt lat="44.79396" lon="1.66513">
        <ele>184.6</ele>
        <time>2023-09-25T12:10:19.500Z</time>
      </trkpt>
      <trkpt lat="44.79401" lon="1.66506">
        <ele>185.3</ele>
        <time>2023-09-25T12:10:25Z</time>
      </trkpt>
      <trkpt lat="44.79405" lon="1.66498">
        <ele>185.4</ele>
        <time>2023-09-25T12:10:29.464Z</time>
      </trkpt>
      <trkpt lat="44.79408" lon="1.66489">
        <ele>185.7</ele>
        <time>2023-09-25T12:10:34Z</time>
      </trkpt>
      <trkpt lat="44.79411" lon="1.66482">
        <ele>185.3</ele>
        <time>2023-09-25T12:10:38.417Z</time>
      </trkpt>
      <trkpt lat="44.79413" lon="1.66474">
        <ele>184.6</ele>
        <time>2023-09-25T12:10:43Z</time>
      </trkpt>
      <trkpt lat="44.79415" lon="1.66468">
        <ele>183.8</ele>
        <time>2023-09-25T12:10:47.676Z</time>
      </trkpt>
      <trkpt lat="44.79417" lon="1.66461">
        <ele>182.9</ele>
        <time>2023-09-25T12:10:53Z</time>
      </trkpt>
      <trkpt lat="44.7942" lon="1.66455">
        <ele>183.4</ele>
        <time>2023-09-25T12:10:57.730Z</time>
      </trkpt>
      <trkpt lat="44.79423" lon="1.66448">
        <ele>183.8</ele>
        <time>2023-09-25T12:11:03Z</time>
      </trkpt>
      <trkpt lat="44.79427" lon="1.66442">
        <ele>184.7</ele>
        <time>2023-09-25T12:11:08.258Z</time>
      </trkpt>
      <trkpt lat="44.79431" lon="1.66435">
        <ele>185.6</ele>
        <time>2023-09-25T12:11:14Z</time>
      </trkpt>
      <trkpt lat="44.79434" lon="1.66427">
        <ele>185.6</ele>
        <time>2023-09-25T12:11:19.000Z</time>
      </trkpt>
      <trkpt lat="44.79437" lon="1.66419">
        <ele>185</ele>
        <time>2023-09-25T12:11:24Z</time>
      </trkpt>
      <trkpt lat="44.79441" lon="1.66413">
        <ele>184.5</ele>
        <time>2023-09-25T12:11:29.286Z</time>
      </trkpt>
      <trkpt lat="44.79444" lon="1.66407">
        <ele>183.6</ele>
        <time>2023-09-25T12:11:34Z</time>
      </trkpt>
      <trkpt lat="44.79447" lon="1.664">
        <ele>184</ele>
        <time>2023-09-25T12:11:39.000Z</time>
      </trkpt>
      <trkpt lat="44.7945" lon="1.66393">
        <ele>184.3</ele>
        <time>2023-09-25T12:11:44Z</time>
      </trkpt>
      <trkpt lat="44.79453" lon="1.66386">
        <ele>184.7</ele>
        <time>2023-09-25T12:11:48.747Z</time>
      </trkpt>
      <trkpt lat="44.79456" lon="1.66378">
        <ele>184.9</ele>
        <time>2023-09-25T12:11:54Z</time>
      </trkpt>
      <trkpt lat="44.79459" lon="1.66372">
        <ele>184.8</ele>
        <time>2023-09-25T12:11:58.728Z</time>
      </trkpt>
      <trkpt lat="44.79461" lon="1.66366">
        <ele>184.3</ele>
        <time>2023-09-25T12:12:03Z</time>
      </trkpt>
      <trkpt lat="44.79464" lon="1.66359">
        <ele>183.7</ele>
        <time>2023-09-25T12:12:07.747Z</time>
      </trkpt>
      <trkpt lat="44.79467" lon="1.66351">
        <ele>183.2</ele>
        <time>2023-09-25T12:12:13Z</time>
      </trkpt>
      <trkpt lat="44.79469" lon="1.66344">
        <ele>182.2</ele>
        <time>2023-09-25T12:12:17.237Z</time>
      </trkpt>
      <trkpt lat="44.79471" lon="1.66336">
        <ele>180.8</ele>
        <time>2023-09-25T12:12:22Z</time>
      </trkpt>
      <trkpt lat="44.79474" lon="1.66331">
        <ele>181.1</ele>
        <time>2023-09-25T12:12:26.243Z</time>
      </trkpt>
      <trkpt lat="44.79477" lon="1.66325">
        <ele>182.6</ele>
        <time>2023-09-25T12:12:31Z</time>
      </trkpt>
      <trkpt lat="44.79482" lon="1.66315">
        <ele>184</ele>
        <time>2023-09-25T12:13:29Z</time>
      </trkpt>
      <trkpt lat="44.79488" lon="1.66314">
        <ele>183.3</ele>
        <time>2023-09-25T12:13:35.434Z</time>
      </trkpt>
      <trkpt lat="44.79494" lon="1.66312">
        <ele>182.2</ele>
        <time>2023-09-25T12:13:42Z</time>
      </trkpt>
      <trkpt lat="44.79499" lon="1.66313">
        <ele>181.5</ele>
        <time>2023-09-25T12:13:49.254Z</time>
      </trkpt>
      <trkpt lat="44.79503" lon="1.66313">
        <ele>181.5</ele>
        <time>2023-09-25T12:13:55Z</time>
      </trkpt>
      <trkpt lat="44.79506" lon="1.66323">
        <ele>184</ele>
        <time>2023-09-25T12:14:10Z</time>
      </trkpt>
      <trkpt lat="44.79514" lon="1.66326">
        <ele>185.9</ele>
        <time>2023-09-25T12:14:34Z</time>
      </trkpt>
      <trkpt lat="44.79509" lon="1.66321">
        <ele>183.9</ele>
        <time>2023-09-25T12:14:56Z</time>
      </trkpt>
      <trkpt lat="44.79504" lon="1.66319">
        <ele>182.7</ele>
        <time>2023-09-25T12:15:04.310Z</time>
      </trkpt>
      <trkpt lat="44.79499" lon="1.66316">
        <ele>182</ele>
        <time>2023-09-25T12:15:13Z</time>
      </trkpt>
      <trkpt lat="44.79494" lon="1.66314">
        <ele>182.4</ele>
        <time>2023-09-25T12:15:37Z</time>
      </trkpt>
      <trkpt lat="44.79496" lon="1.66315">
        <ele>182.2</ele>
        <time>2023-09-25T12:15:52Z</time>
      </trkpt>
      <trkpt lat="44.79499" lon="1.66322">
        <ele>183</ele>
        <time>2023-09-25T12:16:14Z</time>
      </trkpt>
      <trkpt lat="44.79497" lon="1.66319">
        <ele>182.6</ele>
        <time>2023-09-25T12:16:38Z</time>
      </trkpt>
      <trkpt lat="44.79497" lon="1.66307">
        <ele>181.1</ele>
        <time>2023-09-25T12:17:06Z</time>
      </trkpt>
      <trkpt lat="44.79499" lon="1.66317">
        <ele>182.1</ele>
        <time>2023-09-25T12:17:13.862Z</time>
      </trkpt>
      <trkpt lat="44.79501" lon="1.66326">
        <ele>183.8</ele>
        <time>2023-09-25T12:17:21Z</time>
      </trkpt>
      <trkpt lat="44.79506" lon="1.66336">
        <ele>187.6</ele>
        <time>2023-09-25T12:17:33Z</time>
      </trkpt>
      <trkpt lat="44.79508" lon="1.66331">
        <ele>186.2</ele>
        <time>2023-09-25T12:18:18Z</time>
      </trkpt>
      <trkpt lat="44.79503" lon="1.66325">
        <ele>184</ele>
        <time>2023-09-25T12:18:54Z</time>
      </trkpt>
      <trkpt lat="44.79508" lon="1.66326">
        <ele>184.8</ele>
        <time>2023-09-25T12:19:05.160Z</time>
      </trkpt>
      <trkpt lat="44.79512" lon="1.66326">
        <ele>185.6</ele>
        <time>2023-09-25T12:19:14Z</time>
      </trkpt>
      <trkpt lat="44.79515" lon="1.66324">
        <ele>185.5</ele>
        <time>2023-09-25T12:19:44Z</time>
      </trkpt>
      <trkpt lat="44.79518" lon="1.66324">
        <ele>185.9</ele>
        <time>2023-09-25T12:20:05Z</time>
      </trkpt>
      <trkpt lat="44.79513" lon="1.66319">
        <ele>183.8</ele>
        <time>2023-09-25T12:20:15.499Z</time>
      </trkpt>
      <trkpt lat="44.79508" lon="1.66314">
        <ele>182</ele>
        <time>2023-09-25T12:20:26Z</time>
      </trkpt>
      <trkpt lat="44.79509" lon="1.66318">
        <ele>183.1</ele>
        <time>2023-09-25T12:20:50Z</time>
      </trkpt>
      <trkpt lat="44.79511" lon="1.66328">
        <ele>186</ele>
        <time>2023-09-25T12:21:04Z</time>
      </trkpt>
      <trkpt lat="44.79512" lon="1.66322">
        <ele>184.5</ele>
        <time>2023-09-25T12:21:33Z</time>
      </trkpt>
      <trkpt lat="44.79518" lon="1.66321">
        <ele>184.9</ele>
        <time>2023-09-25T12:21:40.625Z</time>
      </trkpt>
      <trkpt lat="44.79523" lon="1.6632">
        <ele>185.2</ele>
        <time>2023-09-25T12:21:47Z</time>
      </trkpt>
      <trkpt lat="44.79524" lon="1.66308">
        <ele>180.9</ele>
        <time>2023-09-25T12:21:59Z</time>
      </trkpt>
      <trkpt lat="44.79526" lon="1.66303">
        <ele>180.3</ele>
        <time>2023-09-25T12:22:17Z</time>
      </trkpt>
      <trkpt lat="44.79531" lon="1.663">
        <ele>180.8</ele>
        <time>2023-09-25T12:22:22.344Z</time>
      </trkpt>
      <trkpt lat="44.79536" lon="1.66296">
        <ele>181.2</ele>
        <time>2023-09-25T12:22:28Z</time>
      </trkpt>
      <trkpt lat="44.79542" lon="1.66294">
        <ele>181.3</ele>
        <time>2023-09-25T12:22:32.883Z</time>
      </trkpt>
      <trkpt lat="44.79547" lon="1.66292">
        <ele>181.2</ele>
        <time>2023-09-25T12:22:37Z</time>
      </trkpt>
      <trkpt lat="44.79555" lon="1.66291">
        <ele>180.9</ele>
        <time>2023-09-25T12:22:42.863Z</time>
      </trkpt>
      <trkpt lat="44.79562" lon="1.6629">
        <ele>182.9</ele>
        <time>2023-09-25T12:22:48Z</time>
      </trkpt>
      <trkpt lat="44.79568" lon="1.66286">
        <ele>183.2</ele>
        <time>2023-09-25T12:22:53.500Z</time>
      </trkpt>
      <trkpt lat="44.79574" lon="1.66282">
        <ele>182.2</ele>
        <time>2023-09-25T12:22:59Z</time>
      </trkpt>
      <trkpt lat="44.79578" lon="1.66279">
        <ele>180.7</ele>
        <time>2023-09-25T12:23:02.810Z</time>
      </trkpt>
      <trkpt lat="44.79583" lon="1.66276">
        <ele>179.9</ele>
        <time>2023-09-25T12:23:07.379Z</time>
      </trkpt>
      <trkpt lat="44.79587" lon="1.66273">
        <ele>181.1</ele>
        <time>2023-09-25T12:23:11.189Z</time>
      </trkpt>
      <trkpt lat="44.79591" lon="1.6627">
        <ele>182.3</ele>
        <time>2023-09-25T12:23:15Z</time>
      </trkpt>
      <trkpt lat="44.79596" lon="1.66265">
        <ele>183</ele>
        <time>2023-09-25T12:23:20.311Z</time>
      </trkpt>
      <trkpt lat="44.79601" lon="1.66259">
        <ele>183.1</ele>
        <time>2023-09-25T12:23:26Z</time>
      </trkpt>
      <trkpt lat="44.79606" lon="1.66256">
        <ele>183</ele>
        <time>2023-09-25T12:23:31.781Z</time>
      </trkpt>
      <trkpt lat="44.7961" lon="1.66252">
        <ele>182.6</ele>
        <time>2023-09-25T12:23:37Z</time>
      </trkpt>
      <trkpt lat="44.79614" lon="1.66248">
        <ele>182.4</ele>
        <time>2023-09-25T12:23:43.162Z</time>
      </trkpt>
      <trkpt lat="44.79617" lon="1.66243">
        <ele>182.5</ele>
        <time>2023-09-25T12:23:49Z</time>
      </trkpt>
      <trkpt lat="44.79625" lon="1.66239">
        <ele>183.5</ele>
        <time>2023-09-25T12:23:55.500Z</time>
      </trkpt>
      <trkpt lat="44.79633" lon="1.66235">
        <ele>184</ele>
        <time>2023-09-25T12:24:02Z</time>
      </trkpt>
      <trkpt lat="44.79641" lon="1.66231">
        <ele>183.6</ele>
        <time>2023-09-25T12:24:07.196Z</time>
      </trkpt>
      <trkpt lat="44.79648" lon="1.66226">
        <ele>183.2</ele>
        <time>2023-09-25T12:24:12Z</time>
      </trkpt>
      <trkpt lat="44.79653" lon="1.66223">
        <ele>182.7</ele>
        <time>2023-09-25T12:24:16.373Z</time>
      </trkpt>
      <trkpt lat="44.79658" lon="1.66219">
        <ele>182.8</ele>
        <time>2023-09-25T12:24:21Z</time>
      </trkpt>
      <trkpt lat="44.79662" lon="1.66215">
        <ele>182.4</ele>
        <time>2023-09-25T12:24:26.262Z</time>
      </trkpt>
      <trkpt lat="44.79666" lon="1.6621">
        <ele>181.8</ele>
        <time>2023-09-25T12:24:32Z</time>
      </trkpt>
      <trkpt lat="44.79668" lon="1.66207">
        <ele>181.4</ele>
        <time>2023-09-25T12:24:46Z</time>
      </trkpt>
      <trkpt lat="44.79666" lon="1.66209">
        <ele>181.6</ele>
        <time>2023-09-25T12:25:06Z</time>
      </trkpt>
      <trkpt lat="44.79664" lon="1.66208">
        <ele>181.1</ele>
        <time>2023-09-25T12:25:30Z</time>
      </trkpt>
      <trkpt lat="44.79662" lon="1.66204">
        <ele>180</ele>
        <time>2023-09-25T12:25:51Z</time>
      </trkpt>
      <trkpt lat="44.79656" lon="1.66197">
        <ele>178.1</ele>
        <time>2023-09-25T12:26:08Z</time>
      </trkpt>
      <trkpt lat="44.79649" lon="1.66193">
        <ele>177.6</ele>
        <time>2023-09-25T12:26:31Z</time>
      </trkpt>
      <trkpt lat="44.79653" lon="1.662">
        <ele>178.5</ele>
        <time>2023-09-25T12:26:50Z</time>
      </trkpt>
      <trkpt lat="44.7965" lon="1.66194">
        <ele>177.5</ele>
        <time>2023-09-25T12:27:09Z</time>
      </trkpt>
      <trkpt lat="44.79654" lon="1.66184">
        <ele>178.7</ele>
        <time>2023-09-25T12:27:29Z</time>
      </trkpt>
      <trkpt lat="44.79661" lon="1.66184">
        <ele>178.2</ele>
        <time>2023-09-25T12:27:38.124Z</time>
      </trkpt>
      <trkpt lat="44.79667" lon="1.66183">
        <ele>177.6</ele>
        <time>2023-09-25T12:27:46Z</time>
      </trkpt>
      <trkpt lat="44.79675" lon="1.66182">
        <ele>178.3</ele>
        <time>2023-09-25T12:27:58Z</time>
      </trkpt>
      <trkpt lat="44.79672" lon="1.66191">
        <ele>178.6</ele>
        <time>2023-09-25T12:28:14Z</time>
      </trkpt>
      <trkpt lat="44.79672" lon="1.66184">
        <ele>178.2</ele>
        <time>2023-09-25T12:28:30Z</time>
      </trkpt>
      <trkpt lat="44.79671" lon="1.66178">
        <ele>177.7</ele>
        <time>2023-09-25T12:28:36.485Z</time>
      </trkpt>
      <trkpt lat="44.7967" lon="1.66171">
        <ele>177.3</ele>
        <time>2023-09-25T12:28:44Z</time>
      </trkpt>
      <trkpt lat="44.79678" lon="1.66167">
        <ele>177.4</ele>
        <time>2023-09-25T12:29:00Z</time>
      </trkpt>
      <trkpt lat="44.79684" lon="1.66165">
        <ele>177.9</ele>
        <time>2023-09-25T12:29:05.000Z</time>
      </trkpt>
      <trkpt lat="44.7969" lon="1.66163">
        <ele>178.2</ele>
        <time>2023-09-25T12:29:10Z</time>
      </trkpt>
      <trkpt lat="44.79693" lon="1.66154">
        <ele>178.6</ele>
        <time>2023-09-25T12:29:28Z</time>
      </trkpt>
      <trkpt lat="44.79698" lon="1.66153">
        <ele>178.4</ele>
        <time>2023-09-25T12:29:37.500Z</time>
      </trkpt>
      <trkpt lat="44.79703" lon="1.66152">
        <ele>178.2</ele>
        <time>2023-09-25T12:29:47Z</time>
      </trkpt>
      <trkpt lat="44.79707" lon="1.66158">
        <ele>178.2</ele>
        <time>2023-09-25T12:29:53.000Z</time>
      </trkpt>
      <trkpt lat="44.79711" lon="1.66164">
        <ele>178.5</ele>
        <time>2023-09-25T12:29:59Z</time>
      </trkpt>
      <trkpt lat="44.79717" lon="1.66168">
        <ele>179.2</ele>
        <time>2023-09-25T12:30:15Z</time>
      </trkpt>
      <trkpt lat="44.79721" lon="1.66161">
        <ele>178.4</ele>
        <time>2023-09-25T12:30:20.759Z</time>
      </trkpt>
      <trkpt lat="44.79724" lon="1.66154">
        <ele>177.7</ele>
        <time>2023-09-25T12:30:26Z</time>
      </trkpt>
      <trkpt lat="44.79728" lon="1.6615">
        <ele>177.4</ele>
        <time>2023-09-25T12:30:30.500Z</time>
      </trkpt>
      <trkpt lat="44.79732" lon="1.66146">
        <ele>177</ele>
        <time>2023-09-25T12:30:35Z</time>
      </trkpt>
      <trkpt lat="44.79739" lon="1.66144">
        <ele>176.9</ele>
        <time>2023-09-25T12:30:40.903Z</time>
      </trkpt>
      <trkpt lat="44.79745" lon="1.66142">
        <ele>176.6</ele>
        <time>2023-09-25T12:30:46Z</time>
      </trkpt>
      <trkpt lat="44.79751" lon="1.66138">
        <ele>176.2</ele>
        <time>2023-09-25T12:30:51.198Z</time>
      </trkpt>
      <trkpt lat="44.79756" lon="1.66133">
        <ele>177</ele>
        <time>2023-09-25T12:30:56Z</time>
      </trkpt>
      <trkpt lat="44.79763" lon="1.66133">
        <ele>177.2</ele>
        <time>2023-09-25T12:31:00.987Z</time>
      </trkpt>
      <trkpt lat="44.7977" lon="1.66132">
        <ele>177.4</ele>
        <time>2023-09-25T12:31:06Z</time>
      </trkpt>
      <trkpt lat="44.79776" lon="1.66131">
        <ele>177.4</ele>
        <time>2023-09-25T12:31:10.902Z</time>
      </trkpt>
      <trkpt lat="44.79781" lon="1.6613">
        <ele>177.7</ele>
        <time>2023-09-25T12:31:15Z</time>
      </trkpt>
      <trkpt lat="44.79787" lon="1.66127">
        <ele>177.9</ele>
        <time>2023-09-25T12:31:19.855Z</time>
      </trkpt>
      <trkpt lat="44.79792" lon="1.66124">
        <ele>177.9</ele>
        <time>2023-09-25T12:31:24Z</time>
      </trkpt>
      <trkpt lat="44.79798" lon="1.66119">
        <ele>177.4</ele>
        <time>2023-09-25T12:31:28.788Z</time>
      </trkpt>
      <trkpt lat="44.79803" lon="1.66114">
        <ele>176.6</ele>
        <time>2023-09-25T12:31:33Z</time>
      </trkpt>
      <trkpt lat="44.79808" lon="1.66111">
        <ele>176.1</ele>
        <time>2023-09-25T12:31:37.373Z</time>
      </trkpt>
      <trkpt lat="44.79813" lon="1.66107">
        <ele>176.7</ele>
        <time>2023-09-25T12:31:42Z</time>
      </trkpt>
      <trkpt lat="44.79819" lon="1.66105">
        <ele>177</ele>
        <time>2023-09-25T12:31:47.425Z</time>
      </trkpt>
      <trkpt lat="44.79824" lon="1.66103">
        <ele>177.3</ele>
        <time>2023-09-25T12:31:52Z</time>
      </trkpt>
      <trkpt lat="44.79829" lon="1.66103">
        <ele>177.2</ele>
        <time>2023-09-25T12:31:55.888Z</time>
      </trkpt>
      <trkpt lat="44.79833" lon="1.66103">
        <ele>177.2</ele>
        <time>2023-09-25T12:31:58.999Z</time>
      </trkpt>
      <trkpt lat="44.79838" lon="1.66103">
        <ele>177.3</ele>
        <time>2023-09-25T12:32:02.888Z</time>
      </trkpt>
      <trkpt lat="44.79842" lon="1.66103">
        <ele>177.4</ele>
        <time>2023-09-25T12:32:06Z</time>
      </trkpt>
      <trkpt lat="44.79847" lon="1.66103">
        <ele>177.4</ele>
        <time>2023-09-25T12:32:09.875Z</time>
      </trkpt>
      <trkpt lat="44.79851" lon="1.66104">
        <ele>177.4</ele>
        <time>2023-09-25T12:32:13.023Z</time>
      </trkpt>
      <trkpt lat="44.79856" lon="1.66104">
        <ele>177.5</ele>
        <time>2023-09-25T12:32:16.899Z</time>
      </trkpt>
      <trkpt lat="44.7986" lon="1.66104">
        <ele>177.5</ele>
        <time>2023-09-25T12:32:20Z</time>
      </trkpt>
      <trkpt lat="44.79866" lon="1.66104">
        <ele>177.5</ele>
        <time>2023-09-25T12:32:25.500Z</time>
      </trkpt>
      <trkpt lat="44.79872" lon="1.66104">
        <ele>177.3</ele>
        <time>2023-09-25T12:32:31Z</time>
      </trkpt>
      <trkpt lat="44.79878" lon="1.66104">
        <ele>177.2</ele>
        <time>2023-09-25T12:32:35.173Z</time>
      </trkpt>
      <trkpt lat="44.79884" lon="1.66104">
        <ele>177.1</ele>
        <time>2023-09-25T12:32:39.347Z</time>
      </trkpt>
      <trkpt lat="44.79889" lon="1.66104">
        <ele>177</ele>
        <time>2023-09-25T12:32:42.825Z</time>
      </trkpt>
      <trkpt lat="44.79895" lon="1.66104">
        <ele>176.7</ele>
        <time>2023-09-25T12:32:47Z</time>
      </trkpt>
      <trkpt lat="44.79901" lon="1.66106">
        <ele>175.9</ele>
        <time>2023-09-25T12:32:52.425Z</time>
      </trkpt>
      <trkpt lat="44.79906" lon="1.66108">
        <ele>175.1</ele>
        <time>2023-09-25T12:32:57Z</time>
      </trkpt>
      <trkpt lat="44.79915" lon="1.66108">
        <ele>174.8</ele>
        <time>2023-09-25T12:33:02.823Z</time>
      </trkpt>
      <trkpt lat="44.79923" lon="1.66108">
        <ele>174.7</ele>
        <time>2023-09-25T12:33:08Z</time>
      </trkpt>
      <trkpt lat="44.79928" lon="1.66107">
        <ele>174.9</ele>
        <time>2023-09-25T12:33:11.942Z</time>
      </trkpt>
      <trkpt lat="44.79933" lon="1.66105">
        <ele>175</ele>
        <time>2023-09-25T12:33:16Z</time>
      </trkpt>
      <trkpt lat="44.79938" lon="1.66102">
        <ele>175</ele>
        <time>2023-09-25T12:33:20.907Z</time>
      </trkpt>
      <trkpt lat="44.79942" lon="1.66099">
        <ele>174.7</ele>
        <time>2023-09-25T12:33:25Z</time>
      </trkpt>
      <trkpt lat="44.79948" lon="1.66091">
        <ele>175.5</ele>
        <time>2023-09-25T12:33:33Z</time>
      </trkpt>
      <trkpt lat="44.79952" lon="1.66086">
        <ele>176.6</ele>
        <time>2023-09-25T12:33:38.000Z</time>
      </trkpt>
      <trkpt lat="44.79956" lon="1.66081">
        <ele>177.5</ele>
        <time>2023-09-25T12:33:43Z</time>
      </trkpt>
      <trkpt lat="44.79959" lon="1.66075">
        <ele>177.8</ele>
        <time>2023-09-25T12:33:47.500Z</time>
      </trkpt>
      <trkpt lat="44.79962" lon="1.66069">
        <ele>177.9</ele>
        <time>2023-09-25T12:33:52Z</time>
      </trkpt>
      <trkpt lat="44.79965" lon="1.66064">
        <ele>177.8</ele>
        <time>2023-09-25T12:33:57.657Z</time>
      </trkpt>
      <trkpt lat="44.79968" lon="1.66058">
        <ele>177.6</ele>
        <time>2023-09-25T12:34:04Z</time>
      </trkpt>
      <trkpt lat="44.79969" lon="1.66049">
        <ele>176.8</ele>
        <time>2023-09-25T12:34:08.500Z</time>
      </trkpt>
      <trkpt lat="44.7997" lon="1.6604">
        <ele>176.1</ele>
        <time>2023-09-25T12:34:13Z</time>
      </trkpt>
      <trkpt lat="44.79972" lon="1.66032">
        <ele>175.3</ele>
        <time>2023-09-25T12:34:17.339Z</time>
      </trkpt>
      <trkpt lat="44.79973" lon="1.66023">
        <ele>175.4</ele>
        <time>2023-09-25T12:34:22Z</time>
      </trkpt>
      <trkpt lat="44.79975" lon="1.66016">
        <ele>176.1</ele>
        <time>2023-09-25T12:34:26.624Z</time>
      </trkpt>
      <trkpt lat="44.79976" lon="1.66009">
        <ele>176.7</ele>
        <time>2023-09-25T12:34:31Z</time>
      </trkpt>
      <trkpt lat="44.79977" lon="1.65999">
        <ele>176.7</ele>
        <time>2023-09-25T12:34:35.500Z</time>
      </trkpt>
      <trkpt lat="44.79978" lon="1.65989">
        <ele>176.4</ele>
        <time>2023-09-25T12:34:40Z</time>
      </trkpt>
      <trkpt lat="44.79981" lon="1.65982">
        <ele>176.9</ele>
        <time>2023-09-25T12:34:44.272Z</time>
      </trkpt>
      <trkpt lat="44.79984" lon="1.65974">
        <ele>177.1</ele>
        <time>2023-09-25T12:34:49Z</time>
      </trkpt>
      <trkpt lat="44.79986" lon="1.65968">
        <ele>177</ele>
        <time>2023-09-25T12:34:53.745Z</time>
      </trkpt>
      <trkpt lat="44.79989" lon="1.65962">
        <ele>176.6</ele>
        <time>2023-09-25T12:34:59Z</time>
      </trkpt>
      <trkpt lat="44.79994" lon="1.65956">
        <ele>176.2</ele>
        <time>2023-09-25T12:35:22Z</time>
      </trkpt>
      <trkpt lat="44.80001" lon="1.65948">
        <ele>175.3</ele>
        <time>2023-09-25T12:35:34Z</time>
      </trkpt>
      <trkpt lat="44.80008" lon="1.65941">
        <ele>177.2</ele>
        <time>2023-09-25T12:35:50Z</time>
      </trkpt>
      <trkpt lat="44.80011" lon="1.65936">
        <ele>177.7</ele>
        <time>2023-09-25T12:35:58.000Z</time>
      </trkpt>
      <trkpt lat="44.80014" lon="1.65931">
        <ele>177.9</ele>
        <time>2023-09-25T12:36:06Z</time>
      </trkpt>
      <trkpt lat="44.80019" lon="1.65926">
        <ele>178.4</ele>
        <time>2023-09-25T12:36:11.000Z</time>
      </trkpt>
      <trkpt lat="44.80024" lon="1.65921">
        <ele>178.4</ele>
        <time>2023-09-25T12:36:16Z</time>
      </trkpt>
      <trkpt lat="44.80027" lon="1.65915">
        <ele>177.5</ele>
        <time>2023-09-25T12:36:21.500Z</time>
      </trkpt>
      <trkpt lat="44.8003" lon="1.65909">
        <ele>177.3</ele>
        <time>2023-09-25T12:36:27Z</time>
      </trkpt>
      <trkpt lat="44.8003" lon="1.65902">
        <ele>175.7</ele>
        <time>2023-09-25T12:36:33.500Z</time>
      </trkpt>
      <trkpt lat="44.8003" lon="1.65895">
        <ele>174.2</ele>
        <time>2023-09-25T12:36:40Z</time>
      </trkpt>
      <trkpt lat="44.80032" lon="1.65889">
        <ele>173.4</ele>
        <time>2023-09-25T12:36:45.182Z</time>
      </trkpt>
      <trkpt lat="44.80033" lon="1.65883">
        <ele>173.8</ele>
        <time>2023-09-25T12:36:50Z</time>
      </trkpt>
      <trkpt lat="44.80035" lon="1.65874">
        <ele>174</ele>
        <time>2023-09-25T12:36:54.000Z</time>
      </trkpt>
      <trkpt lat="44.80037" lon="1.65865">
        <ele>173.9</ele>
        <time>2023-09-25T12:36:58Z</time>
      </trkpt>
      <trkpt lat="44.80041" lon="1.65859">
        <ele>174.2</ele>
        <time>2023-09-25T12:37:02.500Z</time>
      </trkpt>
      <trkpt lat="44.80045" lon="1.65853">
        <ele>174.7</ele>
        <time>2023-09-25T12:37:07Z</time>
      </trkpt>
      <trkpt lat="44.80049" lon="1.65849">
        <ele>174.3</ele>
        <time>2023-09-25T12:37:11.305Z</time>
      </trkpt>
      <trkpt lat="44.80053" lon="1.65844">
        <ele>173.2</ele>
        <time>2023-09-25T12:37:16Z</time>
      </trkpt>
      <trkpt lat="44.80054" lon="1.65836">
        <ele>172</ele>
        <time>2023-09-25T12:37:22.000Z</time>
      </trkpt>
      <trkpt lat="44.80055" lon="1.65828">
        <ele>171.1</ele>
        <time>2023-09-25T12:37:28Z</time>
      </trkpt>
      <trkpt lat="44.80059" lon="1.6582">
        <ele>172</ele>
        <time>2023-09-25T12:37:33.195Z</time>
      </trkpt>
      <trkpt lat="44.80062" lon="1.65812">
        <ele>173.5</ele>
        <time>2023-09-25T12:37:38Z</time>
      </trkpt>
      <trkpt lat="44.80064" lon="1.65805">
        <ele>174.4</ele>
        <time>2023-09-25T12:37:43.178Z</time>
      </trkpt>
      <trkpt lat="44.80066" lon="1.65797">
        <ele>176.8</ele>
        <time>2023-09-25T12:37:49Z</time>
      </trkpt>
      <trkpt lat="44.80066" lon="1.65789">
        <ele>178.2</ele>
        <time>2023-09-25T12:37:55.500Z</time>
      </trkpt>
      <trkpt lat="44.80066" lon="1.65781">
        <ele>179.6</ele>
        <time>2023-09-25T12:38:02Z</time>
      </trkpt>
      <trkpt lat="44.80064" lon="1.6577">
        <ele>178.5</ele>
        <time>2023-09-25T12:38:19Z</time>
      </trkpt>
      <trkpt lat="44.80058" lon="1.65761">
        <ele>174</ele>
        <time>2023-09-25T12:38:33Z</time>
      </trkpt>
      <trkpt lat="44.80058" lon="1.65749">
        <ele>175.2</ele>
        <time>2023-09-25T12:38:54Z</time>
      </trkpt>
      <trkpt lat="44.80054" lon="1.65746">
        <ele>173.6</ele>
        <time>2023-09-25T12:38:59.999Z</time>
      </trkpt>
      <trkpt lat="44.8005" lon="1.65743">
        <ele>173.7</ele>
        <time>2023-09-25T12:39:06Z</time>
      </trkpt>
      <trkpt lat="44.80047" lon="1.65736">
        <ele>174.1</ele>
        <time>2023-09-25T12:39:11.240Z</time>
      </trkpt>
      <trkpt lat="44.80043" lon="1.65729">
        <ele>174</ele>
        <time>2023-09-25T12:39:17Z</time>
      </trkpt>
      <trkpt lat="44.80039" lon="1.65722">
        <ele>173.3</ele>
        <time>2023-09-25T12:39:34Z</time>
      </trkpt>
      <trkpt lat="44.80037" lon="1.65715">
        <ele>173.7</ele>
        <time>2023-09-25T12:39:40.920Z</time>
      </trkpt>
      <trkpt lat="44.80035" lon="1.65709">
        <ele>173.8</ele>
        <time>2023-09-25T12:39:47Z</time>
      </trkpt>
      <trkpt lat="44.80031" lon="1.65701">
        <ele>172.6</ele>
        <time>2023-09-25T12:39:51.691Z</time>
      </trkpt>
      <trkpt lat="44.80027" lon="1.65694">
        <ele>171.2</ele>
        <time>2023-09-25T12:39:56Z</time>
      </trkpt>
      <trkpt lat="44.80024" lon="1.65687">
        <ele>172.1</ele>
        <time>2023-09-25T12:40:00.096Z</time>
      </trkpt>
      <trkpt lat="44.8002" lon="1.65679">
        <ele>172.2</ele>
        <time>2023-09-25T12:40:05Z</time>
      </trkpt>
      <trkpt lat="44.80015" lon="1.65671">
        <ele>171.3</ele>
        <time>2023-09-25T12:40:16Z</time>
      </trkpt>
      <trkpt lat="44.80011" lon="1.65666">
        <ele>170.2</ele>
        <time>2023-09-25T12:40:21.300Z</time>
      </trkpt>
      <trkpt lat="44.80006" lon="1.65662">
        <ele>170</ele>
        <time>2023-09-25T12:40:27Z</time>
      </trkpt>
      <trkpt lat="44.79999" lon="1.65659">
        <ele>169.4</ele>
        <time>2023-09-25T12:40:32.160Z</time>
      </trkpt>
      <trkpt lat="44.79991" lon="1.65656">
        <ele>170.1</ele>
        <time>2023-09-25T12:40:38Z</time>
      </trkpt>
      <trkpt lat="44.79987" lon="1.65654">
        <ele>170.3</ele>
        <time>2023-09-25T12:40:43.843Z</time>
      </trkpt>
      <trkpt lat="44.79982" lon="1.65652">
        <ele>170.4</ele>
        <time>2023-09-25T12:40:51Z</time>
      </trkpt>
      <trkpt lat="44.79978" lon="1.6565">
        <ele>170.4</ele>
        <time>2023-09-25T12:40:56.394Z</time>
      </trkpt>
      <trkpt lat="44.79973" lon="1.65648">
        <ele>170.3</ele>
        <time>2023-09-25T12:41:03Z</time>
      </trkpt>
      <trkpt lat="44.79968" lon="1.65647">
        <ele>170.2</ele>
        <time>2023-09-25T12:41:07.435Z</time>
      </trkpt>
      <trkpt lat="44.79963" lon="1.65645">
        <ele>170.1</ele>
        <time>2023-09-25T12:41:12Z</time>
      </trkpt>
      <trkpt lat="44.79958" lon="1.65645">
        <ele>170.1</ele>
        <time>2023-09-25T12:41:16.528Z</time>
      </trkpt>
      <trkpt lat="44.79952" lon="1.65644">
        <ele>170.1</ele>
        <time>2023-09-25T12:41:22Z</time>
      </trkpt>
      <trkpt lat="44.79946" lon="1.65644">
        <ele>170.1</ele>
        <time>2023-09-25T12:41:27.480Z</time>
      </trkpt>
      <trkpt lat="44.7994" lon="1.65643">
        <ele>170.1</ele>
        <time>2023-09-25T12:41:33Z</time>
      </trkpt>
      <trkpt lat="44.79936" lon="1.65643">
        <ele>170.1</ele>
        <time>2023-09-25T12:41:35.888Z</time>
      </trkpt>
      <trkpt lat="44.79931" lon="1.65643">
        <ele>170.1</ele>
        <time>2023-09-25T12:41:39.499Z</time>
      </trkpt>
      <trkpt lat="44.79927" lon="1.65643">
        <ele>170.1</ele>
        <time>2023-09-25T12:41:42.388Z</time>
      </trkpt>
      <trkpt lat="44.79922" lon="1.65643">
        <ele>170.2</ele>
        <time>2023-09-25T12:41:46Z</time>
      </trkpt>
      <trkpt lat="44.79917" lon="1.65639">
        <ele>169</ele>
        <time>2023-09-25T12:41:50.641Z</time>
      </trkpt>
      <trkpt lat="44.79911" lon="1.65635">
        <ele>168.9</ele>
        <time>2023-09-25T12:41:56Z</time>
      </trkpt>
      <trkpt lat="44.79905" lon="1.65632">
        <ele>169</ele>
        <time>2023-09-25T12:42:00.406Z</time>
      </trkpt>
      <trkpt lat="44.79899" lon="1.65628">
        <ele>169.1</ele>
        <time>2023-09-25T12:42:05Z</time>
      </trkpt>
      <trkpt lat="44.79894" lon="1.65633">
        <ele>169.1</ele>
        <time>2023-09-25T12:42:11.192Z</time>
      </trkpt>
      <trkpt lat="44.79889" lon="1.65637">
        <ele>169.1</ele>
        <time>2023-09-25T12:42:17Z</time>
      </trkpt>
      <trkpt lat="44.79882" lon="1.65639">
        <ele>169.5</ele>
        <time>2023-09-25T12:42:22.499Z</time>
      </trkpt>
      <trkpt lat="44.79875" lon="1.65641">
        <ele>170.8</ele>
        <time>2023-09-25T12:42:28Z</time>
      </trkpt>
      <trkpt lat="44.79869" lon="1.65636">
        <ele>170.3</ele>
        <time>2023-09-25T12:42:33.174Z</time>
      </trkpt>
      <trkpt lat="44.79862" lon="1.65631">
        <ele>170.1</ele>
        <time>2023-09-25T12:42:39Z</time>
      </trkpt>
      <trkpt lat="44.79858" lon="1.65623">
        <ele>171.1</ele>
        <time>2023-09-25T12:42:44.996Z</time>
      </trkpt>
      <trkpt lat="44.79853" lon="1.65614">
        <ele>172.7</ele>
        <time>2023-09-25T12:42:52Z</time>
      </trkpt>
      <trkpt lat="44.79854" lon="1.65602">
        <ele>171.7</ele>
        <time>2023-09-25T12:42:59.023Z</time>
      </trkpt>
      <trkpt lat="44.79854" lon="1.6559">
        <ele>170.9</ele>
        <time>2023-09-25T12:43:06Z</time>
      </trkpt>
      <trkpt lat="44.79852" lon="1.65583">
        <ele>171.9</ele>
        <time>2023-09-25T12:43:14.158Z</time>
      </trkpt>
      <trkpt lat="44.79849" lon="1.65576">
        <ele>175.1</ele>
        <time>2023-09-25T12:43:23Z</time>
      </trkpt>
      <trkpt lat="44.79853" lon="1.6557">
        <ele>173.6</ele>
        <time>2023-09-25T12:43:30.649Z</time>
      </trkpt>
      <trkpt lat="44.79857" lon="1.65563">
        <ele>170.9</ele>
        <time>2023-09-25T12:43:39Z</time>
      </trkpt>
      <trkpt lat="44.79862" lon="1.65557">
        <ele>167.2</ele>
        <time>2023-09-25T12:43:44.582Z</time>
      </trkpt>
      <trkpt lat="44.79868" lon="1.65551">
        <ele>169.8</ele>
        <time>2023-09-25T12:43:50.835Z</time>
      </trkpt>
      <trkpt lat="44.79873" lon="1.65545">
        <ele>171.4</ele>
        <time>2023-09-25T12:43:56.417Z</time>
      </trkpt>
      <trkpt lat="44.79878" lon="1.65539">
        <ele>171.4</ele>
        <time>2023-09-25T12:44:02Z</time>
      </trkpt>
      <trkpt lat="44.79884" lon="1.65536">
        <ele>169.4</ele>
        <time>2023-09-25T12:44:08.364Z</time>
      </trkpt>
      <trkpt lat="44.7989" lon="1.65532">
        <ele>167.3</ele>
        <time>2023-09-25T12:44:15Z</time>
      </trkpt>
      <trkpt lat="44.79889" lon="1.65522">
        <ele>166</ele>
        <time>2023-09-25T12:44:20.242Z</time>
      </trkpt>
      <trkpt lat="44.79888" lon="1.65511">
        <ele>166.5</ele>
        <time>2023-09-25T12:44:26Z</time>
      </trkpt>
      <trkpt lat="44.79885" lon="1.65503">
        <ele>168.3</ele>
        <time>2023-09-25T12:44:31.717Z</time>
      </trkpt>
      <trkpt lat="44.79882" lon="1.65494">
        <ele>169.4</ele>
        <time>2023-09-25T12:44:38Z</time>
      </trkpt>
      <trkpt lat="44.7988" lon="1.65487">
        <ele>169.7</ele>
        <time>2023-09-25T12:44:42.799Z</time>
      </trkpt>
      <trkpt lat="44.79877" lon="1.6548">
        <ele>169.5</ele>
        <time>2023-09-25T12:44:48Z</time>
      </trkpt>
      <trkpt lat="44.79875" lon="1.65474">
        <ele>168.8</ele>
        <time>2023-09-25T12:44:53.144Z</time>
      </trkpt>
      <trkpt lat="44.79873" lon="1.65467">
        <ele>169.1</ele>
        <time>2023-09-25T12:44:59Z</time>
      </trkpt>
      <trkpt lat="44.7987" lon="1.65461">
        <ele>169.3</ele>
        <time>2023-09-25T12:45:06.999Z</time>
      </trkpt>
      <trkpt lat="44.79867" lon="1.65455">
        <ele>169</ele>
        <time>2023-09-25T12:45:15Z</time>
      </trkpt>
      <trkpt lat="44.79864" lon="1.65447">
        <ele>168</ele>
        <time>2023-09-25T12:45:23.499Z</time>
      </trkpt>
      <trkpt lat="44.79861" lon="1.65439">
        <ele>166.9</ele>
        <time>2023-09-25T12:45:32Z</time>
      </trkpt>
      <trkpt lat="44.7986" lon="1.65428">
        <ele>167.3</ele>
        <time>2023-09-25T12:45:53Z</time>
      </trkpt>
      <trkpt lat="44.79861" lon="1.6542">
        <ele>166.6</ele>
        <time>2023-09-25T12:46:00.115Z</time>
      </trkpt>
      <trkpt lat="44.79861" lon="1.65411">
        <ele>166.5</ele>
        <time>2023-09-25T12:46:08Z</time>
      </trkpt>
      <trkpt lat="44.79864" lon="1.65404">
        <ele>167.7</ele>
        <time>2023-09-25T12:46:15.363Z</time>
      </trkpt>
      <trkpt lat="44.79866" lon="1.65396">
        <ele>168.6</ele>
        <time>2023-09-25T12:46:23Z</time>
      </trkpt>
      <trkpt lat="44.79869" lon="1.65387">
        <ele>169.1</ele>
        <time>2023-09-25T12:46:28.736Z</time>
      </trkpt>
      <trkpt lat="44.79872" lon="1.65377">
        <ele>169</ele>
        <time>2023-09-25T12:46:35Z</time>
      </trkpt>
      <trkpt lat="44.79875" lon="1.65367">
        <ele>168</ele>
        <time>2023-09-25T12:46:43.000Z</time>
      </trkpt>
      <trkpt lat="44.79878" lon="1.65357">
        <ele>166.9</ele>
        <time>2023-09-25T12:46:51Z</time>
      </trkpt>
      <trkpt lat="44.7988" lon="1.65349">
        <ele>166.3</ele>
        <time>2023-09-25T12:46:59.000Z</time>
      </trkpt>
      <trkpt lat="44.79882" lon="1.65341">
        <ele>165.4</ele>
        <time>2023-09-25T12:47:07Z</time>
      </trkpt>
      <trkpt lat="44.79884" lon="1.65331">
        <ele>164.2</ele>
        <time>2023-09-25T12:47:29Z</time>
      </trkpt>
      <trkpt lat="44.79883" lon="1.65319">
        <ele>165.7</ele>
        <time>2023-09-25T12:50:26Z</time>
      </trkpt>
      <trkpt lat="44.79888" lon="1.6531">
        <ele>163.2</ele>
        <time>2023-09-25T12:51:16Z</time>
      </trkpt>
      <trkpt lat="44.79895" lon="1.65305">
        <ele>163.7</ele>
        <time>2023-09-25T12:51:36Z</time>
      </trkpt>
      <trkpt lat="44.799" lon="1.65294">
        <ele>165.6</ele>
        <time>2023-09-25T12:52:54Z</time>
      </trkpt>
      <trkpt lat="44.79905" lon="1.6529">
        <ele>165.3</ele>
        <time>2023-09-25T12:52:59.699Z</time>
      </trkpt>
      <trkpt lat="44.79909" lon="1.65285">
        <ele>164.3</ele>
        <time>2023-09-25T12:53:05Z</time>
      </trkpt>
      <trkpt lat="44.79915" lon="1.6528">
        <ele>161.9</ele>
        <time>2023-09-25T12:53:10.671Z</time>
      </trkpt>
      <trkpt lat="44.79921" lon="1.65275">
        <ele>162</ele>
        <time>2023-09-25T12:53:16.342Z</time>
      </trkpt>
      <trkpt lat="44.79927" lon="1.65269">
        <ele>163.2</ele>
        <time>2023-09-25T12:53:22.328Z</time>
      </trkpt>
      <trkpt lat="44.79933" lon="1.65264">
        <ele>164</ele>
        <time>2023-09-25T12:53:28Z</time>
      </trkpt>
      <trkpt lat="44.79937" lon="1.6526">
        <ele>164.4</ele>
        <time>2023-09-25T12:53:34.000Z</time>
      </trkpt>
      <trkpt lat="44.79941" lon="1.65256">
        <ele>164.6</ele>
        <time>2023-09-25T12:53:40Z</time>
      </trkpt>
      <trkpt lat="44.79948" lon="1.65255">
        <ele>164</ele>
        <time>2023-09-25T12:53:45.656Z</time>
      </trkpt>
      <trkpt lat="44.79955" lon="1.65253">
        <ele>163.4</ele>
        <time>2023-09-25T12:53:51.398Z</time>
      </trkpt>
      <trkpt lat="44.79961" lon="1.65252">
        <ele>162.6</ele>
        <time>2023-09-25T12:53:56.256Z</time>
      </trkpt>
      <trkpt lat="44.79968" lon="1.6525">
        <ele>161.6</ele>
        <time>2023-09-25T12:54:02Z</time>
      </trkpt>
      <trkpt lat="44.79976" lon="1.65245">
        <ele>163.5</ele>
        <time>2023-09-25T12:54:05.930Z</time>
      </trkpt>
      <trkpt lat="44.79984" lon="1.65239">
        <ele>165.8</ele>
        <time>2023-09-25T12:54:10Z</time>
      </trkpt>
      <trkpt lat="44.79987" lon="1.65231">
        <ele>166.7</ele>
        <time>2023-09-25T12:54:14.896Z</time>
      </trkpt>
      <trkpt lat="44.79989" lon="1.65222">
        <ele>167</ele>
        <time>2023-09-25T12:54:20Z</time>
      </trkpt>
      <trkpt lat="44.7999" lon="1.65215">
        <ele>167.2</ele>
        <time>2023-09-25T12:54:25.500Z</time>
      </trkpt>
      <trkpt lat="44.79991" lon="1.65208">
        <ele>167.5</ele>
        <time>2023-09-25T12:54:31Z</time>
      </trkpt>
      <trkpt lat="44.79994" lon="1.65199">
        <ele>167.3</ele>
        <time>2023-09-25T12:54:36.736Z</time>
      </trkpt>
      <trkpt lat="44.79997" lon="1.65189">
        <ele>165.9</ele>
        <time>2023-09-25T12:54:43Z</time>
      </trkpt>
      <trkpt lat="44.79993" lon="1.6518">
        <ele>165.8</ele>
        <time>2023-09-25T12:54:47.805Z</time>
      </trkpt>
      <trkpt lat="44.79989" lon="1.6517">
        <ele>166.1</ele>
        <time>2023-09-25T12:54:53Z</time>
      </trkpt>
      <trkpt lat="44.7999" lon="1.65162">
        <ele>164.8</ele>
        <time>2023-09-25T12:54:58.000Z</time>
      </trkpt>
      <trkpt lat="44.79991" lon="1.65154">
        <ele>163.5</ele>
        <time>2023-09-25T12:55:03Z</time>
      </trkpt>
      <trkpt lat="44.79991" lon="1.65146">
        <ele>162.8</ele>
        <time>2023-09-25T12:55:06.740Z</time>
      </trkpt>
      <trkpt lat="44.7999" lon="1.65137">
        <ele>162.2</ele>
        <time>2023-09-25T12:55:11Z</time>
      </trkpt>
      <trkpt lat="44.79987" lon="1.6513">
        <ele>162.5</ele>
        <time>2023-09-25T12:55:14.811Z</time>
      </trkpt>
      <trkpt lat="44.79983" lon="1.65123">
        <ele>161.9</ele>
        <time>2023-09-25T12:55:19Z</time>
      </trkpt>
      <trkpt lat="44.79979" lon="1.65117">
        <ele>160.5</ele>
        <time>2023-09-25T12:55:22.824Z</time>
      </trkpt>
      <trkpt lat="44.79975" lon="1.6511">
        <ele>158.5</ele>
        <time>2023-09-25T12:55:27Z</time>
      </trkpt>
      <trkpt lat="44.79971" lon="1.65105">
        <ele>158.8</ele>
        <time>2023-09-25T12:55:31.192Z</time>
      </trkpt>
      <trkpt lat="44.79966" lon="1.651">
        <ele>160.7</ele>
        <time>2023-09-25T12:55:36Z</time>
      </trkpt>
      <trkpt lat="44.79964" lon="1.65094">
        <ele>161.4</ele>
        <time>2023-09-25T12:55:40.745Z</time>
      </trkpt>
      <trkpt lat="44.79961" lon="1.65088">
        <ele>161.7</ele>
        <time>2023-09-25T12:55:46Z</time>
      </trkpt>
      <trkpt lat="44.79959" lon="1.65079">
        <ele>161.6</ele>
        <time>2023-09-25T12:55:52.814Z</time>
      </trkpt>
      <trkpt lat="44.79956" lon="1.6507">
        <ele>161.1</ele>
        <time>2023-09-25T12:56:00Z</time>
      </trkpt>
      <trkpt lat="44.79953" lon="1.65065">
        <ele>160.7</ele>
        <time>2023-09-25T12:56:07.088Z</time>
      </trkpt>
      <trkpt lat="44.79949" lon="1.65059">
        <ele>159.8</ele>
        <time>2023-09-25T12:56:16Z</time>
      </trkpt>
      <trkpt lat="44.79948" lon="1.65052">
        <ele>158.8</ele>
        <time>2023-09-25T12:56:20.999Z</time>
      </trkpt>
      <trkpt lat="44.79947" lon="1.65045">
        <ele>158.1</ele>
        <time>2023-09-25T12:56:26Z</time>
      </trkpt>
      <trkpt lat="44.79953" lon="1.65041">
        <ele>158.3</ele>
        <time>2023-09-25T12:56:31.718Z</time>
      </trkpt>
      <trkpt lat="44.79958" lon="1.65036">
        <ele>158.8</ele>
        <time>2023-09-25T12:56:37Z</time>
      </trkpt>
      <trkpt lat="44.79963" lon="1.65032">
        <ele>159.3</ele>
        <time>2023-09-25T12:56:42.396Z</time>
      </trkpt>
      <trkpt lat="44.79967" lon="1.65028">
        <ele>160.1</ele>
        <time>2023-09-25T12:56:47Z</time>
      </trkpt>
      <trkpt lat="44.79965" lon="1.65022">
        <ele>161.2</ele>
        <time>2023-09-25T12:56:52.372Z</time>
      </trkpt>
      <trkpt lat="44.79962" lon="1.65015">
        <ele>162.1</ele>
        <time>2023-09-25T12:56:59Z</time>
      </trkpt>
      <trkpt lat="44.79958" lon="1.65009">
        <ele>161.7</ele>
        <time>2023-09-25T12:57:03.999Z</time>
      </trkpt>
      <trkpt lat="44.79954" lon="1.65003">
        <ele>160.8</ele>
        <time>2023-09-25T12:57:09Z</time>
      </trkpt>
      <trkpt lat="44.79953" lon="1.64994">
        <ele>160.8</ele>
        <time>2023-09-25T12:57:13.671Z</time>
      </trkpt>
      <trkpt lat="44.79951" lon="1.64984">
        <ele>160.3</ele>
        <time>2023-09-25T12:57:19Z</time>
      </trkpt>
      <trkpt lat="44.7995" lon="1.64977">
        <ele>159.8</ele>
        <time>2023-09-25T12:57:24.499Z</time>
      </trkpt>
      <trkpt lat="44.79949" lon="1.6497">
        <ele>159</ele>
        <time>2023-09-25T12:57:30Z</time>
      </trkpt>
      <trkpt lat="44.79947" lon="1.64962">
        <ele>157.1</ele>
        <time>2023-09-25T12:57:34.261Z</time>
      </trkpt>
      <trkpt lat="44.79945" lon="1.64953">
        <ele>155.4</ele>
        <time>2023-09-25T12:57:39Z</time>
      </trkpt>
      <trkpt lat="44.79948" lon="1.64945">
        <ele>157.2</ele>
        <time>2023-09-25T12:57:43.896Z</time>
      </trkpt>
      <trkpt lat="44.7995" lon="1.64936">
        <ele>158.1</ele>
        <time>2023-09-25T12:57:49Z</time>
      </trkpt>
      <trkpt lat="44.79954" lon="1.64929">
        <ele>159.3</ele>
        <time>2023-09-25T12:57:54.235Z</time>
      </trkpt>
      <trkpt lat="44.79957" lon="1.64922">
        <ele>159.9</ele>
        <time>2023-09-25T12:57:59Z</time>
      </trkpt>
      <trkpt lat="44.79959" lon="1.64912">
        <ele>159.2</ele>
        <time>2023-09-25T12:58:03.500Z</time>
      </trkpt>
      <trkpt lat="44.79961" lon="1.64902">
        <ele>158.4</ele>
        <time>2023-09-25T12:58:08Z</time>
      </trkpt>
      <trkpt lat="44.79965" lon="1.64897">
        <ele>157.9</ele>
        <time>2023-09-25T12:58:13.885Z</time>
      </trkpt>
      <trkpt lat="44.79968" lon="1.64892">
        <ele>157</ele>
        <time>2023-09-25T12:58:19Z</time>
      </trkpt>
      <trkpt lat="44.79973" lon="1.64888">
        <ele>156.1</ele>
        <time>2023-09-25T12:58:25.475Z</time>
      </trkpt>
      <trkpt lat="44.79977" lon="1.64884">
        <ele>157.9</ele>
        <time>2023-09-25T12:58:31Z</time>
      </trkpt>
      <trkpt lat="44.79981" lon="1.64877">
        <ele>158.6</ele>
        <time>2023-09-25T12:58:36.979Z</time>
      </trkpt>
      <trkpt lat="44.79984" lon="1.64869">
        <ele>159</ele>
        <time>2023-09-25T12:58:43Z</time>
      </trkpt>
      <trkpt lat="44.79987" lon="1.64859">
        <ele>158.7</ele>
        <time>2023-09-25T12:59:04Z</time>
      </trkpt>
      <trkpt lat="44.79988" lon="1.64852">
        <ele>158.9</ele>
        <time>2023-09-25T12:59:08.678Z</time>
      </trkpt>
      <trkpt lat="44.79989" lon="1.64844">
        <ele>159.1</ele>
        <time>2023-09-25T12:59:14Z</time>
      </trkpt>
      <trkpt lat="44.7999" lon="1.64837">
        <ele>159</ele>
        <time>2023-09-25T12:59:19.187Z</time>
      </trkpt>
      <trkpt lat="44.7999" lon="1.64829">
        <ele>159.2</ele>
        <time>2023-09-25T12:59:25Z</time>
      </trkpt>
      <trkpt lat="44.7999" lon="1.64822">
        <ele>159.2</ele>
        <time>2023-09-25T12:59:29.628Z</time>
      </trkpt>
      <trkpt lat="44.79989" lon="1.64814">
        <ele>159.3</ele>
        <time>2023-09-25T12:59:35Z</time>
      </trkpt>
      <trkpt lat="44.79988" lon="1.64805">
        <ele>159</ele>
        <time>2023-09-25T12:59:39.671Z</time>
      </trkpt>
      <trkpt lat="44.79986" lon="1.64795">
        <ele>159</ele>
        <time>2023-09-25T12:59:45Z</time>
      </trkpt>
      <trkpt lat="44.79985" lon="1.64788">
        <ele>158.8</ele>
        <time>2023-09-25T12:59:49.113Z</time>
      </trkpt>
      <trkpt lat="44.79983" lon="1.6478">
        <ele>158.4</ele>
        <time>2023-09-25T12:59:54Z</time>
      </trkpt>
      <trkpt lat="44.79979" lon="1.64769">
        <ele>157.1</ele>
        <time>2023-09-25T13:00:03Z</time>
      </trkpt>
      <trkpt lat="44.79978" lon="1.6476">
        <ele>157.4</ele>
        <time>2023-09-25T13:00:07.268Z</time>
      </trkpt>
      <trkpt lat="44.79977" lon="1.6475">
        <ele>157.6</ele>
        <time>2023-09-25T13:00:12Z</time>
      </trkpt>
      <trkpt lat="44.79976" lon="1.64741">
        <ele>157</ele>
        <time>2023-09-25T13:00:15.737Z</time>
      </trkpt>
      <trkpt lat="44.79974" lon="1.64731">
        <ele>156.2</ele>
        <time>2023-09-25T13:00:20Z</time>
      </trkpt>
      <trkpt lat="44.79972" lon="1.64725">
        <ele>155</ele>
        <time>2023-09-25T13:00:23.499Z</time>
      </trkpt>
      <trkpt lat="44.7997" lon="1.64719">
        <ele>155.8</ele>
        <time>2023-09-25T13:00:27Z</time>
      </trkpt>
      <trkpt lat="44.79968" lon="1.64713">
        <ele>157.1</ele>
        <time>2023-09-25T13:00:30.321Z</time>
      </trkpt>
      <trkpt lat="44.79965" lon="1.64707">
        <ele>158.1</ele>
        <time>2023-09-25T13:00:34Z</time>
      </trkpt>
      <trkpt lat="44.79963" lon="1.64701">
        <ele>158.8</ele>
        <time>2023-09-25T13:00:37.321Z</time>
      </trkpt>
      <trkpt lat="44.7996" lon="1.64695">
        <ele>159.1</ele>
        <time>2023-09-25T13:00:41Z</time>
      </trkpt>
      <trkpt lat="44.79955" lon="1.64685">
        <ele>158.6</ele>
        <time>2023-09-25T13:00:48Z</time>
      </trkpt>
      <trkpt lat="44.79953" lon="1.64679">
        <ele>158</ele>
        <time>2023-09-25T13:00:51.796Z</time>
      </trkpt>
      <trkpt lat="44.7995" lon="1.64673">
        <ele>157.2</ele>
        <time>2023-09-25T13:00:56Z</time>
      </trkpt>
      <trkpt lat="44.79949" lon="1.64666">
        <ele>157.2</ele>
        <time>2023-09-25T13:01:01.499Z</time>
      </trkpt>
      <trkpt lat="44.79948" lon="1.64659">
        <ele>157.5</ele>
        <time>2023-09-25T13:01:07Z</time>
      </trkpt>
      <trkpt lat="44.79947" lon="1.6465">
        <ele>158.1</ele>
        <time>2023-09-25T13:01:11.268Z</time>
      </trkpt>
      <trkpt lat="44.79946" lon="1.6464">
        <ele>158.8</ele>
        <time>2023-09-25T13:01:16Z</time>
      </trkpt>
      <trkpt lat="44.79945" lon="1.64634">
        <ele>157.8</ele>
        <time>2023-09-25T13:01:19.596Z</time>
      </trkpt>
      <trkpt lat="44.79943" lon="1.64627">
        <ele>157.3</ele>
        <time>2023-09-25T13:01:24Z</time>
      </trkpt>
      <trkpt lat="44.79943" lon="1.64621">
        <ele>157.1</ele>
        <time>2023-09-25T13:01:27.692Z</time>
      </trkpt>
      <trkpt lat="44.79943" lon="1.64614">
        <ele>156.8</ele>
        <time>2023-09-25T13:01:32Z</time>
      </trkpt>
      <trkpt lat="44.79943" lon="1.64606">
        <ele>156.5</ele>
        <time>2023-09-25T13:01:36.465Z</time>
      </trkpt>
      <trkpt lat="44.79942" lon="1.64598">
        <ele>156.1</ele>
        <time>2023-09-25T13:01:41Z</time>
      </trkpt>
      <trkpt lat="44.79942" lon="1.6459">
        <ele>155.8</ele>
        <time>2023-09-25T13:01:44.473Z</time>
      </trkpt>
      <trkpt lat="44.79941" lon="1.64582">
        <ele>155.5</ele>
        <time>2023-09-25T13:01:48Z</time>
      </trkpt>
      <trkpt lat="44.79941" lon="1.64576">
        <ele>155.4</ele>
        <time>2023-09-25T13:01:51.652Z</time>
      </trkpt>
      <trkpt lat="44.7994" lon="1.64569">
        <ele>155.4</ele>
        <time>2023-09-25T13:01:56Z</time>
      </trkpt>
      <trkpt lat="44.79939" lon="1.64562">
        <ele>155.2</ele>
        <time>2023-09-25T13:02:00.499Z</time>
      </trkpt>
      <trkpt lat="44.79938" lon="1.64555">
        <ele>155.1</ele>
        <time>2023-09-25T13:02:05Z</time>
      </trkpt>
      <trkpt lat="44.79938" lon="1.64548">
        <ele>155.2</ele>
        <time>2023-09-25T13:02:08.465Z</time>
      </trkpt>
      <trkpt lat="44.79937" lon="1.64541">
        <ele>155.3</ele>
        <time>2023-09-25T13:02:12Z</time>
      </trkpt>
      <trkpt lat="44.79937" lon="1.64534">
        <ele>155.5</ele>
        <time>2023-09-25T13:02:15.733Z</time>
      </trkpt>
      <trkpt lat="44.79937" lon="1.64526">
        <ele>155.8</ele>
        <time>2023-09-25T13:02:20Z</time>
      </trkpt>
      <trkpt lat="44.79938" lon="1.64519">
        <ele>156.5</ele>
        <time>2023-09-25T13:02:24.244Z</time>
      </trkpt>
      <trkpt lat="44.79938" lon="1.64511">
        <ele>157.2</ele>
        <time>2023-09-25T13:02:29Z</time>
      </trkpt>
      <trkpt lat="44.79938" lon="1.64504">
        <ele>157.7</ele>
        <time>2023-09-25T13:02:33.950Z</time>
      </trkpt>
      <trkpt lat="44.79937" lon="1.64497">
        <ele>158.1</ele>
        <time>2023-09-25T13:02:39Z</time>
      </trkpt>
      <trkpt lat="44.79936" lon="1.64489">
        <ele>158.4</ele>
        <time>2023-09-25T13:02:43.499Z</time>
      </trkpt>
      <trkpt lat="44.79935" lon="1.64481">
        <ele>158.6</ele>
        <time>2023-09-25T13:02:48Z</time>
      </trkpt>
      <trkpt lat="44.79934" lon="1.64475">
        <ele>158.5</ele>
        <time>2023-09-25T13:02:51.854Z</time>
      </trkpt>
      <trkpt lat="44.79932" lon="1.64469">
        <ele>158.2</ele>
        <time>2023-09-25T13:02:56Z</time>
      </trkpt>
      <trkpt lat="44.79931" lon="1.64463">
        <ele>158</ele>
        <time>2023-09-25T13:03:00.169Z</time>
      </trkpt>
      <trkpt lat="44.7993" lon="1.64456">
        <ele>157.8</ele>
        <time>2023-09-25T13:03:05Z</time>
      </trkpt>
      <trkpt lat="44.79929" lon="1.64449">
        <ele>157.6</ele>
        <time>2023-09-25T13:03:09.499Z</time>
      </trkpt>
      <trkpt lat="44.79928" lon="1.64442">
        <ele>157.3</ele>
        <time>2023-09-25T13:03:14Z</time>
      </trkpt>
      <trkpt lat="44.79926" lon="1.64434">
        <ele>156.5</ele>
        <time>2023-09-25T13:03:18.261Z</time>
      </trkpt>
      <trkpt lat="44.79924" lon="1.64425">
        <ele>155.6</ele>
        <time>2023-09-25T13:03:23Z</time>
      </trkpt>
      <trkpt lat="44.79923" lon="1.64417">
        <ele>155.2</ele>
        <time>2023-09-25T13:03:26.771Z</time>
      </trkpt>
      <trkpt lat="44.79922" lon="1.64408">
        <ele>154.9</ele>
        <time>2023-09-25T13:03:31Z</time>
      </trkpt>
      <trkpt lat="44.79922" lon="1.644">
        <ele>154.8</ele>
        <time>2023-09-25T13:03:35.465Z</time>
      </trkpt>
      <trkpt lat="44.79921" lon="1.64392">
        <ele>154.8</ele>
        <time>2023-09-25T13:03:40Z</time>
      </trkpt>
      <trkpt lat="44.79922" lon="1.6438">
        <ele>155.1</ele>
        <time>2023-09-25T13:03:48Z</time>
      </trkpt>
      <trkpt lat="44.79924" lon="1.64374">
        <ele>155.6</ele>
        <time>2023-09-25T13:03:53.144Z</time>
      </trkpt>
      <trkpt lat="44.79926" lon="1.64367">
        <ele>156</ele>
        <time>2023-09-25T13:03:59Z</time>
      </trkpt>
      <trkpt lat="44.79929" lon="1.64358">
        <ele>156.3</ele>
        <time>2023-09-25T13:04:05.671Z</time>
      </trkpt>
      <trkpt lat="44.79931" lon="1.64349">
        <ele>156.9</ele>
        <time>2023-09-25T13:04:12Z</time>
      </trkpt>
      <trkpt lat="44.79932" lon="1.64341">
        <ele>156.9</ele>
        <time>2023-09-25T13:04:18.549Z</time>
      </trkpt>
      <trkpt lat="44.79932" lon="1.64333">
        <ele>157</ele>
        <time>2023-09-25T13:04:25Z</time>
      </trkpt>
      <trkpt lat="44.79933" lon="1.6433">
        <ele>157.9</ele>
        <time>2023-09-25T13:06:32Z</time>
      </trkpt>
      <trkpt lat="44.79931" lon="1.64323">
        <ele>158.2</ele>
        <time>2023-09-25T13:08:19Z</time>
      </trkpt>
      <trkpt lat="44.79928" lon="1.64321">
        <ele>157.1</ele>
        <time>2023-09-25T13:08:52Z</time>
      </trkpt>
      <trkpt lat="44.79928" lon="1.6432">
        <ele>157.1</ele>
        <time>2023-09-25T13:10:30Z</time>
      </trkpt>
      <trkpt lat="44.79928" lon="1.64317">
        <ele>157.3</ele>
        <time>2023-09-25T13:10:57.745Z</time>
      </trkpt>
      <trkpt lat="44.79926" lon="1.64313">
        <ele>157</ele>
        <time>2023-09-25T13:11:43Z</time>
      </trkpt>
      <trkpt lat="44.79925" lon="1.64307">
        <ele>156.7</ele>
        <time>2023-09-25T13:11:49.263Z</time>
      </trkpt>
      <trkpt lat="44.79923" lon="1.64301">
        <ele>156.5</ele>
        <time>2023-09-25T13:11:56Z</time>
      </trkpt>
      <trkpt lat="44.79922" lon="1.64295">
        <ele>156.3</ele>
        <time>2023-09-25T13:12:00.817Z</time>
      </trkpt>
      <trkpt lat="44.7992" lon="1.64289">
        <ele>156</ele>
        <time>2023-09-25T13:12:06Z</time>
      </trkpt>
      <trkpt lat="44.79919" lon="1.64283">
        <ele>155.8</ele>
        <time>2023-09-25T13:12:10.046Z</time>
      </trkpt>
      <trkpt lat="44.79917" lon="1.64276">
        <ele>155.4</ele>
        <time>2023-09-25T13:12:15Z</time>
      </trkpt>
      <trkpt lat="44.79915" lon="1.6427">
        <ele>155.4</ele>
        <time>2023-09-25T13:12:18.796Z</time>
      </trkpt>
      <trkpt lat="44.79912" lon="1.64264">
        <ele>155.5</ele>
        <time>2023-09-25T13:12:23Z</time>
      </trkpt>
      <trkpt lat="44.79908" lon="1.64254">
        <ele>155.3</ele>
        <time>2023-09-25T13:12:31Z</time>
      </trkpt>
      <trkpt lat="44.79907" lon="1.64247">
        <ele>155.5</ele>
        <time>2023-09-25T13:12:35.499Z</time>
      </trkpt>
      <trkpt lat="44.79906" lon="1.6424">
        <ele>156</ele>
        <time>2023-09-25T13:12:40Z</time>
      </trkpt>
      <trkpt lat="44.79903" lon="1.64234">
        <ele>155.6</ele>
        <time>2023-09-25T13:12:44.257Z</time>
      </trkpt>
      <trkpt lat="44.799" lon="1.64227">
        <ele>155</ele>
        <time>2023-09-25T13:12:49Z</time>
      </trkpt>
      <trkpt lat="44.79897" lon="1.64222">
        <ele>154.1</ele>
        <time>2023-09-25T13:12:54.579Z</time>
      </trkpt>
      <trkpt lat="44.79893" lon="1.64217">
        <ele>154</ele>
        <time>2023-09-25T13:13:01Z</time>
      </trkpt>
      <trkpt lat="44.7989" lon="1.64212">
        <ele>154</ele>
        <time>2023-09-25T13:13:05.999Z</time>
      </trkpt>
      <trkpt lat="44.79887" lon="1.64207">
        <ele>154.7</ele>
        <time>2023-09-25T13:13:11Z</time>
      </trkpt>
      <trkpt lat="44.79879" lon="1.64202">
        <ele>155.4</ele>
        <time>2023-09-25T13:13:21Z</time>
      </trkpt>
      <trkpt lat="44.79875" lon="1.64199">
        <ele>155.8</ele>
        <time>2023-09-25T13:13:26.001Z</time>
      </trkpt>
      <trkpt lat="44.7987" lon="1.64196">
        <ele>156.2</ele>
        <time>2023-09-25T13:13:32Z</time>
      </trkpt>
      <trkpt lat="44.79865" lon="1.64197">
        <ele>155.8</ele>
        <time>2023-09-25T13:13:38.532Z</time>
      </trkpt>
      <trkpt lat="44.7986" lon="1.64197">
        <ele>155.6</ele>
        <time>2023-09-25T13:13:45Z</time>
      </trkpt>
      <trkpt lat="44.79855" lon="1.64201">
        <ele>155.8</ele>
        <time>2023-09-25T13:13:50.999Z</time>
      </trkpt>
      <trkpt lat="44.7985" lon="1.64205">
        <ele>155.8</ele>
        <time>2023-09-25T13:13:57Z</time>
      </trkpt>
      <trkpt lat="44.79845" lon="1.6421">
        <ele>155.5</ele>
        <time>2023-09-25T13:14:02.999Z</time>
      </trkpt>
      <trkpt lat="44.7984" lon="1.64215">
        <ele>155</ele>
        <time>2023-09-25T13:14:09Z</time>
      </trkpt>
      <trkpt lat="44.79835" lon="1.6422">
        <ele>154.5</ele>
        <time>2023-09-25T13:14:14.147Z</time>
      </trkpt>
      <trkpt lat="44.79829" lon="1.64225">
        <ele>154.6</ele>
        <time>2023-09-25T13:14:20Z</time>
      </trkpt>
      <trkpt lat="44.79825" lon="1.64228">
        <ele>154.9</ele>
        <time>2023-09-25T13:14:24.546Z</time>
      </trkpt>
      <trkpt lat="44.7982" lon="1.64231">
        <ele>155</ele>
        <time>2023-09-25T13:14:30Z</time>
      </trkpt>
      <trkpt lat="44.79815" lon="1.64232">
        <ele>155.7</ele>
        <time>2023-09-25T13:14:35.024Z</time>
      </trkpt>
      <trkpt lat="44.7981" lon="1.64232">
        <ele>156.4</ele>
        <time>2023-09-25T13:14:40Z</time>
      </trkpt>
      <trkpt lat="44.79805" lon="1.64231">
        <ele>157.7</ele>
        <time>2023-09-25T13:14:44.928Z</time>
      </trkpt>
      <trkpt lat="44.798" lon="1.64229">
        <ele>158.2</ele>
        <time>2023-09-25T13:14:50Z</time>
      </trkpt>
      <trkpt lat="44.79794" lon="1.6423">
        <ele>157.8</ele>
        <time>2023-09-25T13:14:55.017Z</time>
      </trkpt>
      <trkpt lat="44.79788" lon="1.6423">
        <ele>157.5</ele>
        <time>2023-09-25T13:15:00Z</time>
      </trkpt>
      <trkpt lat="44.79783" lon="1.64229">
        <ele>157.7</ele>
        <time>2023-09-25T13:15:05.463Z</time>
      </trkpt>
      <trkpt lat="44.79777" lon="1.64228">
        <ele>157.9</ele>
        <time>2023-09-25T13:15:12Z</time>
      </trkpt>
      <trkpt lat="44.7977" lon="1.64229">
        <ele>158</ele>
        <time>2023-09-25T13:15:17.514Z</time>
      </trkpt>
      <trkpt lat="44.79763" lon="1.64229">
        <ele>158</ele>
        <time>2023-09-25T13:15:23Z</time>
      </trkpt>
      <trkpt lat="44.79756" lon="1.64231">
        <ele>157.6</ele>
        <time>2023-09-25T13:15:28.037Z</time>
      </trkpt>
      <trkpt lat="44.79749" lon="1.64232">
        <ele>157.2</ele>
        <time>2023-09-25T13:15:33Z</time>
      </trkpt>
      <trkpt lat="44.79743" lon="1.64233">
        <ele>157.1</ele>
        <time>2023-09-25T13:15:37.632Z</time>
      </trkpt>
      <trkpt lat="44.79736" lon="1.64233">
        <ele>157</ele>
        <time>2023-09-25T13:15:43Z</time>
      </trkpt>
      <trkpt lat="44.79728" lon="1.6423">
        <ele>158.5</ele>
        <time>2023-09-25T13:15:52Z</time>
      </trkpt>
      <trkpt lat="44.79723" lon="1.6423">
        <ele>158.8</ele>
        <time>2023-09-25T13:15:56.981Z</time>
      </trkpt>
      <trkpt lat="44.79717" lon="1.64229">
        <ele>159.5</ele>
        <time>2023-09-25T13:16:03Z</time>
      </trkpt>
      <trkpt lat="44.79712" lon="1.64231">
        <ele>159.2</ele>
        <time>2023-09-25T13:16:08.086Z</time>
      </trkpt>
      <trkpt lat="44.79706" lon="1.64232">
        <ele>158.9</ele>
        <time>2023-09-25T13:16:14Z</time>
      </trkpt>
      <trkpt lat="44.79698" lon="1.64237">
        <ele>156.8</ele>
        <time>2023-09-25T13:16:24Z</time>
      </trkpt>
      <trkpt lat="44.79693" lon="1.64242">
        <ele>155</ele>
        <time>2023-09-25T13:16:30.083Z</time>
      </trkpt>
      <trkpt lat="44.79687" lon="1.64247">
        <ele>154.5</ele>
        <time>2023-09-25T13:16:37Z</time>
      </trkpt>
      <trkpt lat="44.79683" lon="1.64253">
        <ele>154.2</ele>
        <time>2023-09-25T13:16:42.367Z</time>
      </trkpt>
      <trkpt lat="44.79678" lon="1.64258">
        <ele>154.3</ele>
        <time>2023-09-25T13:16:48Z</time>
      </trkpt>
      <trkpt lat="44.79673" lon="1.64262">
        <ele>154.4</ele>
        <time>2023-09-25T13:16:53.999Z</time>
      </trkpt>
      <trkpt lat="44.79668" lon="1.64266">
        <ele>153.9</ele>
        <time>2023-09-25T13:17:00Z</time>
      </trkpt>
      <trkpt lat="44.79663" lon="1.6427">
        <ele>153.3</ele>
        <time>2023-09-25T13:17:05.105Z</time>
      </trkpt>
      <trkpt lat="44.79657" lon="1.64274">
        <ele>152.9</ele>
        <time>2023-09-25T13:17:11Z</time>
      </trkpt>
      <trkpt lat="44.79651" lon="1.64277">
        <ele>153.2</ele>
        <time>2023-09-25T13:17:15.999Z</time>
      </trkpt>
      <trkpt lat="44.79645" lon="1.6428">
        <ele>153.9</ele>
        <time>2023-09-25T13:17:21Z</time>
      </trkpt>
      <trkpt lat="44.79639" lon="1.64285">
        <ele>154</ele>
        <time>2023-09-25T13:17:26.122Z</time>
      </trkpt>
      <trkpt lat="44.79633" lon="1.64289">
        <ele>153</ele>
        <time>2023-09-25T13:17:31Z</time>
      </trkpt>
      <trkpt lat="44.79627" lon="1.64292">
        <ele>152.5</ele>
        <time>2023-09-25T13:17:36.080Z</time>
      </trkpt>
      <trkpt lat="44.79621" lon="1.64294">
        <ele>151.9</ele>
        <time>2023-09-25T13:17:41Z</time>
      </trkpt>
      <trkpt lat="44.79614" lon="1.64295">
        <ele>151.9</ele>
        <time>2023-09-25T13:17:45.511Z</time>
      </trkpt>
      <trkpt lat="44.79607" lon="1.64295">
        <ele>151.7</ele>
        <time>2023-09-25T13:17:50Z</time>
      </trkpt>
      <trkpt lat="44.79602" lon="1.64294">
        <ele>152</ele>
        <time>2023-09-25T13:17:54.052Z</time>
      </trkpt>
      <trkpt lat="44.79596" lon="1.64292">
        <ele>152.3</ele>
        <time>2023-09-25T13:17:59Z</time>
      </trkpt>
      <trkpt lat="44.7959" lon="1.6429">
        <ele>152.7</ele>
        <time>2023-09-25T13:18:03.169Z</time>
      </trkpt>
      <trkpt lat="44.79583" lon="1.64288">
        <ele>153</ele>
        <time>2023-09-25T13:18:08Z</time>
      </trkpt>
      <trkpt lat="44.79578" lon="1.64285">
        <ele>152.8</ele>
        <time>2023-09-25T13:18:11.999Z</time>
      </trkpt>
      <trkpt lat="44.79573" lon="1.64282">
        <ele>152.3</ele>
        <time>2023-09-25T13:18:16Z</time>
      </trkpt>
      <trkpt lat="44.79569" lon="1.64274">
        <ele>152.6</ele>
        <time>2023-09-25T13:18:20.499Z</time>
      </trkpt>
      <trkpt lat="44.79565" lon="1.64266">
        <ele>153</ele>
        <time>2023-09-25T13:18:25Z</time>
      </trkpt>
      <trkpt lat="44.79562" lon="1.64261">
        <ele>153</ele>
        <time>2023-09-25T13:18:28.987Z</time>
      </trkpt>
      <trkpt lat="44.79558" lon="1.64255">
        <ele>152.9</ele>
        <time>2023-09-25T13:18:34Z</time>
      </trkpt>
      <trkpt lat="44.79554" lon="1.6425">
        <ele>152.8</ele>
        <time>2023-09-25T13:18:38.300Z</time>
      </trkpt>
      <trkpt lat="44.7955" lon="1.64244">
        <ele>153.1</ele>
        <time>2023-09-25T13:18:43Z</time>
      </trkpt>
      <trkpt lat="44.79547" lon="1.64238">
        <ele>153.5</ele>
        <time>2023-09-25T13:18:46.784Z</time>
      </trkpt>
      <trkpt lat="44.79544" lon="1.64231">
        <ele>153.6</ele>
        <time>2023-09-25T13:18:51Z</time>
      </trkpt>
      <trkpt lat="44.79541" lon="1.64226">
        <ele>153</ele>
        <time>2023-09-25T13:18:55.184Z</time>
      </trkpt>
      <trkpt lat="44.79537" lon="1.64221">
        <ele>152.3</ele>
        <time>2023-09-25T13:19:00Z</time>
      </trkpt>
      <trkpt lat="44.79534" lon="1.64216">
        <ele>152.3</ele>
        <time>2023-09-25T13:19:03.987Z</time>
      </trkpt>
      <trkpt lat="44.7953" lon="1.6421">
        <ele>152.1</ele>
        <time>2023-09-25T13:19:09Z</time>
      </trkpt>
      <trkpt lat="44.79527" lon="1.64205">
        <ele>152.1</ele>
        <time>2023-09-25T13:19:12.719Z</time>
      </trkpt>
      <trkpt lat="44.79523" lon="1.642">
        <ele>152.5</ele>
        <time>2023-09-25T13:19:17Z</time>
      </trkpt>
      <trkpt lat="44.7952" lon="1.64196">
        <ele>152.4</ele>
        <time>2023-09-25T13:19:20.486Z</time>
      </trkpt>
      <trkpt lat="44.79516" lon="1.64191">
        <ele>152.4</ele>
        <time>2023-09-25T13:19:25Z</time>
      </trkpt>
      <trkpt lat="44.79513" lon="1.64186">
        <ele>152.2</ele>
        <time>2023-09-25T13:19:28.544Z</time>
      </trkpt>
      <trkpt lat="44.79509" lon="1.6418">
        <ele>151.6</ele>
        <time>2023-09-25T13:19:33Z</time>
      </trkpt>
      <trkpt lat="44.79506" lon="1.64174">
        <ele>150.9</ele>
        <time>2023-09-25T13:19:37.499Z</time>
      </trkpt>
      <trkpt lat="44.79503" lon="1.64168">
        <ele>149.7</ele>
        <time>2023-09-25T13:19:42Z</time>
      </trkpt>
      <trkpt lat="44.79501" lon="1.64162">
        <ele>149.2</ele>
        <time>2023-09-25T13:19:46.029Z</time>
      </trkpt>
      <trkpt lat="44.79498" lon="1.64155">
        <ele>149.9</ele>
        <time>2023-09-25T13:19:51Z</time>
      </trkpt>
      <trkpt lat="44.79496" lon="1.64148">
        <ele>150.7</ele>
        <time>2023-09-25T13:19:55.092Z</time>
      </trkpt>
      <trkpt lat="44.79493" lon="1.6414">
        <ele>151.3</ele>
        <time>2023-09-25T13:20:00Z</time>
      </trkpt>
      <trkpt lat="44.79491" lon="1.64133">
        <ele>151.8</ele>
        <time>2023-09-25T13:20:04.999Z</time>
      </trkpt>
      <trkpt lat="44.79489" lon="1.64126">
        <ele>152.1</ele>
        <time>2023-09-25T13:20:10Z</time>
      </trkpt>
      <trkpt lat="44.79487" lon="1.64118">
        <ele>152</ele>
        <time>2023-09-25T13:20:14.838Z</time>
      </trkpt>
      <trkpt lat="44.79484" lon="1.6411">
        <ele>151.6</ele>
        <time>2023-09-25T13:20:20Z</time>
      </trkpt>
      <trkpt lat="44.79483" lon="1.64103">
        <ele>151.7</ele>
        <time>2023-09-25T13:20:23.742Z</time>
      </trkpt>
      <trkpt lat="44.79482" lon="1.64095">
        <ele>151.8</ele>
        <time>2023-09-25T13:20:28Z</time>
      </trkpt>
      <trkpt lat="44.79481" lon="1.64088">
        <ele>151.4</ele>
        <time>2023-09-25T13:20:31.889Z</time>
      </trkpt>
      <trkpt lat="44.79479" lon="1.64081">
        <ele>150.9</ele>
        <time>2023-09-25T13:20:36Z</time>
      </trkpt>
      <trkpt lat="44.79477" lon="1.64071">
        <ele>149.8</ele>
        <time>2023-09-25T13:20:52Z</time>
      </trkpt>
      <trkpt lat="44.79478" lon="1.64071">
        <ele>150.3</ele>
        <time>2023-09-25T13:21:22Z</time>
      </trkpt>
      <trkpt lat="44.79476" lon="1.64062">
        <ele>148.9</ele>
        <time>2023-09-25T13:21:31.735Z</time>
      </trkpt>
      <trkpt lat="44.79473" lon="1.64053">
        <ele>147.5</ele>
        <time>2023-09-25T13:21:42Z</time>
      </trkpt>
      <trkpt lat="44.79474" lon="1.64046">
        <ele>148.1</ele>
        <time>2023-09-25T13:21:46.244Z</time>
      </trkpt>
      <trkpt lat="44.79474" lon="1.64038">
        <ele>148.7</ele>
        <time>2023-09-25T13:21:51Z</time>
      </trkpt>
      <trkpt lat="44.79475" lon="1.64031">
        <ele>149.2</ele>
        <time>2023-09-25T13:21:54.772Z</time>
      </trkpt>
      <trkpt lat="44.79475" lon="1.64023">
        <ele>149.4</ele>
        <time>2023-09-25T13:21:59Z</time>
      </trkpt>
      <trkpt lat="44.79477" lon="1.64016">
        <ele>150.2</ele>
        <time>2023-09-25T13:22:03.708Z</time>
      </trkpt>
      <trkpt lat="44.79479" lon="1.64008">
        <ele>150.8</ele>
        <time>2023-09-25T13:22:09Z</time>
      </trkpt>
      <trkpt lat="44.79482" lon="1.63998">
        <ele>151.5</ele>
        <time>2023-09-25T13:22:15.131Z</time>
      </trkpt>
      <trkpt lat="44.79484" lon="1.63988">
        <ele>151.6</ele>
        <time>2023-09-25T13:22:21Z</time>
      </trkpt>
      <trkpt lat="44.79488" lon="1.6398">
        <ele>152</ele>
        <time>2023-09-25T13:22:25.676Z</time>
      </trkpt>
      <trkpt lat="44.79491" lon="1.63972">
        <ele>152</ele>
        <time>2023-09-25T13:22:30Z</time>
      </trkpt>
      <trkpt lat="44.79494" lon="1.63966">
        <ele>151.9</ele>
        <time>2023-09-25T13:22:34.257Z</time>
      </trkpt>
      <trkpt lat="44.79497" lon="1.63959">
        <ele>151.4</ele>
        <time>2023-09-25T13:22:39Z</time>
      </trkpt>
      <trkpt lat="44.79501" lon="1.63953">
        <ele>151.2</ele>
        <time>2023-09-25T13:22:43.229Z</time>
      </trkpt>
      <trkpt lat="44.79504" lon="1.63947">
        <ele>152.1</ele>
        <time>2023-09-25T13:22:47Z</time>
      </trkpt>
      <trkpt lat="44.79507" lon="1.63942">
        <ele>153</ele>
        <time>2023-09-25T13:22:50.771Z</time>
      </trkpt>
      <trkpt lat="44.7951" lon="1.63936">
        <ele>153.9</ele>
        <time>2023-09-25T13:22:55Z</time>
      </trkpt>
      <trkpt lat="44.79512" lon="1.63928">
        <ele>153.5</ele>
        <time>2023-09-25T13:22:59.261Z</time>
      </trkpt>
      <trkpt lat="44.79514" lon="1.63919">
        <ele>153</ele>
        <time>2023-09-25T13:23:04Z</time>
      </trkpt>
      <trkpt lat="44.79516" lon="1.63911">
        <ele>152.8</ele>
        <time>2023-09-25T13:23:10.640Z</time>
      </trkpt>
      <trkpt lat="44.79517" lon="1.63903">
        <ele>152.7</ele>
        <time>2023-09-25T13:23:17Z</time>
      </trkpt>
      <trkpt lat="44.79518" lon="1.63896">
        <ele>152.3</ele>
        <time>2023-09-25T13:23:21.500Z</time>
      </trkpt>
      <trkpt lat="44.79519" lon="1.63889">
        <ele>151.9</ele>
        <time>2023-09-25T13:23:26Z</time>
      </trkpt>
      <trkpt lat="44.79521" lon="1.63883">
        <ele>151.9</ele>
        <time>2023-09-25T13:23:29.741Z</time>
      </trkpt>
      <trkpt lat="44.79523" lon="1.63876">
        <ele>151.7</ele>
        <time>2023-09-25T13:23:34Z</time>
      </trkpt>
      <trkpt lat="44.79525" lon="1.63869">
        <ele>151.4</ele>
        <time>2023-09-25T13:23:38.500Z</time>
      </trkpt>
      <trkpt lat="44.79527" lon="1.63862">
        <ele>151</ele>
        <time>2023-09-25T13:23:43Z</time>
      </trkpt>
      <trkpt lat="44.7953" lon="1.63853">
        <ele>151.2</ele>
        <time>2023-09-25T13:23:47.619Z</time>
      </trkpt>
      <trkpt lat="44.79532" lon="1.63844">
        <ele>151.8</ele>
        <time>2023-09-25T13:23:52Z</time>
      </trkpt>
      <trkpt lat="44.79535" lon="1.63836">
        <ele>152.2</ele>
        <time>2023-09-25T13:23:56.645Z</time>
      </trkpt>
      <trkpt lat="44.79537" lon="1.63828">
        <ele>152.7</ele>
        <time>2023-09-25T13:24:01Z</time>
      </trkpt>
      <trkpt lat="44.79539" lon="1.63821">
        <ele>152.7</ele>
        <time>2023-09-25T13:24:05.624Z</time>
      </trkpt>
      <trkpt lat="44.7954" lon="1.63814">
        <ele>152.6</ele>
        <time>2023-09-25T13:24:10Z</time>
      </trkpt>
      <trkpt lat="44.79542" lon="1.63807">
        <ele>152.9</ele>
        <time>2023-09-25T13:24:14.500Z</time>
      </trkpt>
      <trkpt lat="44.79544" lon="1.638">
        <ele>153.3</ele>
        <time>2023-09-25T13:24:19Z</time>
      </trkpt>
      <trkpt lat="44.79546" lon="1.63792">
        <ele>153.5</ele>
        <time>2023-09-25T13:24:23.261Z</time>
      </trkpt>
      <trkpt lat="44.79548" lon="1.63783">
        <ele>153.6</ele>
        <time>2023-09-25T13:24:28Z</time>
      </trkpt>
      <trkpt lat="44.7955" lon="1.63776">
        <ele>153.6</ele>
        <time>2023-09-25T13:24:32.500Z</time>
      </trkpt>
      <trkpt lat="44.79552" lon="1.63769">
        <ele>153.5</ele>
        <time>2023-09-25T13:24:37Z</time>
      </trkpt>
      <trkpt lat="44.79554" lon="1.63762">
        <ele>153.2</ele>
        <time>2023-09-25T13:24:41.500Z</time>
      </trkpt>
      <trkpt lat="44.79556" lon="1.63755">
        <ele>153</ele>
        <time>2023-09-25T13:24:46Z</time>
      </trkpt>
      <trkpt lat="44.79558" lon="1.63748">
        <ele>152.8</ele>
        <time>2023-09-25T13:24:50.624Z</time>
      </trkpt>
      <trkpt lat="44.79559" lon="1.63741">
        <ele>152.2</ele>
        <time>2023-09-25T13:24:55Z</time>
      </trkpt>
      <trkpt lat="44.79561" lon="1.63734">
        <ele>151.8</ele>
        <time>2023-09-25T13:24:59.000Z</time>
      </trkpt>
      <trkpt lat="44.79563" lon="1.63727">
        <ele>151.4</ele>
        <time>2023-09-25T13:25:03Z</time>
      </trkpt>
      <trkpt lat="44.79565" lon="1.6372">
        <ele>151.1</ele>
        <time>2023-09-25T13:25:06.766Z</time>
      </trkpt>
      <trkpt lat="44.79567" lon="1.63712">
        <ele>151.2</ele>
        <time>2023-09-25T13:25:11Z</time>
      </trkpt>
      <trkpt lat="44.7957" lon="1.63705">
        <ele>151.2</ele>
        <time>2023-09-25T13:25:14.926Z</time>
      </trkpt>
      <trkpt lat="44.79572" lon="1.63697">
        <ele>150.8</ele>
        <time>2023-09-25T13:25:19Z</time>
      </trkpt>
      <trkpt lat="44.79575" lon="1.63691">
        <ele>150.6</ele>
        <time>2023-09-25T13:25:22.784Z</time>
      </trkpt>
      <trkpt lat="44.79578" lon="1.63684">
        <ele>150.1</ele>
        <time>2023-09-25T13:25:27Z</time>
      </trkpt>
      <trkpt lat="44.79581" lon="1.63678">
        <ele>149.4</ele>
        <time>2023-09-25T13:25:30.500Z</time>
      </trkpt>
      <trkpt lat="44.79584" lon="1.63672">
        <ele>148.7</ele>
        <time>2023-09-25T13:25:34Z</time>
      </trkpt>
      <trkpt lat="44.79588" lon="1.63666">
        <ele>149.1</ele>
        <time>2023-09-25T13:25:38.013Z</time>
      </trkpt>
      <trkpt lat="44.79591" lon="1.63659">
        <ele>149.6</ele>
        <time>2023-09-25T13:25:42Z</time>
      </trkpt>
      <trkpt lat="44.79595" lon="1.63653">
        <ele>149.8</ele>
        <time>2023-09-25T13:25:46.229Z</time>
      </trkpt>
      <trkpt lat="44.79598" lon="1.63647">
        <ele>149.4</ele>
        <time>2023-09-25T13:25:50Z</time>
      </trkpt>
      <trkpt lat="44.79602" lon="1.63641">
        <ele>148.7</ele>
        <time>2023-09-25T13:25:54.500Z</time>
      </trkpt>
      <trkpt lat="44.79606" lon="1.63635">
        <ele>148.2</ele>
        <time>2023-09-25T13:25:59Z</time>
      </trkpt>
      <trkpt lat="44.79611" lon="1.63629">
        <ele>147.8</ele>
        <time>2023-09-25T13:26:03.233Z</time>
      </trkpt>
      <trkpt lat="44.79615" lon="1.63623">
        <ele>147.5</ele>
        <time>2023-09-25T13:26:07Z</time>
      </trkpt>
      <trkpt lat="44.79619" lon="1.63619">
        <ele>147.2</ele>
        <time>2023-09-25T13:26:10.594Z</time>
      </trkpt>
      <trkpt lat="44.79622" lon="1.63614">
        <ele>146.5</ele>
        <time>2023-09-25T13:26:14Z</time>
      </trkpt>
      <trkpt lat="44.79627" lon="1.63611">
        <ele>146.2</ele>
        <time>2023-09-25T13:26:18.204Z</time>
      </trkpt>
      <trkpt lat="44.79631" lon="1.63607">
        <ele>146.4</ele>
        <time>2023-09-25T13:26:22Z</time>
      </trkpt>
      <trkpt lat="44.79639" lon="1.63602">
        <ele>146.7</ele>
        <time>2023-09-25T13:26:29Z</time>
      </trkpt>
      <trkpt lat="44.79644" lon="1.63598">
        <ele>146.5</ele>
        <time>2023-09-25T13:26:33.145Z</time>
      </trkpt>
      <trkpt lat="44.79648" lon="1.63593">
        <ele>145.9</ele>
        <time>2023-09-25T13:26:37Z</time>
      </trkpt>
      <trkpt lat="44.79652" lon="1.6359">
        <ele>145.3</ele>
        <time>2023-09-25T13:26:41.000Z</time>
      </trkpt>
      <trkpt lat="44.79656" lon="1.63587">
        <ele>144.5</ele>
        <time>2023-09-25T13:26:45Z</time>
      </trkpt>
      <trkpt lat="44.79662" lon="1.63586">
        <ele>143.9</ele>
        <time>2023-09-25T13:26:49.838Z</time>
      </trkpt>
      <trkpt lat="44.79667" lon="1.63584">
        <ele>143.3</ele>
        <time>2023-09-25T13:26:54Z</time>
      </trkpt>
      <trkpt lat="44.79674" lon="1.63583">
        <ele>143.2</ele>
        <time>2023-09-25T13:26:58.304Z</time>
      </trkpt>
      <trkpt lat="44.7968" lon="1.63582">
        <ele>143.5</ele>
        <time>2023-09-25T13:27:02Z</time>
      </trkpt>
      <trkpt lat="44.79688" lon="1.63579">
        <ele>143.6</ele>
        <time>2023-09-25T13:27:11Z</time>
      </trkpt>
      <trkpt lat="44.79694" lon="1.6358">
        <ele>143.8</ele>
        <time>2023-09-25T13:27:15.924Z</time>
      </trkpt>
      <trkpt lat="44.79699" lon="1.6358">
        <ele>143.7</ele>
        <time>2023-09-25T13:27:20Z</time>
      </trkpt>
      <trkpt lat="44.79706" lon="1.63581">
        <ele>143.5</ele>
        <time>2023-09-25T13:27:24.511Z</time>
      </trkpt>
      <trkpt lat="44.79713" lon="1.63581">
        <ele>143.3</ele>
        <time>2023-09-25T13:27:29Z</time>
      </trkpt>
      <trkpt lat="44.79721" lon="1.63584">
        <ele>143.3</ele>
        <time>2023-09-25T13:27:34.308Z</time>
      </trkpt>
      <trkpt lat="44.79728" lon="1.63587">
        <ele>144.3</ele>
        <time>2023-09-25T13:27:39Z</time>
      </trkpt>
      <trkpt lat="44.79736" lon="1.63591">
        <ele>145.1</ele>
        <time>2023-09-25T13:27:49Z</time>
      </trkpt>
      <trkpt lat="44.79741" lon="1.63595">
        <ele>145.6</ele>
        <time>2023-09-25T13:27:57.000Z</time>
      </trkpt>
      <trkpt lat="44.79746" lon="1.63599">
        <ele>145.8</ele>
        <time>2023-09-25T13:28:05Z</time>
      </trkpt>
      <trkpt lat="44.79752" lon="1.63602">
        <ele>145.5</ele>
        <time>2023-09-25T13:28:09.954Z</time>
      </trkpt>
      <trkpt lat="44.79757" lon="1.63604">
        <ele>145.4</ele>
        <time>2023-09-25T13:28:14Z</time>
      </trkpt>
      <trkpt lat="44.79762" lon="1.63605">
        <ele>145.1</ele>
        <time>2023-09-25T13:28:20.138Z</time>
      </trkpt>
      <trkpt lat="44.79766" lon="1.63605">
        <ele>144.8</ele>
        <time>2023-09-25T13:28:25Z</time>
      </trkpt>
      <trkpt lat="44.79774" lon="1.6361">
        <ele>144.4</ele>
        <time>2023-09-25T13:28:33Z</time>
      </trkpt>
      <trkpt lat="44.79781" lon="1.6361">
        <ele>144</ele>
        <time>2023-09-25T13:28:37.307Z</time>
      </trkpt>
      <trkpt lat="44.79787" lon="1.6361">
        <ele>143.9</ele>
        <time>2023-09-25T13:28:41Z</time>
      </trkpt>
      <trkpt lat="44.79794" lon="1.63611">
        <ele>144</ele>
        <time>2023-09-25T13:28:45.842Z</time>
      </trkpt>
      <trkpt lat="44.798" lon="1.63612">
        <ele>144.4</ele>
        <time>2023-09-25T13:28:50Z</time>
      </trkpt>
      <trkpt lat="44.79806" lon="1.63612">
        <ele>144.2</ele>
        <time>2023-09-25T13:28:54.343Z</time>
      </trkpt>
      <trkpt lat="44.79811" lon="1.63611">
        <ele>144.2</ele>
        <time>2023-09-25T13:28:58Z</time>
      </trkpt>
      <trkpt lat="44.79816" lon="1.63608">
        <ele>144.1</ele>
        <time>2023-09-25T13:29:02.907Z</time>
      </trkpt>
      <trkpt lat="44.7982" lon="1.63605">
        <ele>144</ele>
        <time>2023-09-25T13:29:07Z</time>
      </trkpt>
      <trkpt lat="44.79827" lon="1.63603">
        <ele>143.9</ele>
        <time>2023-09-25T13:29:11.830Z</time>
      </trkpt>
      <trkpt lat="44.79833" lon="1.63601">
        <ele>143.9</ele>
        <time>2023-09-25T13:29:16Z</time>
      </trkpt>
      <trkpt lat="44.7984" lon="1.636">
        <ele>144.5</ele>
        <time>2023-09-25T13:29:21.329Z</time>
      </trkpt>
      <trkpt lat="44.79846" lon="1.63598">
        <ele>145</ele>
        <time>2023-09-25T13:29:26Z</time>
      </trkpt>
      <trkpt lat="44.79851" lon="1.63595">
        <ele>145</ele>
        <time>2023-09-25T13:29:30.500Z</time>
      </trkpt>
      <trkpt lat="44.79856" lon="1.63592">
        <ele>144.8</ele>
        <time>2023-09-25T13:29:35Z</time>
      </trkpt>
      <trkpt lat="44.79863" lon="1.63587">
        <ele>144.4</ele>
        <time>2023-09-25T13:29:39.500Z</time>
      </trkpt>
      <trkpt lat="44.7987" lon="1.63582">
        <ele>144.8</ele>
        <time>2023-09-25T13:29:44Z</time>
      </trkpt>
      <trkpt lat="44.79875" lon="1.6358">
        <ele>145.4</ele>
        <time>2023-09-25T13:29:48.273Z</time>
      </trkpt>
      <trkpt lat="44.79879" lon="1.63577">
        <ele>145.9</ele>
        <time>2023-09-25T13:29:52Z</time>
      </trkpt>
      <trkpt lat="44.79884" lon="1.63574">
        <ele>146.1</ele>
        <time>2023-09-25T13:29:56.730Z</time>
      </trkpt>
      <trkpt lat="44.79888" lon="1.6357">
        <ele>146</ele>
        <time>2023-09-25T13:30:01Z</time>
      </trkpt>
      <trkpt lat="44.79893" lon="1.63567">
        <ele>146.9</ele>
        <time>2023-09-25T13:30:05.907Z</time>
      </trkpt>
      <trkpt lat="44.79897" lon="1.63564">
        <ele>147.9</ele>
        <time>2023-09-25T13:30:10Z</time>
      </trkpt>
      <trkpt lat="44.79903" lon="1.63559">
        <ele>148.5</ele>
        <time>2023-09-25T13:30:14.788Z</time>
      </trkpt>
      <trkpt lat="44.79908" lon="1.63554">
        <ele>149</ele>
        <time>2023-09-25T13:30:19Z</time>
      </trkpt>
      <trkpt lat="44.79911" lon="1.63549">
        <ele>149.1</ele>
        <time>2023-09-25T13:30:22.771Z</time>
      </trkpt>
      <trkpt lat="44.79914" lon="1.63543">
        <ele>149</ele>
        <time>2023-09-25T13:30:27Z</time>
      </trkpt>
      <trkpt lat="44.79916" lon="1.63535">
        <ele>148.2</ele>
        <time>2023-09-25T13:30:31.500Z</time>
      </trkpt>
      <trkpt lat="44.79918" lon="1.63527">
        <ele>147.7</ele>
        <time>2023-09-25T13:30:36Z</time>
      </trkpt>
      <trkpt lat="44.7992" lon="1.63519">
        <ele>147.5</ele>
        <time>2023-09-25T13:30:40.339Z</time>
      </trkpt>
      <trkpt lat="44.79921" lon="1.6351">
        <ele>147.3</ele>
        <time>2023-09-25T13:30:45Z</time>
      </trkpt>
      <trkpt lat="44.79926" lon="1.635">
        <ele>148.4</ele>
        <time>2023-09-25T13:30:53Z</time>
      </trkpt>
      <trkpt lat="44.79928" lon="1.63494">
        <ele>148.4</ele>
        <time>2023-09-25T13:30:57.332Z</time>
      </trkpt>
      <trkpt lat="44.79929" lon="1.63487">
        <ele>148.4</ele>
        <time>2023-09-25T13:31:02Z</time>
      </trkpt>
      <trkpt lat="44.79931" lon="1.6348">
        <ele>148.5</ele>
        <time>2023-09-25T13:31:06.500Z</time>
      </trkpt>
      <trkpt lat="44.79933" lon="1.63473">
        <ele>148.6</ele>
        <time>2023-09-25T13:31:11Z</time>
      </trkpt>
      <trkpt lat="44.79935" lon="1.63465">
        <ele>148.7</ele>
        <time>2023-09-25T13:31:15.500Z</time>
      </trkpt>
      <trkpt lat="44.79937" lon="1.63457">
        <ele>148.8</ele>
        <time>2023-09-25T13:31:20Z</time>
      </trkpt>
      <trkpt lat="44.79939" lon="1.63451">
        <ele>149</ele>
        <time>2023-09-25T13:31:24.208Z</time>
      </trkpt>
      <trkpt lat="44.79941" lon="1.63444">
        <ele>149</ele>
        <time>2023-09-25T13:31:29Z</time>
      </trkpt>
      <trkpt lat="44.79943" lon="1.63438">
        <ele>149</ele>
        <time>2023-09-25T13:31:33.332Z</time>
      </trkpt>
      <trkpt lat="44.79944" lon="1.63431">
        <ele>148.9</ele>
        <time>2023-09-25T13:31:38Z</time>
      </trkpt>
      <trkpt lat="44.79945" lon="1.63424">
        <ele>148.9</ele>
        <time>2023-09-25T13:31:43.000Z</time>
      </trkpt>
      <trkpt lat="44.79946" lon="1.63417">
        <ele>149.1</ele>
        <time>2023-09-25T13:31:48Z</time>
      </trkpt>
      <trkpt lat="44.79947" lon="1.63409">
        <ele>149.2</ele>
        <time>2023-09-25T13:31:53.038Z</time>
      </trkpt>
      <trkpt lat="44.79947" lon="1.63401">
        <ele>149.3</ele>
        <time>2023-09-25T13:31:58Z</time>
      </trkpt>
      <trkpt lat="44.79949" lon="1.63394">
        <ele>150.1</ele>
        <time>2023-09-25T13:32:02.624Z</time>
      </trkpt>
      <trkpt lat="44.7995" lon="1.63387">
        <ele>150.9</ele>
        <time>2023-09-25T13:32:07Z</time>
      </trkpt>
      <trkpt lat="44.79951" lon="1.6338">
        <ele>151.3</ele>
        <time>2023-09-25T13:32:12.000Z</time>
      </trkpt>
      <trkpt lat="44.79952" lon="1.63373">
        <ele>151.7</ele>
        <time>2023-09-25T13:32:17Z</time>
      </trkpt>
      <trkpt lat="44.79953" lon="1.63366">
        <ele>152.1</ele>
        <time>2023-09-25T13:32:21.678Z</time>
      </trkpt>
      <trkpt lat="44.79954" lon="1.63358">
        <ele>152.3</ele>
        <time>2023-09-25T13:32:27Z</time>
      </trkpt>
      <trkpt lat="44.79954" lon="1.63351">
        <ele>151.8</ele>
        <time>2023-09-25T13:32:31.500Z</time>
      </trkpt>
      <trkpt lat="44.79954" lon="1.63344">
        <ele>151.3</ele>
        <time>2023-09-25T13:32:36Z</time>
      </trkpt>
      <trkpt lat="44.79955" lon="1.63337">
        <ele>151.4</ele>
        <time>2023-09-25T13:32:40.210Z</time>
      </trkpt>
      <trkpt lat="44.79956" lon="1.63329">
        <ele>151.6</ele>
        <time>2023-09-25T13:32:45Z</time>
      </trkpt>
      <trkpt lat="44.79957" lon="1.63322">
        <ele>151.5</ele>
        <time>2023-09-25T13:32:49.244Z</time>
      </trkpt>
      <trkpt lat="44.79957" lon="1.63314">
        <ele>151.3</ele>
        <time>2023-09-25T13:32:54Z</time>
      </trkpt>
      <trkpt lat="44.79958" lon="1.63308">
        <ele>151.4</ele>
        <time>2023-09-25T13:32:57.706Z</time>
      </trkpt>
      <trkpt lat="44.79959" lon="1.63301">
        <ele>151</ele>
        <time>2023-09-25T13:33:02Z</time>
      </trkpt>
      <trkpt lat="44.79961" lon="1.63294">
        <ele>150.3</ele>
        <time>2023-09-25T13:33:07.138Z</time>
      </trkpt>
      <trkpt lat="44.79962" lon="1.63287">
        <ele>149.5</ele>
        <time>2023-09-25T13:33:12Z</time>
      </trkpt>
      <trkpt lat="44.79964" lon="1.6328">
        <ele>148.5</ele>
        <time>2023-09-25T13:33:16.237Z</time>
      </trkpt>
      <trkpt lat="44.79966" lon="1.63272">
        <ele>147.6</ele>
        <time>2023-09-25T13:33:21Z</time>
      </trkpt>
      <trkpt lat="44.79969" lon="1.63265">
        <ele>146.8</ele>
        <time>2023-09-25T13:33:25.908Z</time>
      </trkpt>
      <trkpt lat="44.79971" lon="1.63257">
        <ele>145.6</ele>
        <time>2023-09-25T13:33:31Z</time>
      </trkpt>
      <trkpt lat="44.79974" lon="1.63252">
        <ele>144.8</ele>
        <time>2023-09-25T13:33:35.714Z</time>
      </trkpt>
      <trkpt lat="44.79977" lon="1.63246">
        <ele>144.8</ele>
        <time>2023-09-25T13:33:41Z</time>
      </trkpt>
      <trkpt lat="44.79979" lon="1.63234">
        <ele>143.9</ele>
        <time>2023-09-25T13:33:51Z</time>
      </trkpt>
      <trkpt lat="44.79978" lon="1.63231">
        <ele>143.4</ele>
        <time>2023-09-25T13:36:20Z</time>
      </trkpt>
      <trkpt lat="44.79982" lon="1.63225">
        <ele>143</ele>
        <time>2023-09-25T13:36:49Z</time>
      </trkpt>
      <trkpt lat="44.7998" lon="1.63216">
        <ele>142.8</ele>
        <time>2023-09-25T13:37:00Z</time>
      </trkpt>
      <trkpt lat="44.7998" lon="1.63206">
        <ele>143.1</ele>
        <time>2023-09-25T13:37:14Z</time>
      </trkpt>
      <trkpt lat="44.79984" lon="1.63198">
        <ele>144</ele>
        <time>2023-09-25T13:37:36Z</time>
      </trkpt>
      <trkpt lat="44.79983" lon="1.632">
        <ele>143.7</ele>
        <time>2023-09-25T13:38:16Z</time>
      </trkpt>
      <trkpt lat="44.79987" lon="1.63193">
        <ele>144.6</ele>
        <time>2023-09-25T13:38:22.283Z</time>
      </trkpt>
      <trkpt lat="44.7999" lon="1.63186">
        <ele>145.3</ele>
        <time>2023-09-25T13:38:28Z</time>
      </trkpt>
      <trkpt lat="44.79993" lon="1.63178">
        <ele>146.3</ele>
        <time>2023-09-25T13:38:36.929Z</time>
      </trkpt>
      <trkpt lat="44.79996" lon="1.63171">
        <ele>147.6</ele>
        <time>2023-09-25T13:38:45Z</time>
      </trkpt>
      <trkpt lat="44.80001" lon="1.6316">
        <ele>148.5</ele>
        <time>2023-09-25T13:38:55Z</time>
      </trkpt>
      <trkpt lat="44.80006" lon="1.63153">
        <ele>150</ele>
        <time>2023-09-25T13:39:01.033Z</time>
      </trkpt>
      <trkpt lat="44.80011" lon="1.63145">
        <ele>151.7</ele>
        <time>2023-09-25T13:39:07.508Z</time>
      </trkpt>
      <trkpt lat="44.80014" lon="1.63136">
        <ele>152.2</ele>
        <time>2023-09-25T13:39:13.548Z</time>
      </trkpt>
      <trkpt lat="44.80018" lon="1.63127">
        <ele>152.2</ele>
        <time>2023-09-25T13:39:20Z</time>
      </trkpt>
      <trkpt lat="44.80019" lon="1.63118">
        <ele>150.3</ele>
        <time>2023-09-25T13:39:24.527Z</time>
      </trkpt>
      <trkpt lat="44.80019" lon="1.63109">
        <ele>148.6</ele>
        <time>2023-09-25T13:39:29Z</time>
      </trkpt>
      <trkpt lat="44.80021" lon="1.63102">
        <ele>148.3</ele>
        <time>2023-09-25T13:39:32.766Z</time>
      </trkpt>
      <trkpt lat="44.80023" lon="1.63094">
        <ele>147.8</ele>
        <time>2023-09-25T13:39:37Z</time>
      </trkpt>
      <trkpt lat="44.80027" lon="1.63083">
        <ele>146.8</ele>
        <time>2023-09-25T13:39:45Z</time>
      </trkpt>
      <trkpt lat="44.80031" lon="1.63077">
        <ele>148.1</ele>
        <time>2023-09-25T13:39:49.699Z</time>
      </trkpt>
      <trkpt lat="44.80035" lon="1.63072">
        <ele>149.5</ele>
        <time>2023-09-25T13:39:54Z</time>
      </trkpt>
      <trkpt lat="44.80039" lon="1.63068">
        <ele>150.6</ele>
        <time>2023-09-25T13:39:58.108Z</time>
      </trkpt>
      <trkpt lat="44.80042" lon="1.63063">
        <ele>151.6</ele>
        <time>2023-09-25T13:40:02Z</time>
      </trkpt>
      <trkpt lat="44.80042" lon="1.63055">
        <ele>149.7</ele>
        <time>2023-09-25T13:40:06.235Z</time>
      </trkpt>
      <trkpt lat="44.80042" lon="1.63046">
        <ele>148.6</ele>
        <time>2023-09-25T13:40:11Z</time>
      </trkpt>
      <trkpt lat="44.80045" lon="1.6304">
        <ele>149</ele>
        <time>2023-09-25T13:40:16.254Z</time>
      </trkpt>
      <trkpt lat="44.80047" lon="1.63034">
        <ele>149.1</ele>
        <time>2023-09-25T13:40:21Z</time>
      </trkpt>
      <trkpt lat="44.80048" lon="1.63026">
        <ele>148.5</ele>
        <time>2023-09-25T13:40:25.257Z</time>
      </trkpt>
      <trkpt lat="44.80049" lon="1.63019">
        <ele>147.9</ele>
        <time>2023-09-25T13:40:29Z</time>
      </trkpt>
      <trkpt lat="44.80054" lon="1.63013">
        <ele>148.7</ele>
        <time>2023-09-25T13:40:38Z</time>
      </trkpt>
      <trkpt lat="44.80057" lon="1.63007">
        <ele>149.1</ele>
        <time>2023-09-25T13:40:47Z</time>
      </trkpt>
      <trkpt lat="44.80058" lon="1.63">
        <ele>148.5</ele>
        <time>2023-09-25T13:40:49.272Z</time>
      </trkpt>
      <trkpt lat="44.80059" lon="1.62993">
        <ele>148.1</ele>
        <time>2023-09-25T13:40:51.544Z</time>
      </trkpt>
      <trkpt lat="44.80059" lon="1.62986">
        <ele>147</ele>
        <time>2023-09-25T13:40:53.772Z</time>
      </trkpt>
      <trkpt lat="44.80059" lon="1.62979">
        <ele>146</ele>
        <time>2023-09-25T13:40:56Z</time>
      </trkpt>
      <trkpt lat="44.80062" lon="1.62972">
        <ele>146.4</ele>
        <time>2023-09-25T13:41:05Z</time>
      </trkpt>
      <trkpt lat="44.80062" lon="1.62962">
        <ele>145.5</ele>
        <time>2023-09-25T13:41:09.736Z</time>
      </trkpt>
      <trkpt lat="44.80062" lon="1.62953">
        <ele>144.6</ele>
        <time>2023-09-25T13:41:14Z</time>
      </trkpt>
      <trkpt lat="44.80064" lon="1.62942">
        <ele>144.1</ele>
        <time>2023-09-25T13:41:18.553Z</time>
      </trkpt>
      <trkpt lat="44.80065" lon="1.62931">
        <ele>144</ele>
        <time>2023-09-25T13:41:23Z</time>
      </trkpt>
      <trkpt lat="44.80066" lon="1.62923">
        <ele>143.7</ele>
        <time>2023-09-25T13:41:27.242Z</time>
      </trkpt>
      <trkpt lat="44.80067" lon="1.62914">
        <ele>143.5</ele>
        <time>2023-09-25T13:41:32Z</time>
      </trkpt>
      <trkpt lat="44.80069" lon="1.62907">
        <ele>144</ele>
        <time>2023-09-25T13:41:36.624Z</time>
      </trkpt>
      <trkpt lat="44.8007" lon="1.629">
        <ele>144.4</ele>
        <time>2023-09-25T13:41:41Z</time>
      </trkpt>
      <trkpt lat="44.80071" lon="1.62893">
        <ele>144.6</ele>
        <time>2023-09-25T13:41:45.500Z</time>
      </trkpt>
      <trkpt lat="44.80072" lon="1.62886">
        <ele>144.7</ele>
        <time>2023-09-25T13:41:50Z</time>
      </trkpt>
      <trkpt lat="44.80074" lon="1.62879">
        <ele>144.7</ele>
        <time>2023-09-25T13:41:54.334Z</time>
      </trkpt>
      <trkpt lat="44.80075" lon="1.62871">
        <ele>144.6</ele>
        <time>2023-09-25T13:41:59Z</time>
      </trkpt>
      <trkpt lat="44.80076" lon="1.62865">
        <ele>144.4</ele>
        <time>2023-09-25T13:42:03.632Z</time>
      </trkpt>
      <trkpt lat="44.80077" lon="1.62858">
        <ele>144.2</ele>
        <time>2023-09-25T13:42:09Z</time>
      </trkpt>
      <trkpt lat="44.80078" lon="1.62851">
        <ele>144</ele>
        <time>2023-09-25T13:42:13.210Z</time>
      </trkpt>
      <trkpt lat="44.80079" lon="1.62843">
        <ele>143.8</ele>
        <time>2023-09-25T13:42:18Z</time>
      </trkpt>
      <trkpt lat="44.8008" lon="1.62837">
        <ele>143.6</ele>
        <time>2023-09-25T13:42:22.169Z</time>
      </trkpt>
      <trkpt lat="44.80081" lon="1.6283">
        <ele>143.6</ele>
        <time>2023-09-25T13:42:27Z</time>
      </trkpt>
      <trkpt lat="44.80082" lon="1.62823">
        <ele>143.8</ele>
        <time>2023-09-25T13:42:31.000Z</time>
      </trkpt>
      <trkpt lat="44.80083" lon="1.62816">
        <ele>143.9</ele>
        <time>2023-09-25T13:42:35Z</time>
      </trkpt>
      <trkpt lat="44.80084" lon="1.62809">
        <ele>144.1</ele>
        <time>2023-09-25T13:42:39.544Z</time>
      </trkpt>
      <trkpt lat="44.80084" lon="1.62802">
        <ele>144.2</ele>
        <time>2023-09-25T13:42:44Z</time>
      </trkpt>
      <trkpt lat="44.80084" lon="1.62795">
        <ele>143.6</ele>
        <time>2023-09-25T13:42:48.000Z</time>
      </trkpt>
      <trkpt lat="44.80084" lon="1.62788">
        <ele>143.1</ele>
        <time>2023-09-25T13:42:52Z</time>
      </trkpt>
      <trkpt lat="44.80085" lon="1.6278">
        <ele>143.1</ele>
        <time>2023-09-25T13:42:56.242Z</time>
      </trkpt>
      <trkpt lat="44.80086" lon="1.62771">
        <ele>142.9</ele>
        <time>2023-09-25T13:43:01Z</time>
      </trkpt>
      <trkpt lat="44.80087" lon="1.62765">
        <ele>142.4</ele>
        <time>2023-09-25T13:43:05.213Z</time>
      </trkpt>
      <trkpt lat="44.80087" lon="1.62758">
        <ele>142</ele>
        <time>2023-09-25T13:43:10Z</time>
      </trkpt>
      <trkpt lat="44.80089" lon="1.62751">
        <ele>142.1</ele>
        <time>2023-09-25T13:43:14.624Z</time>
      </trkpt>
      <trkpt lat="44.8009" lon="1.62744">
        <ele>142.7</ele>
        <time>2023-09-25T13:43:19Z</time>
      </trkpt>
      <trkpt lat="44.80092" lon="1.62737">
        <ele>143.3</ele>
        <time>2023-09-25T13:43:23.624Z</time>
      </trkpt>
      <trkpt lat="44.80093" lon="1.6273">
        <ele>143.8</ele>
        <time>2023-09-25T13:43:28Z</time>
      </trkpt>
      <trkpt lat="44.80094" lon="1.62723">
        <ele>143.8</ele>
        <time>2023-09-25T13:43:32.716Z</time>
      </trkpt>
      <trkpt lat="44.80094" lon="1.62715">
        <ele>143.7</ele>
        <time>2023-09-25T13:43:38Z</time>
      </trkpt>
      <trkpt lat="44.80095" lon="1.62708">
        <ele>143.8</ele>
        <time>2023-09-25T13:43:42.500Z</time>
      </trkpt>
      <trkpt lat="44.80096" lon="1.62701">
        <ele>143.9</ele>
        <time>2023-09-25T13:43:47Z</time>
      </trkpt>
      <trkpt lat="44.80097" lon="1.62693">
        <ele>143.8</ele>
        <time>2023-09-25T13:43:52.000Z</time>
      </trkpt>
      <trkpt lat="44.80098" lon="1.62685">
        <ele>143.6</ele>
        <time>2023-09-25T13:43:57Z</time>
      </trkpt>
      <trkpt lat="44.801" lon="1.62676">
        <ele>143.2</ele>
        <time>2023-09-25T13:44:02.311Z</time>
      </trkpt>
      <trkpt lat="44.80101" lon="1.62666">
        <ele>142.8</ele>
        <time>2023-09-25T13:44:08Z</time>
      </trkpt>
      <trkpt lat="44.80103" lon="1.62659">
        <ele>142.4</ele>
        <time>2023-09-25T13:44:12.815Z</time>
      </trkpt>
      <trkpt lat="44.80104" lon="1.62651">
        <ele>142.1</ele>
        <time>2023-09-25T13:44:18Z</time>
      </trkpt>
      <trkpt lat="44.80106" lon="1.62643">
        <ele>141.7</ele>
        <time>2023-09-25T13:44:22.500Z</time>
      </trkpt>
      <trkpt lat="44.80108" lon="1.62635">
        <ele>141.2</ele>
        <time>2023-09-25T13:44:27Z</time>
      </trkpt>
      <trkpt lat="44.80111" lon="1.62627">
        <ele>140.7</ele>
        <time>2023-09-25T13:44:31.500Z</time>
      </trkpt>
      <trkpt lat="44.80114" lon="1.62619">
        <ele>141.2</ele>
        <time>2023-09-25T13:44:36Z</time>
      </trkpt>
      <trkpt lat="44.80116" lon="1.62608">
        <ele>140.9</ele>
        <time>2023-09-25T13:44:45Z</time>
      </trkpt>
      <trkpt lat="44.80119" lon="1.62601">
        <ele>141.2</ele>
        <time>2023-09-25T13:44:49.908Z</time>
      </trkpt>
      <trkpt lat="44.80121" lon="1.62593">
        <ele>141.2</ele>
        <time>2023-09-25T13:44:55Z</time>
      </trkpt>
      <trkpt lat="44.80125" lon="1.62587">
        <ele>141.5</ele>
        <time>2023-09-25T13:44:59.302Z</time>
      </trkpt>
      <trkpt lat="44.80129" lon="1.6258">
        <ele>141.5</ele>
        <time>2023-09-25T13:45:04Z</time>
      </trkpt>
      <trkpt lat="44.80133" lon="1.62573">
        <ele>141.1</ele>
        <time>2023-09-25T13:45:08.484Z</time>
      </trkpt>
      <trkpt lat="44.80136" lon="1.62565">
        <ele>140.4</ele>
        <time>2023-09-25T13:45:13Z</time>
      </trkpt>
      <trkpt lat="44.80139" lon="1.62559">
        <ele>139.5</ele>
        <time>2023-09-25T13:45:16.944Z</time>
      </trkpt>
      <trkpt lat="44.80141" lon="1.62552">
        <ele>139.5</ele>
        <time>2023-09-25T13:45:21Z</time>
      </trkpt>
      <trkpt lat="44.80144" lon="1.62547">
        <ele>139.9</ele>
        <time>2023-09-25T13:45:25.000Z</time>
      </trkpt>
      <trkpt lat="44.80147" lon="1.62542">
        <ele>140.2</ele>
        <time>2023-09-25T13:45:29Z</time>
      </trkpt>
      <trkpt lat="44.8015" lon="1.62536">
        <ele>140</ele>
        <time>2023-09-25T13:45:33.437Z</time>
      </trkpt>
      <trkpt lat="44.80152" lon="1.62529">
        <ele>139.6</ele>
        <time>2023-09-25T13:45:38Z</time>
      </trkpt>
      <trkpt lat="44.80156" lon="1.62524">
        <ele>139.7</ele>
        <time>2023-09-25T13:45:42.815Z</time>
      </trkpt>
      <trkpt lat="44.80159" lon="1.62519">
        <ele>139.8</ele>
        <time>2023-09-25T13:45:47Z</time>
      </trkpt>
      <trkpt lat="44.80156" lon="1.62509">
        <ele>138.7</ele>
        <time>2023-09-25T13:46:02Z</time>
      </trkpt>
      <trkpt lat="44.80153" lon="1.62505">
        <ele>138.3</ele>
        <time>2023-09-25T13:46:09.313Z</time>
      </trkpt>
      <trkpt lat="44.80149" lon="1.62501">
        <ele>138</ele>
        <time>2023-09-25T13:46:18Z</time>
      </trkpt>
      <trkpt lat="44.80148" lon="1.6249">
        <ele>137.9</ele>
        <time>2023-09-25T13:46:27Z</time>
      </trkpt>
      <trkpt lat="44.80153" lon="1.62484">
        <ele>137.7</ele>
        <time>2023-09-25T13:46:32.000Z</time>
      </trkpt>
      <trkpt lat="44.80158" lon="1.62478">
        <ele>137.5</ele>
        <time>2023-09-25T13:46:37Z</time>
      </trkpt>
      <trkpt lat="44.80162" lon="1.62474">
        <ele>137.2</ele>
        <time>2023-09-25T13:46:41.305Z</time>
      </trkpt>
      <trkpt lat="44.80166" lon="1.62469">
        <ele>137</ele>
        <time>2023-09-25T13:46:46Z</time>
      </trkpt>
      <trkpt lat="44.80171" lon="1.62464">
        <ele>137.1</ele>
        <time>2023-09-25T13:46:50.807Z</time>
      </trkpt>
      <trkpt lat="44.80175" lon="1.62459">
        <ele>137.2</ele>
        <time>2023-09-25T13:46:55Z</time>
      </trkpt>
      <trkpt lat="44.8018" lon="1.62454">
        <ele>137.2</ele>
        <time>2023-09-25T13:47:00.341Z</time>
      </trkpt>
      <trkpt lat="44.80184" lon="1.62449">
        <ele>137.1</ele>
        <time>2023-09-25T13:47:05Z</time>
      </trkpt>
      <trkpt lat="44.8019" lon="1.62446">
        <ele>137</ele>
        <time>2023-09-25T13:47:20.763Z</time>
      </trkpt>
      <trkpt lat="44.80195" lon="1.62442">
        <ele>137</ele>
        <time>2023-09-25T13:47:35Z</time>
      </trkpt>
    </trkseg>
  </trk>
</gpx>